Wetterdaten: Freitag, 04.05.2012
Datum Zeit Temp. A. Feuchte A. Regen Wind Richtung Richtung Taupunkt Windchill Windben
04.05.2012 00:00 11,5 C 76 % 0,0 l/m 0,2 km/h (0 Bft) S 180 7,4 C 10,1 C 0,0 km/h (0 Bft)
04.05.2012 00:01 11,5 C 76 % 0,0 l/m 0,0 km/h (0 Bft) W 270 7,4 C 9,9 C 0,0 km/h (0 Bft)
04.05.2012 00:02 11,5 C 76 % 0,0 l/m 0,0 km/h (0 Bft) W 270 7,4 C 9,9 C 0,0 km/h (0 Bft)
04.05.2012 00:03 11,4 C 76 % 0,0 l/m 0,0 km/h (0 Bft) W-NW 292 7,3 C 9,9 C 0,0 km/h (0 Bft)
04.05.2012 00:04 11,4 C 76 % 0,0 l/m 0,0 km/h (0 Bft) W-NW 292 7,3 C 9,9 C 0,0 km/h (0 Bft)
04.05.2012 00:05 11,3 C 76 % 0,0 l/m 0,0 km/h (0 Bft) W-NW 292 7,2 C 9,7 C 0,0 km/h (0 Bft)
04.05.2012 00:06 11,3 C 76 % 0,0 l/m 0,0 km/h (0 Bft) W-NW 292 7,2 C 9,7 C 0,0 km/h (0 Bft)
04.05.2012 00:07 11,2 C 76 % 0,0 l/m 0,0 km/h (0 Bft) W-NW 292 7,1 C 9,6 C 0,0 km/h (0 Bft)
04.05.2012 00:08 11,2 C 76 % 0,0 l/m 0,0 km/h (0 Bft) W-NW 292 7,1 C 9,6 C 0,0 km/h (0 Bft)
04.05.2012 00:09 11,2 C 76 % 0,0 l/m 0,0 km/h (0 Bft) N-NO 22 7,1 C 9,4 C 0,0 km/h (0 Bft)
04.05.2012 00:10 11,2 C 76 % 0,0 l/m 0,0 km/h (0 Bft) N-NO 22 7,1 C 9,4 C 0,0 km/h (0 Bft)
04.05.2012 00:11 11,1 C 76 % 0,0 l/m 0,0 km/h (0 Bft) N-NW 337 7,0 C 9,3 C 0,0 km/h (0 Bft)
04.05.2012 00:12 11,1 C 76 % 0,0 l/m 0,0 km/h (0 Bft) N-NW 337 7,0 C 9,3 C 0,0 km/h (0 Bft)
04.05.2012 00:13 11,1 C 76 % 0,0 l/m 0,0 km/h (0 Bft) N 360 7,0 C 9,1 C 0,0 km/h (0 Bft)
04.05.2012 00:14 11,1 C 76 % 0,0 l/m 0,0 km/h (0 Bft) N 360 7,0 C 9,1 C 0,0 km/h (0 Bft)
04.05.2012 00:15 10,9 C 76 % 0,0 l/m 0,0 km/h (0 Bft) W-SW 247 6,8 C 9,0 C 0,0 km/h (0 Bft)
04.05.2012 00:16 10,9 C 76 % 0,0 l/m 0,0 km/h (0 Bft) W-SW 247 6,8 C 9,0 C 0,0 km/h (0 Bft)
04.05.2012 00:17 10,9 C 76 % 0,0 l/m 0,0 km/h (0 Bft) SO 135 6,8 C 8,8 C 0,0 km/h (0 Bft)
04.05.2012 00:18 10,9 C 76 % 0,0 l/m 0,0 km/h (0 Bft) SO 135 6,8 C 8,8 C 0,0 km/h (0 Bft)
04.05.2012 00:19 10,8 C 76 % 0,0 l/m 0,0 km/h (0 Bft) N 360 6,7 C 8,7 C 0,0 km/h (0 Bft)
04.05.2012 00:20 10,8 C 76 % 0,0 l/m 0,0 km/h (0 Bft) N 360 6,7 C 8,7 C 0,0 km/h (0 Bft)
04.05.2012 00:21 10,7 C 76 % 0,0 l/m 0,0 km/h (0 Bft) O-SO 112 6,6 C 8,6 C 0,0 km/h (0 Bft)
04.05.2012 00:22 10,7 C 76 % 0,0 l/m 0,0 km/h (0 Bft) O-SO 112 6,6 C 8,6 C 0,0 km/h (0 Bft)
04.05.2012 00:23 10,7 C 76 % 0,0 l/m 0,2 km/h (0 Bft) N-NO 22 6,6 C 8,4 C 0,0 km/h (0 Bft)
04.05.2012 00:24 10,7 C 76 % 0,0 l/m 0,2 km/h (0 Bft) N-NO 22 6,6 C 8,4 C 0,0 km/h (0 Bft)
04.05.2012 00:25 10,5 C 76 % 0,0 l/m 0,2 km/h (0 Bft) SO 135 6,5 C 8,4 C 0,0 km/h (0 Bft)
04.05.2012 00:26 10,5 C 76 % 0,0 l/m 0,2 km/h (0 Bft) SO 135 6,5 C 8,4 C 0,0 km/h (0 Bft)
04.05.2012 00:27 10,5 C 76 % 0,0 l/m 0,2 km/h (0 Bft) S-SO 157 6,5 C 8,4 C 0,0 km/h (0 Bft)
04.05.2012 00:28 10,5 C 76 % 0,0 l/m 0,2 km/h (0 Bft) S-SO 157 6,5 C 8,4 C 0,0 km/h (0 Bft)
04.05.2012 00:29 10,4 C 77 % 0,0 l/m 0,2 km/h (0 Bft) N 360 6,5 C 8,3 C 0,0 km/h (0 Bft)
04.05.2012 00:30 10,4 C 77 % 0,0 l/m 0,2 km/h (0 Bft) N 360 6,5 C 8,3 C 2,1 km/h (1 Bft)
04.05.2012 00:31 10,4 C 77 % 0,0 l/m 0,2 km/h (0 Bft) O 90 6,5 C 8,1 C 0,0 km/h (0 Bft)
04.05.2012 00:32 10,4 C 77 % 0,0 l/m 0,2 km/h (0 Bft) O 90 6,5 C 8,1 C 0,0 km/h (0 Bft)
04.05.2012 00:33 10,3 C 77 % 0,0 l/m 0,0 km/h (0 Bft) S 180 6,4 C 8,1 C 0,0 km/h (0 Bft)
04.05.2012 00:34 10,3 C 77 % 0,0 l/m 0,0 km/h (0 Bft) S 180 6,4 C 8,1 C 0,0 km/h (0 Bft)
04.05.2012 00:35 10,2 C 77 % 0,0 l/m 0,2 km/h (0 Bft) SO 135 6,4 C 7,9 C 2,6 km/h (1 Bft)
04.05.2012 00:36 10,2 C 77 % 0,0 l/m 0,2 km/h (0 Bft) SO 135 6,4 C 7,9 C 2,6 km/h (1 Bft)
04.05.2012 00:37 10,2 C 77 % 0,0 l/m 0,6 km/h (0 Bft) O 90 6,4 C 7,9 C 2,3 km/h (1 Bft)
04.05.2012 00:38 10,2 C 77 % 0,0 l/m 0,6 km/h (0 Bft) O 90 6,4 C 7,9 C 2,3 km/h (1 Bft)
04.05.2012 00:39 10,3 C 77 % 0,0 l/m 0,6 km/h (0 Bft) O-SO 112 6,4 C 7,9 C 0,0 km/h (0 Bft)
04.05.2012 00:40 10,3 C 77 % 0,0 l/m 0,6 km/h (0 Bft) O-SO 112 6,4 C 7,9 C 4,5 km/h (1 Bft)
04.05.2012 00:41 10,1 C 77 % 0,0 l/m 0,6 km/h (0 Bft) SO 135 6,3 C 7,8 C 0,0 km/h (0 Bft)
04.05.2012 00:42 10,1 C 77 % 0,0 l/m 0,6 km/h (0 Bft) SO 135 6,3 C 7,8 C 0,0 km/h (0 Bft)
04.05.2012 00:43 10,1 C 77 % 0,0 l/m 0,6 km/h (0 Bft) S 180 6,3 C 7,8 C 0,0 km/h (0 Bft)
04.05.2012 00:44 10,1 C 77 % 0,0 l/m 0,6 km/h (0 Bft) S 180 6,3 C 7,8 C 0,0 km/h (0 Bft)
04.05.2012 00:45 10,0 C 77 % 0,0 l/m 0,8 km/h (0 Bft) O-SO 112 6,2 C 7,8 C 1,8 km/h (1 Bft)
04.05.2012 00:46 10,0 C 77 % 0,0 l/m 0,8 km/h (0 Bft) O-SO 112 6,2 C 7,8 C 1,8 km/h (1 Bft)
04.05.2012 00:47 10,1 C 77 % 0,0 l/m 0,5 km/h (0 Bft) O-NO 67 6,3 C 7,7 C 2,4 km/h (1 Bft)
04.05.2012 00:48 10,1 C 77 % 0,0 l/m 0,5 km/h (0 Bft) O-NO 67 6,3 C 7,7 C 2,4 km/h (1 Bft)
04.05.2012 00:49 10,0 C 78 % 0,0 l/m 0,5 km/h (0 Bft) S 180 6,3 C 7,7 C 1,9 km/h (1 Bft)
04.05.2012 00:50 10,0 C 78 % 0,0 l/m 0,5 km/h (0 Bft) S 180 6,3 C 7,7 C 1,9 km/h (1 Bft)
04.05.2012 00:51 9,9 C 77 % 0,0 l/m 0,6 km/h (0 Bft) NW 315 6,1 C 7,7 C 3,4 km/h (1 Bft)
04.05.2012 00:52 9,9 C 77 % 0,0 l/m 0,6 km/h (0 Bft) NW 315 6,1 C 7,7 C 3,4 km/h (1 Bft)
04.05.2012 00:53 9,9 C 78 % 0,0 l/m 0,8 km/h (0 Bft) N-NW 337 6,2 C 7,6 C 0,0 km/h (0 Bft)
04.05.2012 00:54 9,9 C 78 % 0,0 l/m 0,8 km/h (0 Bft) N-NW 337 6,2 C 7,6 C 0,0 km/h (0 Bft)
04.05.2012 00:55 9,9 C 78 % 0,0 l/m 0,8 km/h (0 Bft) S-SO 157 6,2 C 7,6 C 1,8 km/h (1 Bft)
04.05.2012 00:56 9,9 C 78 % 0,0 l/m 0,8 km/h (0 Bft) S-SO 157 6,2 C 7,6 C 1,8 km/h (1 Bft)
04.05.2012 00:57 9,9 C 78 % 0,0 l/m 1,1 km/h (1 Bft) O-SO 112 6,2 C 7,6 C 2,4 km/h (1 Bft)
04.05.2012 00:58 9,9 C 78 % 0,0 l/m 1,1 km/h (1 Bft) O-SO 112 6,2 C 7,6 C 2,4 km/h (1 Bft)
04.05.2012 00:59 9,7 C 78 % 0,0 l/m 1,6 km/h (1 Bft) SO 135 6,1 C 7,7 C 4,0 km/h (1 Bft)
04.05.2012 01:00 9,7 C 78 % 0,0 l/m 1,6 km/h (1 Bft) SO 135 6,1 C 7,7 C 5,3 km/h (1 Bft)
04.05.2012 01:01 9,7 C 78 % 0,0 l/m 1,9 km/h (1 Bft) N-NO 22 6,1 C 7,7 C 2,6 km/h (1 Bft)
04.05.2012 01:02 9,7 C 78 % 0,0 l/m 1,9 km/h (1 Bft) N-NO 22 6,1 C 7,7 C 2,6 km/h (1 Bft)
04.05.2012 01:03 9,7 C 78 % 0,0 l/m 1,6 km/h (1 Bft) N-NO 22 6,1 C 7,8 C 0,0 km/h (0 Bft)
04.05.2012 01:04 9,7 C 78 % 0,0 l/m 1,6 km/h (1 Bft) N-NO 22 6,1 C 7,8 C 0,0 km/h (0 Bft)
04.05.2012 01:05 9,7 C 78 % 0,0 l/m 1,6 km/h (1 Bft) NO 45 6,1 C 7,7 C 0,0 km/h (0 Bft)
04.05.2012 01:06 9,7 C 78 % 0,0 l/m 1,6 km/h (1 Bft) NO 45 6,1 C 7,7 C 0,0 km/h (0 Bft)
04.05.2012 01:07 9,6 C 78 % 0,0 l/m 1,3 km/h (1 Bft) SO 135 6,0 C 7,6 C 0,0 km/h (0 Bft)
04.05.2012 01:08 9,6 C 78 % 0,0 l/m 1,3 km/h (1 Bft) SO 135 6,0 C 7,6 C 0,0 km/h (0 Bft)
04.05.2012 01:09 9,6 C 78 % 0,0 l/m 1,1 km/h (1 Bft) O-NO 67 6,0 C 7,5 C 3,2 km/h (1 Bft)
04.05.2012 01:10 9,6 C 78 % 0,0 l/m 1,1 km/h (1 Bft) O-NO 67 6,0 C 7,5 C 3,2 km/h (1 Bft)
04.05.2012 01:11 9,6 C 79 % 0,0 l/m 0,6 km/h (0 Bft) W 270 6,1 C 7,6 C 1,8 km/h (1 Bft)
04.05.2012 01:12 9,6 C 79 % 0,0 l/m 0,6 km/h (0 Bft) W 270 6,1 C 7,6 C 1,8 km/h (1 Bft)
04.05.2012 01:13 9,5 C 79 % 0,0 l/m 0,6 km/h (0 Bft) W 270 6,0 C 7,6 C 0,0 km/h (0 Bft)
04.05.2012 01:14 9,5 C 79 % 0,0 l/m 0,6 km/h (0 Bft) W 270 6,0 C 7,6 C 0,0 km/h (0 Bft)
04.05.2012 01:15 9,5 C 79 % 0,0 l/m 0,6 km/h (0 Bft) S-SO 157 6,0 C 7,5 C 1,8 km/h (1 Bft)
04.05.2012 01:16 9,5 C 79 % 0,0 l/m 0,6 km/h (0 Bft) S-SO 157 6,0 C 7,5 C 1,8 km/h (1 Bft)
04.05.2012 01:17 9,4 C 79 % 0,0 l/m 0,8 km/h (0 Bft) N 360 5,9 C 7,5 C 1,6 km/h (1 Bft)
04.05.2012 01:18 9,4 C 79 % 0,0 l/m 0,8 km/h (0 Bft) N 360 5,9 C 7,5 C 1,6 km/h (1 Bft)
04.05.2012 01:19 9,4 C 79 % 0,0 l/m 0,8 km/h (0 Bft) S-SO 157 5,9 C 7,4 C 2,4 km/h (1 Bft)
04.05.2012 01:20 9,4 C 79 % 0,0 l/m 0,8 km/h (0 Bft) S-SO 157 5,9 C 7,4 C 2,4 km/h (1 Bft)
04.05.2012 01:21 9,4 C 79 % 0,0 l/m 0,6 km/h (0 Bft) O 90 5,9 C 7,4 C 0,0 km/h (0 Bft)
04.05.2012 01:22 9,4 C 79 % 0,0 l/m 0,6 km/h (0 Bft) O 90 5,9 C 7,4 C 0,0 km/h (0 Bft)
04.05.2012 01:23 9,5 C 79 % 0,0 l/m 0,8 km/h (0 Bft) N 360 6,0 C 7,4 C 2,6 km/h (1 Bft)
04.05.2012 01:24 9,5 C 79 % 0,0 l/m 0,8 km/h (0 Bft) N 360 6,0 C 7,4 C 2,6 km/h (1 Bft)
04.05.2012 01:25 9,5 C 79 % 0,0 l/m 0,8 km/h (0 Bft) S-SO 157 6,0 C 7,4 C 2,4 km/h (1 Bft)
04.05.2012 01:26 9,5 C 79 % 0,0 l/m 0,8 km/h (0 Bft) S-SO 157 6,0 C 7,4 C 2,4 km/h (1 Bft)
04.05.2012 01:27 9,3 C 79 % 0,0 l/m 1,1 km/h (1 Bft) O-NO 67 5,8 C 7,3 C 3,1 km/h (1 Bft)
04.05.2012 01:28 9,3 C 79 % 0,0 l/m 1,1 km/h (1 Bft) O-NO 67 5,8 C 7,3 C 3,1 km/h (1 Bft)
04.05.2012 01:29 9,3 C 79 % 0,0 l/m 1,0 km/h (0 Bft) S 180 5,8 C 7,3 C 0,0 km/h (0 Bft)
04.05.2012 01:30 9,3 C 79 % 0,0 l/m 1,0 km/h (0 Bft) S 180 5,8 C 7,3 C 0,0 km/h (0 Bft)
04.05.2012 01:31 9,3 C 80 % 0,0 l/m 0,8 km/h (0 Bft) SO 135 6,0 C 7,3 C 1,6 km/h (1 Bft)
04.05.2012 01:32 9,3 C 80 % 0,0 l/m 0,8 km/h (0 Bft) SO 135 6,0 C 7,3 C 1,6 km/h (1 Bft)
04.05.2012 01:33 9,2 C 80 % 0,0 l/m 1,0 km/h (0 Bft) S-SO 157 5,9 C 7,2 C 3,5 km/h (1 Bft)
04.05.2012 01:34 9,2 C 80 % 0,0 l/m 1,0 km/h (0 Bft) S-SO 157 5,9 C 7,2 C 3,5 km/h (1 Bft)
04.05.2012 01:35 9,2 C 80 % 0,0 l/m 1,0 km/h (0 Bft) S 180 5,9 C 7,2 C 0,0 km/h (0 Bft)
04.05.2012 01:36 9,2 C 80 % 0,0 l/m 1,0 km/h (0 Bft) S 180 5,9 C 7,2 C 0,0 km/h (0 Bft)
04.05.2012 01:37 9,3 C 80 % 0,0 l/m 0,6 km/h (0 Bft) O 90 6,0 C 7,2 C 0,0 km/h (0 Bft)
04.05.2012 01:38 9,3 C 80 % 0,0 l/m 0,6 km/h (0 Bft) O 90 6,0 C 7,2 C 0,0 km/h (0 Bft)
04.05.2012 01:39 9,2 C 80 % 0,0 l/m 0,5 km/h (0 Bft) N-NW 337 5,9 C 7,1 C 0,0 km/h (0 Bft)
04.05.2012 01:40 9,2 C 80 % 0,0 l/m 0,5 km/h (0 Bft) N-NW 337 5,9 C 7,1 C 0,0 km/h (0 Bft)
04.05.2012 01:41 9,1 C 80 % 0,0 l/m 0,5 km/h (0 Bft) S 180 5,8 C 7,1 C 0,0 km/h (0 Bft)
04.05.2012 01:42 9,1 C 80 % 0,0 l/m 0,5 km/h (0 Bft) S 180 5,8 C 7,1 C 0,0 km/h (0 Bft)
04.05.2012 01:43 9,1 C 80 % 0,0 l/m 0,5 km/h (0 Bft) W-SW 247 5,8 C 7,0 C 0,0 km/h (0 Bft)
04.05.2012 01:44 9,1 C 80 % 0,0 l/m 0,5 km/h (0 Bft) W-SW 247 5,8 C 7,0 C 0,0 km/h (0 Bft)
04.05.2012 01:45 9,0 C 79 % 0,0 l/m 0,2 km/h (0 Bft) W 270 5,6 C 6,9 C 0,0 km/h (0 Bft)
04.05.2012 01:46 9,0 C 79 % 0,0 l/m 0,2 km/h (0 Bft) W 270 5,6 C 6,9 C 0,0 km/h (0 Bft)
04.05.2012 01:47 9,1 C 80 % 0,0 l/m 0,2 km/h (0 Bft) N-NW 337 5,8 C 6,9 C 0,0 km/h (0 Bft)
04.05.2012 01:48 9,1 C 80 % 0,0 l/m 0,2 km/h (0 Bft) N-NW 337 5,8 C 6,9 C 0,0 km/h (0 Bft)
04.05.2012 01:49 8,9 C 80 % 0,0 l/m 0,2 km/h (0 Bft) S-SO 157 5,6 C 6,8 C 0,0 km/h (0 Bft)
04.05.2012 01:50 8,9 C 80 % 0,0 l/m 0,2 km/h (0 Bft) S-SO 157 5,6 C 6,8 C 0,0 km/h (0 Bft)
04.05.2012 01:51 8,9 C 80 % 0,0 l/m 0,2 km/h (0 Bft) NO 45 5,6 C 6,7 C 0,0 km/h (0 Bft)
04.05.2012 01:52 8,9 C 80 % 0,0 l/m 0,2 km/h (0 Bft) NO 45 5,6 C 6,7 C 0,0 km/h (0 Bft)
04.05.2012 01:53 8,8 C 80 % 0,0 l/m 0,0 km/h (0 Bft) N-NO 22 5,5 C 6,6 C 0,0 km/h (0 Bft)
04.05.2012 01:54 8,8 C 80 % 0,0 l/m 0,0 km/h (0 Bft) N-NO 22 5,5 C 6,6 C 0,0 km/h (0 Bft)
04.05.2012 01:55 8,8 C 80 % 0,0 l/m 0,0 km/h (0 Bft) O-NO 67 5,5 C 6,5 C 0,0 km/h (0 Bft)
04.05.2012 01:56 8,8 C 80 % 0,0 l/m 0,0 km/h (0 Bft) O-NO 67 5,5 C 6,5 C 0,0 km/h (0 Bft)
04.05.2012 01:57 8,8 C 80 % 0,0 l/m 0,0 km/h (0 Bft) SO 135 5,5 C 6,5 C 0,0 km/h (0 Bft)
04.05.2012 01:58 8,8 C 80 % 0,0 l/m 0,0 km/h (0 Bft) SO 135 5,5 C 6,5 C 0,0 km/h (0 Bft)
04.05.2012 01:59 8,8 C 80 % 0,0 l/m 0,0 km/h (0 Bft) SO 135 5,5 C 6,5 C 0,0 km/h (0 Bft)
04.05.2012 02:00 8,8 C 80 % 0,0 l/m 0,0 km/h (0 Bft) SO 135 5,5 C 6,5 C 0,0 km/h (0 Bft)
04.05.2012 02:01 8,7 C 80 % 0,0 l/m 0,0 km/h (0 Bft) N 360 5,4 C 6,4 C 0,0 km/h (0 Bft)
04.05.2012 02:02 8,7 C 80 % 0,0 l/m 0,0 km/h (0 Bft) N 360 5,4 C 6,4 C 0,0 km/h (0 Bft)
04.05.2012 02:03 8,7 C 81 % 0,0 l/m 0,0 km/h (0 Bft) N-NO 22 5,6 C 6,4 C 0,0 km/h (0 Bft)
04.05.2012 02:04 8,7 C 81 % 0,0 l/m 0,0 km/h (0 Bft) N-NO 22 5,6 C 6,4 C 0,0 km/h (0 Bft)
04.05.2012 02:05 8,7 C 80 % 0,0 l/m 0,0 km/h (0 Bft) SO 135 5,4 C 6,3 C 0,0 km/h (0 Bft)
04.05.2012 02:06 8,7 C 80 % 0,0 l/m 0,0 km/h (0 Bft) SO 135 5,4 C 6,3 C 0,0 km/h (0 Bft)
04.05.2012 02:07 8,7 C 81 % 0,0 l/m 0,0 km/h (0 Bft) S-SO 157 5,6 C 6,3 C 0,0 km/h (0 Bft)
04.05.2012 02:08 8,7 C 81 % 0,0 l/m 0,0 km/h (0 Bft) S-SO 157 5,6 C 6,3 C 0,0 km/h (0 Bft)
04.05.2012 02:09 8,6 C 81 % 0,0 l/m 0,0 km/h (0 Bft) N-NO 22 5,5 C 6,3 C 0,0 km/h (0 Bft)
04.05.2012 02:10 8,6 C 81 % 0,0 l/m 0,0 km/h (0 Bft) N-NO 22 5,5 C 6,3 C 0,0 km/h (0 Bft)
04.05.2012 02:11 8,5 C 81 % 0,0 l/m 0,0 km/h (0 Bft) W 270 5,4 C 6,3 C 0,0 km/h (0 Bft)
04.05.2012 02:12 8,5 C 81 % 0,0 l/m 0,0 km/h (0 Bft) W 270 5,4 C 6,3 C 0,0 km/h (0 Bft)
04.05.2012 02:13 8,5 C 81 % 0,0 l/m 0,0 km/h (0 Bft) W 270 5,4 C 6,2 C 0,0 km/h (0 Bft)
04.05.2012 02:14 8,5 C 81 % 0,0 l/m 0,0 km/h (0 Bft) W 270 5,4 C 6,2 C 0,0 km/h (0 Bft)
04.05.2012 02:15 8,5 C 81 % 0,0 l/m 0,0 km/h (0 Bft) W 270 5,4 C 6,2 C 0,0 km/h (0 Bft)
04.05.2012 02:16 8,5 C 81 % 0,0 l/m 0,0 km/h (0 Bft) W 270 5,4 C 6,2 C 0,0 km/h (0 Bft)
04.05.2012 02:17 8,5 C 81 % 0,0 l/m 0,0 km/h (0 Bft) N-NO 22 5,4 C 6,1 C 0,0 km/h (0 Bft)
04.05.2012 02:18 8,5 C 81 % 0,0 l/m 0,0 km/h (0 Bft) N-NO 22 5,4 C 6,1 C 0,0 km/h (0 Bft)
04.05.2012 02:19 8,4 C 81 % 0,0 l/m 0,0 km/h (0 Bft) S 180 5,3 C 6,1 C 1,6 km/h (1 Bft)
04.05.2012 02:20 8,4 C 81 % 0,0 l/m 0,0 km/h (0 Bft) S 180 5,3 C 6,1 C 1,6 km/h (1 Bft)
04.05.2012 02:21 8,5 C 81 % 0,0 l/m 0,0 km/h (0 Bft) S 180 5,4 C 6,1 C 0,0 km/h (0 Bft)
04.05.2012 02:22 8,5 C 81 % 0,0 l/m 0,0 km/h (0 Bft) S 180 5,4 C 6,1 C 0,0 km/h (0 Bft)
04.05.2012 02:23 8,5 C 81 % 0,0 l/m 0,0 km/h (0 Bft) SW 225 5,4 C 6,1 C 0,0 km/h (0 Bft)
04.05.2012 02:24 8,5 C 81 % 0,0 l/m 0,0 km/h (0 Bft) SW 225 5,4 C 6,1 C 0,0 km/h (0 Bft)
04.05.2012 02:25 8,4 C 81 % 0,0 l/m 0,0 km/h (0 Bft) S-SO 157 5,3 C 6,1 C 0,0 km/h (0 Bft)
04.05.2012 02:26 8,4 C 81 % 0,0 l/m 0,0 km/h (0 Bft) S-SO 157 5,3 C 6,1 C 0,0 km/h (0 Bft)
04.05.2012 02:27 8,4 C 81 % 0,0 l/m 0,2 km/h (0 Bft) S 180 5,3 C 6,0 C 2,9 km/h (1 Bft)
04.05.2012 02:28 8,4 C 81 % 0,0 l/m 0,2 km/h (0 Bft) S 180 5,3 C 6,0 C 2,9 km/h (1 Bft)
04.05.2012 02:29 8,3 C 81 % 0,0 l/m 0,3 km/h (0 Bft) O-SO 112 5,2 C 6,1 C 0,0 km/h (0 Bft)
04.05.2012 02:30 8,3 C 81 % 0,0 l/m 0,3 km/h (0 Bft) O-SO 112 5,2 C 6,1 C 0,0 km/h (0 Bft)
04.05.2012 02:31 8,3 C 81 % 0,0 l/m 0,3 km/h (0 Bft) NW 315 5,2 C 6,1 C 0,0 km/h (0 Bft)
04.05.2012 02:32 8,3 C 81 % 0,0 l/m 0,3 km/h (0 Bft) NW 315 5,2 C 6,1 C 0,0 km/h (0 Bft)
04.05.2012 02:33 8,3 C 81 % 0,0 l/m 0,5 km/h (0 Bft) S 180 5,2 C 6,1 C 2,1 km/h (1 Bft)
04.05.2012 02:34 8,3 C 81 % 0,0 l/m 0,5 km/h (0 Bft) S 180 5,2 C 6,1 C 2,1 km/h (1 Bft)
04.05.2012 02:35 8,3 C 81 % 0,0 l/m 0,5 km/h (0 Bft) O-SO 112 5,2 C 6,1 C 0,0 km/h (0 Bft)
04.05.2012 02:36 8,3 C 81 % 0,0 l/m 0,5 km/h (0 Bft) O-SO 112 5,2 C 6,1 C 0,0 km/h (0 Bft)
04.05.2012 02:37 8,2 C 81 % 0,0 l/m 0,5 km/h (0 Bft) O-NO 67 5,1 C 6,1 C 0,0 km/h (0 Bft)
04.05.2012 02:38 8,2 C 81 % 0,0 l/m 0,5 km/h (0 Bft) O-NO 67 5,1 C 6,1 C 0,0 km/h (0 Bft)
04.05.2012 02:39 8,3 C 81 % 0,0 l/m 0,3 km/h (0 Bft) N 360 5,2 C 6,1 C 0,0 km/h (0 Bft)
04.05.2012 02:40 8,3 C 81 % 0,0 l/m 0,3 km/h (0 Bft) N 360 5,2 C 6,1 C 0,0 km/h (0 Bft)
04.05.2012 02:41 8,3 C 81 % 0,0 l/m 0,2 km/h (0 Bft) S 180 5,2 C 6,0 C 0,0 km/h (0 Bft)
04.05.2012 02:42 8,3 C 81 % 0,0 l/m 0,2 km/h (0 Bft) S 180 5,2 C 6,0 C 0,0 km/h (0 Bft)
04.05.2012 02:43 8,3 C 81 % 0,0 l/m 0,3 km/h (0 Bft) N 360 5,2 C 6,0 C 2,3 km/h (1 Bft)
04.05.2012 02:44 8,3 C 81 % 0,0 l/m 0,3 km/h (0 Bft) N 360 5,2 C 6,0 C 2,3 km/h (1 Bft)
04.05.2012 02:45 8,2 C 81 % 0,0 l/m 0,3 km/h (0 Bft) O 90 5,1 C 6,0 C 0,0 km/h (0 Bft)
04.05.2012 02:46 8,2 C 81 % 0,0 l/m 0,3 km/h (0 Bft) O 90 5,1 C 6,0 C 0,0 km/h (0 Bft)
04.05.2012 02:47 8,2 C 82 % 0,0 l/m 0,3 km/h (0 Bft) SO 135 5,3 C 6,0 C 1,9 km/h (1 Bft)
04.05.2012 02:48 8,2 C 82 % 0,0 l/m 0,3 km/h (0 Bft) SO 135 5,3 C 6,0 C 1,9 km/h (1 Bft)
04.05.2012 02:49 8,2 C 82 % 0,0 l/m 0,5 km/h (0 Bft) O 90 5,3 C 6,0 C 1,8 km/h (1 Bft)
04.05.2012 02:50 8,2 C 82 % 0,0 l/m 0,5 km/h (0 Bft) O 90 5,3 C 6,0 C 1,8 km/h (1 Bft)
04.05.2012 02:51 8,2 C 82 % 0,0 l/m 0,6 km/h (0 Bft) O-SO 112 5,3 C 6,1 C 1,9 km/h (1 Bft)
04.05.2012 02:52 8,2 C 82 % 0,0 l/m 0,6 km/h (0 Bft) O-SO 112 5,3 C 6,1 C 1,9 km/h (1 Bft)
04.05.2012 02:53 8,2 C 82 % 0,0 l/m 0,6 km/h (0 Bft) O-SO 112 5,3 C 6,2 C 2,6 km/h (1 Bft)
04.05.2012 02:54 8,2 C 82 % 0,0 l/m 0,6 km/h (0 Bft) O-SO 112 5,3 C 6,2 C 2,6 km/h (1 Bft)
04.05.2012 02:55 8,1 C 82 % 0,0 l/m 0,6 km/h (0 Bft) S 180 5,2 C 6,2 C 0,0 km/h (0 Bft)
04.05.2012 02:56 8,1 C 82 % 0,0 l/m 0,6 km/h (0 Bft) S 180 5,2 C 6,2 C 0,0 km/h (0 Bft)
04.05.2012 02:57 8,2 C 82 % 0,0 l/m 0,8 km/h (0 Bft) S-SO 157 5,3 C 6,2 C 0,0 km/h (0 Bft)
04.05.2012 02:58 8,2 C 82 % 0,0 l/m 0,8 km/h (0 Bft) S-SO 157 5,3 C 6,2 C 0,0 km/h (0 Bft)
04.05.2012 02:59 8,1 C 82 % 0,0 l/m 0,5 km/h (0 Bft) SO 135 5,2 C 6,3 C 0,0 km/h (0 Bft)
04.05.2012 03:00 8,1 C 82 % 0,0 l/m 0,5 km/h (0 Bft) SO 135 5,2 C 6,3 C 0,0 km/h (0 Bft)
04.05.2012 03:01 8,1 C 82 % 0,0 l/m 0,3 km/h (0 Bft) W-NW 292 5,2 C 6,3 C 0,0 km/h (0 Bft)
04.05.2012 03:02 8,1 C 82 % 0,0 l/m 0,3 km/h (0 Bft) W-NW 292 5,2 C 6,3 C 0,0 km/h (0 Bft)
04.05.2012 03:03 8,1 C 82 % 0,0 l/m 0,3 km/h (0 Bft) O 90 5,2 C 6,3 C 2,1 km/h (1 Bft)
04.05.2012 03:04 8,1 C 82 % 0,0 l/m 0,3 km/h (0 Bft) O 90 5,2 C 6,3 C 2,1 km/h (1 Bft)
04.05.2012 03:05 8,1 C 82 % 0,0 l/m 0,2 km/h (0 Bft) O-SO 112 5,2 C 6,2 C 0,0 km/h (0 Bft)
04.05.2012 03:06 8,1 C 82 % 0,0 l/m 0,2 km/h (0 Bft) O-SO 112 5,2 C 6,2 C 0,0 km/h (0 Bft)
04.05.2012 03:07 8,0 C 82 % 0,0 l/m 0,0 km/h (0 Bft) SO 135 5,1 C 6,2 C 0,0 km/h (0 Bft)
04.05.2012 03:08 8,0 C 82 % 0,0 l/m 0,0 km/h (0 Bft) SO 135 5,1 C 6,2 C 0,0 km/h (0 Bft)
04.05.2012 03:09 8,0 C 82 % 0,0 l/m 0,2 km/h (0 Bft) NO 45 5,1 C 6,2 C 1,8 km/h (1 Bft)
04.05.2012 03:10 8,0 C 82 % 0,0 l/m 0,2 km/h (0 Bft) NO 45 5,1 C 6,2 C 1,8 km/h (1 Bft)
04.05.2012 03:11 8,1 C 82 % 0,0 l/m 0,2 km/h (0 Bft) NO 45 5,2 C 6,1 C 0,0 km/h (0 Bft)
04.05.2012 03:12 8,1 C 82 % 0,0 l/m 0,2 km/h (0 Bft) NO 45 5,2 C 6,1 C 0,0 km/h (0 Bft)
04.05.2012 03:13 8,1 C 82 % 0,0 l/m 0,2 km/h (0 Bft) S 180 5,2 C 6,2 C 0,0 km/h (0 Bft)
04.05.2012 03:14 8,1 C 82 % 0,0 l/m 0,2 km/h (0 Bft) S 180 5,2 C 6,2 C 0,0 km/h (0 Bft)
04.05.2012 03:15 8,0 C 82 % 0,0 l/m 0,2 km/h (0 Bft) SW 225 5,1 C 6,2 C 0,0 km/h (0 Bft)
04.05.2012 03:16 8,0 C 82 % 0,0 l/m 0,2 km/h (0 Bft) SW 225 5,1 C 6,2 C 0,0 km/h (0 Bft)
04.05.2012 03:17 8,0 C 82 % 0,0 l/m 0,5 km/h (0 Bft) S-SW 202 5,1 C 6,2 C 0,0 km/h (0 Bft)
04.05.2012 03:18 8,0 C 82 % 0,0 l/m 0,5 km/h (0 Bft) S-SW 202 5,1 C 6,2 C 0,0 km/h (0 Bft)
04.05.2012 03:19 8,0 C 82 % 0,0 l/m 0,5 km/h (0 Bft) O 90 5,1 C 6,2 C 1,8 km/h (1 Bft)
04.05.2012 03:20 8,0 C 82 % 0,0 l/m 0,5 km/h (0 Bft) O 90 5,1 C 6,2 C 1,8 km/h (1 Bft)
04.05.2012 03:21 8,0 C 82 % 0,0 l/m 0,6 km/h (0 Bft) O-SO 112 5,1 C 6,2 C 4,7 km/h (1 Bft)
04.05.2012 03:22 8,0 C 82 % 0,0 l/m 0,6 km/h (0 Bft) O-SO 112 5,1 C 6,2 C 4,7 km/h (1 Bft)
04.05.2012 03:23 8,0 C 82 % 0,0 l/m 0,8 km/h (0 Bft) O-SO 112 5,1 C 6,3 C 0,0 km/h (0 Bft)
04.05.2012 03:24 8,0 C 82 % 0,0 l/m 0,8 km/h (0 Bft) O-SO 112 5,1 C 6,3 C 0,0 km/h (0 Bft)
04.05.2012 03:25 8,0 C 82 % 0,0 l/m 0,8 km/h (0 Bft) O 90 5,1 C 6,3 C 0,0 km/h (0 Bft)
04.05.2012 03:26 8,0 C 82 % 0,0 l/m 0,8 km/h (0 Bft) O 90 5,1 C 6,3 C 0,0 km/h (0 Bft)
04.05.2012 03:27 8,0 C 82 % 0,0 l/m 0,6 km/h (0 Bft) O 90 5,1 C 6,3 C 0,0 km/h (0 Bft)
04.05.2012 03:28 8,0 C 82 % 0,0 l/m 0,6 km/h (0 Bft) O 90 5,1 C 6,3 C 0,0 km/h (0 Bft)
04.05.2012 03:29 8,0 C 82 % 0,0 l/m 0,5 km/h (0 Bft) S-SO 157 5,1 C 6,2 C 0,0 km/h (0 Bft)
04.05.2012 03:30 8,0 C 82 % 0,0 l/m 0,5 km/h (0 Bft) S-SO 157 5,1 C 6,2 C 0,0 km/h (0 Bft)
04.05.2012 03:31 7,9 C 82 % 0,0 l/m 0,5 km/h (0 Bft) N 360 5,0 C 6,1 C 0,0 km/h (0 Bft)
04.05.2012 03:32 7,9 C 82 % 0,0 l/m 0,5 km/h (0 Bft) N 360 5,0 C 6,1 C 0,0 km/h (0 Bft)
04.05.2012 03:33 7,9 C 82 % 0,0 l/m 0,0 km/h (0 Bft) O 90 5,0 C 6,1 C 0,0 km/h (0 Bft)
04.05.2012 03:34 7,9 C 82 % 0,0 l/m 0,0 km/h (0 Bft) O 90 5,0 C 6,1 C 0,0 km/h (0 Bft)
04.05.2012 03:35 7,8 C 82 % 0,0 l/m 0,2 km/h (0 Bft) NO 45 4,9 C 6,0 C 2,4 km/h (1 Bft)
04.05.2012 03:36 7,8 C 82 % 0,0 l/m 0,2 km/h (0 Bft) NO 45 4,9 C 6,0 C 2,4 km/h (1 Bft)
04.05.2012 03:37 7,8 C 82 % 0,0 l/m 0,2 km/h (0 Bft) O-SO 112 4,9 C 6,0 C 0,0 km/h (0 Bft)
04.05.2012 03:38 7,8 C 82 % 0,0 l/m 0,2 km/h (0 Bft) O-SO 112 4,9 C 6,0 C 0,0 km/h (0 Bft)
04.05.2012 03:39 7,9 C 82 % 0,0 l/m 0,2 km/h (0 Bft) O-SO 112 5,0 C 6,0 C 1,8 km/h (1 Bft)
04.05.2012 03:40 7,9 C 82 % 0,0 l/m 0,2 km/h (0 Bft) O-SO 112 5,0 C 6,0 C 1,8 km/h (1 Bft)
04.05.2012 03:41 7,9 C 82 % 0,0 l/m 0,2 km/h (0 Bft) SO 135 5,0 C 6,0 C 0,0 km/h (0 Bft)
04.05.2012 03:42 7,9 C 82 % 0,0 l/m 0,2 km/h (0 Bft) SO 135 5,0 C 6,0 C 0,0 km/h (0 Bft)
04.05.2012 03:43 7,9 C 82 % 0,0 l/m 0,2 km/h (0 Bft) O-NO 67 5,0 C 6,0 C 0,0 km/h (0 Bft)
04.05.2012 03:44 7,9 C 82 % 0,0 l/m 0,2 km/h (0 Bft) O-NO 67 5,0 C 6,0 C 0,0 km/h (0 Bft)
04.05.2012 03:45 7,8 C 82 % 0,0 l/m 0,3 km/h (0 Bft) W-NW 292 4,9 C 5,9 C 2,4 km/h (1 Bft)
04.05.2012 03:46 7,8 C 82 % 0,0 l/m 0,3 km/h (0 Bft) W-NW 292 4,9 C 5,9 C 2,4 km/h (1 Bft)
04.05.2012 03:47 7,8 C 82 % 0,0 l/m 0,2 km/h (0 Bft) N 360 4,9 C 5,9 C 0,0 km/h (0 Bft)
04.05.2012 03:48 7,8 C 82 % 0,0 l/m 0,2 km/h (0 Bft) N 360 4,9 C 5,9 C 0,0 km/h (0 Bft)
04.05.2012 03:49 7,7 C 82 % 0,0 l/m 0,2 km/h (0 Bft) N-NW 337 4,8 C 5,8 C 0,0 km/h (0 Bft)
04.05.2012 03:50 7,7 C 82 % 0,0 l/m 0,2 km/h (0 Bft) N-NW 337 4,8 C 5,8 C 0,0 km/h (0 Bft)
04.05.2012 03:51 7,7 C 82 % 0,0 l/m 0,2 km/h (0 Bft) SO 135 4,8 C 5,8 C 0,0 km/h (0 Bft)
04.05.2012 03:52 7,7 C 82 % 0,0 l/m 0,2 km/h (0 Bft) SO 135 4,8 C 5,8 C 0,0 km/h (0 Bft)
04.05.2012 03:53 7,7 C 82 % 0,0 l/m 0,2 km/h (0 Bft) SO 135 4,8 C 5,8 C 0,0 km/h (0 Bft)
04.05.2012 03:54 7,7 C 82 % 0,0 l/m 0,2 km/h (0 Bft) SO 135 4,8 C 5,8 C 0,0 km/h (0 Bft)
04.05.2012 03:55 7,7 C 82 % 0,0 l/m 0,3 km/h (0 Bft) N-NO 22 4,8 C 5,7 C 0,0 km/h (0 Bft)
04.05.2012 03:56 7,7 C 82 % 0,0 l/m 0,3 km/h (0 Bft) N-NO 22 4,8 C 5,7 C 0,0 km/h (0 Bft)
04.05.2012 03:57 7,6 C 82 % 0,0 l/m 0,2 km/h (0 Bft) S 180 4,7 C 5,7 C 0,0 km/h (0 Bft)
04.05.2012 03:58 7,6 C 82 % 0,0 l/m 0,2 km/h (0 Bft) S 180 4,7 C 5,7 C 0,0 km/h (0 Bft)
04.05.2012 03:59 7,6 C 82 % 0,0 l/m 0,2 km/h (0 Bft) O-SO 112 4,7 C 5,7 C 0,0 km/h (0 Bft)
04.05.2012 04:00 7,6 C 82 % 0,0 l/m 0,2 km/h (0 Bft) O-SO 112 4,7 C 5,7 C 0,0 km/h (0 Bft)
04.05.2012 04:01 7,6 C 82 % 0,0 l/m 0,2 km/h (0 Bft) O-SO 112 4,7 C 5,6 C 0,0 km/h (0 Bft)
04.05.2012 04:02 7,6 C 82 % 0,0 l/m 0,2 km/h (0 Bft) O-SO 112 4,7 C 5,6 C 0,0 km/h (0 Bft)
04.05.2012 04:03 7,6 C 82 % 0,0 l/m 0,2 km/h (0 Bft) N 360 4,7 C 5,6 C 0,0 km/h (0 Bft)
04.05.2012 04:04 7,6 C 82 % 0,0 l/m 0,2 km/h (0 Bft) N 360 4,7 C 5,6 C 0,0 km/h (0 Bft)
04.05.2012 04:05 7,6 C 82 % 0,0 l/m 0,2 km/h (0 Bft) O-SO 112 4,7 C 5,6 C 1,9 km/h (1 Bft)
04.05.2012 04:06 7,6 C 82 % 0,0 l/m 0,2 km/h (0 Bft) O-SO 112 4,7 C 5,6 C 1,9 km/h (1 Bft)
04.05.2012 04:07 7,5 C 82 % 0,0 l/m 0,2 km/h (0 Bft) N 360 4,6 C 5,6 C 0,0 km/h (0 Bft)
04.05.2012 04:08 7,5 C 82 % 0,0 l/m 0,2 km/h (0 Bft) N 360 4,6 C 5,6 C 0,0 km/h (0 Bft)
04.05.2012 04:09 7,5 C 82 % 0,0 l/m 0,2 km/h (0 Bft) N-NW 337 4,6 C 5,5 C 2,1 km/h (1 Bft)
04.05.2012 04:10 7,5 C 82 % 0,0 l/m 0,2 km/h (0 Bft) N-NW 337 4,6 C 5,5 C 2,1 km/h (1 Bft)
04.05.2012 04:11 7,5 C 82 % 0,0 l/m 0,3 km/h (0 Bft) N-NW 337 4,6 C 5,5 C 1,9 km/h (1 Bft)
04.05.2012 04:12 7,5 C 82 % 0,0 l/m 0,3 km/h (0 Bft) N-NW 337 4,6 C 5,5 C 1,9 km/h (1 Bft)
04.05.2012 04:13 7,4 C 82 % 0,0 l/m 0,3 km/h (0 Bft) O 90 4,5 C 5,5 C 0,0 km/h (0 Bft)
04.05.2012 04:14 7,4 C 82 % 0,0 l/m 0,3 km/h (0 Bft) O 90 4,5 C 5,5 C 0,0 km/h (0 Bft)
04.05.2012 04:15 7,5 C 82 % 0,0 l/m 0,3 km/h (0 Bft) S 180 4,6 C 5,5 C 2,3 km/h (1 Bft)
04.05.2012 04:16 7,5 C 82 % 0,0 l/m 0,3 km/h (0 Bft) S 180 4,6 C 5,5 C 2,3 km/h (1 Bft)
04.05.2012 04:17 7,5 C 82 % 0,0 l/m 0,8 km/h (0 Bft) SO 135 4,6 C 5,5 C 3,7 km/h (1 Bft)
04.05.2012 04:18 7,5 C 82 % 0,0 l/m 0,8 km/h (0 Bft) SO 135 4,6 C 5,5 C 3,7 km/h (1 Bft)
04.05.2012 04:19 7,5 C 83 % 0,0 l/m 1,0 km/h (0 Bft) S-SW 202 4,8 C 5,5 C 2,9 km/h (1 Bft)
04.05.2012 04:20 7,5 C 83 % 0,0 l/m 1,0 km/h (0 Bft) S-SW 202 4,8 C 5,5 C 2,9 km/h (1 Bft)
04.05.2012 04:21 7,5 C 82 % 0,0 l/m 1,0 km/h (0 Bft) S 180 4,6 C 5,5 C 0,0 km/h (0 Bft)
04.05.2012 04:22 7,5 C 82 % 0,0 l/m 1,0 km/h (0 Bft) S 180 4,6 C 5,5 C 0,0 km/h (0 Bft)
04.05.2012 04:23 7,3 C 82 % 0,0 l/m 0,8 km/h (0 Bft) S-SW 202 4,4 C 5,4 C 0,0 km/h (0 Bft)
04.05.2012 04:24 7,3 C 82 % 0,0 l/m 0,8 km/h (0 Bft) S-SW 202 4,4 C 5,4 C 0,0 km/h (0 Bft)
04.05.2012 04:25 7,3 C 82 % 0,0 l/m 0,8 km/h (0 Bft) NO 45 4,4 C 5,4 C 1,6 km/h (1 Bft)
04.05.2012 04:26 7,3 C 82 % 0,0 l/m 0,8 km/h (0 Bft) NO 45 4,4 C 5,4 C 1,6 km/h (1 Bft)
04.05.2012 04:27 7,2 C 82 % 0,0 l/m 0,6 km/h (0 Bft) NO 45 4,3 C 5,4 C 0,0 km/h (0 Bft)
04.05.2012 04:28 7,2 C 82 % 0,0 l/m 0,6 km/h (0 Bft) NO 45 4,3 C 5,4 C 0,0 km/h (0 Bft)
04.05.2012 04:29 7,2 C 82 % 0,0 l/m 0,3 km/h (0 Bft) S-SW 202 4,3 C 5,3 C 0,0 km/h (0 Bft)
04.05.2012 04:30 7,2 C 82 % 0,0 l/m 0,3 km/h (0 Bft) S-SW 202 4,3 C 5,3 C 0,0 km/h (0 Bft)
04.05.2012 04:31 7,2 C 82 % 0,0 l/m 0,3 km/h (0 Bft) SO 135 4,3 C 5,3 C 0,0 km/h (0 Bft)
04.05.2012 04:32 7,2 C 82 % 0,0 l/m 0,3 km/h (0 Bft) SO 135 4,3 C 5,3 C 0,0 km/h (0 Bft)
04.05.2012 04:33 7,2 C 83 % 0,0 l/m 0,3 km/h (0 Bft) N 360 4,5 C 5,4 C 0,0 km/h (0 Bft)
04.05.2012 04:34 7,2 C 83 % 0,0 l/m 0,3 km/h (0 Bft) N 360 4,5 C 5,4 C 0,0 km/h (0 Bft)
04.05.2012 04:35 7,2 C 83 % 0,0 l/m 0,3 km/h (0 Bft) SO 135 4,5 C 5,4 C 0,0 km/h (0 Bft)
04.05.2012 04:36 7,2 C 83 % 0,0 l/m 0,3 km/h (0 Bft) SO 135 4,5 C 5,4 C 0,0 km/h (0 Bft)
04.05.2012 04:37 7,2 C 83 % 0,0 l/m 0,2 km/h (0 Bft) S-SO 157 4,5 C 5,3 C 0,0 km/h (0 Bft)
04.05.2012 04:38 7,2 C 83 % 0,0 l/m 0,2 km/h (0 Bft) S-SO 157 4,5 C 5,3 C 0,0 km/h (0 Bft)
04.05.2012 04:39 7,3 C 83 % 0,0 l/m 0,3 km/h (0 Bft) NO 45 4,6 C 5,3 C 4,8 km/h (1 Bft)
04.05.2012 04:40 7,3 C 83 % 0,0 l/m 0,3 km/h (0 Bft) NO 45 4,6 C 5,3 C 4,8 km/h (1 Bft)
04.05.2012 04:41 7,3 C 83 % 0,0 l/m 0,3 km/h (0 Bft) O-NO 67 4,6 C 5,4 C 0,0 km/h (0 Bft)
04.05.2012 04:42 7,3 C 83 % 0,0 l/m 0,3 km/h (0 Bft) O-NO 67 4,6 C 5,4 C 0,0 km/h (0 Bft)
04.05.2012 04:43 7,3 C 83 % 0,0 l/m 0,3 km/h (0 Bft) O 90 4,6 C 5,4 C 0,0 km/h (0 Bft)
04.05.2012 04:44 7,3 C 83 % 0,0 l/m 0,3 km/h (0 Bft) O 90 4,6 C 5,4 C 0,0 km/h (0 Bft)
04.05.2012 04:45 7,2 C 83 % 0,0 l/m 0,3 km/h (0 Bft) O-SO 112 4,5 C 5,4 C 0,0 km/h (0 Bft)
04.05.2012 04:46 7,2 C 83 % 0,0 l/m 0,3 km/h (0 Bft) O-SO 112 4,5 C 5,4 C 0,0 km/h (0 Bft)
04.05.2012 04:47 7,2 C 83 % 0,0 l/m 0,5 km/h (0 Bft) SO 135 4,5 C 5,4 C 0,0 km/h (0 Bft)
04.05.2012 04:48 7,2 C 83 % 0,0 l/m 0,5 km/h (0 Bft) SO 135 4,5 C 5,4 C 0,0 km/h (0 Bft)
04.05.2012 04:49 7,1 C 83 % 0,0 l/m 0,5 km/h (0 Bft) SO 135 4,4 C 5,5 C 0,0 km/h (0 Bft)
04.05.2012 04:50 7,1 C 83 % 0,0 l/m 0,5 km/h (0 Bft) SO 135 4,4 C 5,5 C 0,0 km/h (0 Bft)
04.05.2012 04:51 7,2 C 83 % 0,0 l/m 0,3 km/h (0 Bft) S-SW 202 4,5 C 5,5 C 0,0 km/h (0 Bft)
04.05.2012 04:52 7,2 C 83 % 0,0 l/m 0,3 km/h (0 Bft) S-SW 202 4,5 C 5,5 C 0,0 km/h (0 Bft)
04.05.2012 04:53 7,2 C 83 % 0,0 l/m 0,3 km/h (0 Bft) N 360 4,5 C 5,5 C 2,3 km/h (1 Bft)
04.05.2012 04:54 7,2 C 83 % 0,0 l/m 0,3 km/h (0 Bft) N 360 4,5 C 5,5 C 2,3 km/h (1 Bft)
04.05.2012 04:55 7,2 C 83 % 0,0 l/m 0,6 km/h (0 Bft) O 90 4,5 C 5,5 C 3,2 km/h (1 Bft)
04.05.2012 04:56 7,2 C 83 % 0,0 l/m 0,6 km/h (0 Bft) O 90 4,5 C 5,5 C 3,2 km/h (1 Bft)
04.05.2012 04:57 7,2 C 83 % 0,0 l/m 0,8 km/h (0 Bft) O-SO 112 4,5 C 5,6 C 0,0 km/h (0 Bft)
04.05.2012 04:58 7,2 C 83 % 0,0 l/m 0,8 km/h (0 Bft) O-SO 112 4,5 C 5,6 C 0,0 km/h (0 Bft)
04.05.2012 04:59 7,3 C 83 % 0,0 l/m 1,1 km/h (1 Bft) O-SO 112 4,6 C 5,6 C 2,1 km/h (1 Bft)
04.05.2012 05:00 7,3 C 83 % 0,0 l/m 1,1 km/h (1 Bft) O-SO 112 4,6 C 5,6 C 2,1 km/h (1 Bft)
04.05.2012 05:01 7,2 C 83 % 0,0 l/m 1,0 km/h (0 Bft) SO 135 4,5 C 5,7 C 0,0 km/h (0 Bft)
04.05.2012 05:02 7,2 C 83 % 0,0 l/m 1,0 km/h (0 Bft) SO 135 4,5 C 5,7 C 0,0 km/h (0 Bft)
04.05.2012 05:03 7,2 C 83 % 0,0 l/m 1,1 km/h (1 Bft) W 270 4,5 C 5,7 C 2,1 km/h (1 Bft)
04.05.2012 05:04 7,2 C 83 % 0,0 l/m 1,1 km/h (1 Bft) W 270 4,5 C 5,7 C 2,1 km/h (1 Bft)
04.05.2012 05:05 7,2 C 83 % 0,0 l/m 1,1 km/h (1 Bft) S-SW 202 4,5 C 5,7 C 1,6 km/h (1 Bft)
04.05.2012 05:06 7,2 C 83 % 0,0 l/m 1,1 km/h (1 Bft) S-SW 202 4,5 C 5,7 C 1,6 km/h (1 Bft)
04.05.2012 05:07 7,3 C 83 % 0,0 l/m 0,6 km/h (0 Bft) SO 135 4,6 C 5,8 C 0,0 km/h (0 Bft)
04.05.2012 05:08 7,3 C 83 % 0,0 l/m 0,6 km/h (0 Bft) SO 135 4,6 C 5,8 C 0,0 km/h (0 Bft)
04.05.2012 05:09 7,2 C 83 % 0,0 l/m 0,8 km/h (0 Bft) S 180 4,5 C 5,8 C 0,0 km/h (0 Bft)
04.05.2012 05:10 7,2 C 83 % 0,0 l/m 0,8 km/h (0 Bft) S 180 4,5 C 5,8 C 0,0 km/h (0 Bft)
04.05.2012 05:11 7,2 C 83 % 0,0 l/m 0,5 km/h (0 Bft) SO 135 4,5 C 5,7 C 0,0 km/h (0 Bft)
04.05.2012 05:12 7,2 C 83 % 0,0 l/m 0,5 km/h (0 Bft) SO 135 4,5 C 5,7 C 0,0 km/h (0 Bft)
04.05.2012 05:13 7,3 C 83 % 0,0 l/m 0,6 km/h (0 Bft) O 90 4,6 C 5,7 C 0,0 km/h (0 Bft)
04.05.2012 05:14 7,3 C 83 % 0,0 l/m 0,6 km/h (0 Bft) O 90 4,6 C 5,7 C 0,0 km/h (0 Bft)
04.05.2012 05:15 7,2 C 83 % 0,0 l/m 0,5 km/h (0 Bft) S 180 4,5 C 5,7 C 1,8 km/h (1 Bft)
04.05.2012 05:16 7,2 C 83 % 0,0 l/m 0,5 km/h (0 Bft) S 180 4,5 C 5,7 C 1,8 km/h (1 Bft)
04.05.2012 05:17 7,1 C 83 % 0,0 l/m 0,3 km/h (0 Bft) S-SO 157 4,4 C 5,7 C 1,9 km/h (1 Bft)
04.05.2012 05:18 7,1 C 83 % 0,0 l/m 0,3 km/h (0 Bft) S-SO 157 4,4 C 5,7 C 1,9 km/h (1 Bft)
04.05.2012 05:19 7,2 C 83 % 0,0 l/m 0,5 km/h (0 Bft) S 180 4,5 C 5,7 C 3,4 km/h (1 Bft)
04.05.2012 05:20 7,2 C 83 % 0,0 l/m 0,5 km/h (0 Bft) S 180 4,5 C 5,7 C 3,4 km/h (1 Bft)
04.05.2012 05:21 7,2 C 83 % 0,0 l/m 0,5 km/h (0 Bft) S 180 4,5 C 5,7 C 3,2 km/h (1 Bft)
04.05.2012 05:22 7,2 C 83 % 0,0 l/m 0,5 km/h (0 Bft) S 180 4,5 C 5,7 C 3,2 km/h (1 Bft)
04.05.2012 05:23 7,3 C 83 % 0,0 l/m 0,8 km/h (0 Bft) SO 135 4,6 C 5,7 C 3,4 km/h (1 Bft)
04.05.2012 05:24 7,3 C 83 % 0,0 l/m 0,8 km/h (0 Bft) SO 135 4,6 C 5,7 C 3,4 km/h (1 Bft)
04.05.2012 05:25 7,2 C 83 % 0,0 l/m 0,8 km/h (0 Bft) W 270 4,5 C 5,8 C 0,0 km/h (0 Bft)
04.05.2012 05:26 7,2 C 83 % 0,0 l/m 0,8 km/h (0 Bft) W 270 4,5 C 5,8 C 0,0 km/h (0 Bft)
04.05.2012 05:27 7,2 C 83 % 0,0 l/m 1,0 km/h (0 Bft) O-NO 67 4,5 C 5,8 C 1,8 km/h (1 Bft)
04.05.2012 05:28 7,2 C 83 % 0,0 l/m 1,0 km/h (0 Bft) O-NO 67 4,5 C 5,8 C 1,8 km/h (1 Bft)
04.05.2012 05:29 7,3 C 83 % 0,0 l/m 1,3 km/h (1 Bft) O-SO 112 4,6 C 5,9 C 2,6 km/h (1 Bft)
04.05.2012 05:30 7,3 C 83 % 0,0 l/m 1,3 km/h (1 Bft) O-SO 112 4,6 C 5,9 C 2,6 km/h (1 Bft)
04.05.2012 05:31 7,2 C 83 % 0,0 l/m 1,1 km/h (1 Bft) N 360 4,5 C 5,8 C 2,6 km/h (1 Bft)
04.05.2012 05:32 7,2 C 83 % 0,0 l/m 1,1 km/h (1 Bft) N 360 4,5 C 5,8 C 2,6 km/h (1 Bft)
04.05.2012 05:33 7,2 C 83 % 0,0 l/m 1,1 km/h (1 Bft) N-NO 22 4,5 C 5,8 C 3,2 km/h (1 Bft)
04.05.2012 05:34 7,2 C 83 % 0,0 l/m 1,1 km/h (1 Bft) N-NO 22 4,5 C 5,8 C 3,2 km/h (1 Bft)
04.05.2012 05:35 7,1 C 83 % 0,0 l/m 1,3 km/h (1 Bft) O-SO 112 4,4 C 5,7 C 2,6 km/h (1 Bft)
04.05.2012 05:36 7,1 C 83 % 0,0 l/m 1,3 km/h (1 Bft) O-SO 112 4,4 C 5,7 C 2,6 km/h (1 Bft)
04.05.2012 05:37 7,3 C 83 % 0,0 l/m 1,3 km/h (1 Bft) NO 45 4,6 C 5,7 C 0,0 km/h (0 Bft)
04.05.2012 05:38 7,3 C 83 % 0,0 l/m 1,3 km/h (1 Bft) NO 45 4,6 C 5,7 C 0,0 km/h (0 Bft)
04.05.2012 05:39 7,3 C 83 % 0,0 l/m 1,1 km/h (1 Bft) O 90 4,6 C 5,7 C 0,0 km/h (0 Bft)
04.05.2012 05:40 7,3 C 83 % 0,0 l/m 1,1 km/h (1 Bft) O 90 4,6 C 5,7 C 0,0 km/h (0 Bft)
04.05.2012 05:41 7,2 C 83 % 0,0 l/m 1,0 km/h (0 Bft) S-SW 202 4,5 C 5,7 C 0,0 km/h (0 Bft)
04.05.2012 05:42 7,2 C 83 % 0,0 l/m 1,0 km/h (0 Bft) S-SW 202 4,5 C 5,7 C 0,0 km/h (0 Bft)
04.05.2012 05:43 7,2 C 83 % 0,0 l/m 1,0 km/h (0 Bft) W 270 4,5 C 5,7 C 2,1 km/h (1 Bft)
04.05.2012 05:44 7,2 C 83 % 0,0 l/m 1,0 km/h (0 Bft) W 270 4,5 C 5,7 C 2,1 km/h (1 Bft)
04.05.2012 05:45 7,2 C 83 % 0,0 l/m 1,0 km/h (0 Bft) N-NO 22 4,5 C 5,7 C 1,8 km/h (1 Bft)
04.05.2012 05:46 7,2 C 83 % 0,0 l/m 1,0 km/h (0 Bft) N-NO 22 4,5 C 5,7 C 1,8 km/h (1 Bft)
04.05.2012 05:47 7,1 C 83 % 0,0 l/m 0,6 km/h (0 Bft) S-SW 202 4,4 C 5,7 C 1,6 km/h (1 Bft)
04.05.2012 05:48 7,1 C 83 % 0,0 l/m 0,6 km/h (0 Bft) S-SW 202 4,4 C 5,7 C 1,6 km/h (1 Bft)
04.05.2012 05:49 7,1 C 83 % 0,0 l/m 0,8 km/h (0 Bft) SO 135 4,4 C 5,7 C 2,7 km/h (1 Bft)
04.05.2012 05:50 7,1 C 83 % 0,0 l/m 0,8 km/h (0 Bft) SO 135 4,4 C 5,7 C 2,7 km/h (1 Bft)
04.05.2012 05:51 7,1 C 83 % 0,0 l/m 0,8 km/h (0 Bft) NO 45 4,4 C 5,6 C 0,0 km/h (0 Bft)
04.05.2012 05:52 7,1 C 83 % 0,0 l/m 0,8 km/h (0 Bft) NO 45 4,4 C 5,6 C 0,0 km/h (0 Bft)
04.05.2012 05:53 7,0 C 83 % 0,0 l/m 0,8 km/h (0 Bft) O-NO 67 4,3 C 5,6 C 0,0 km/h (0 Bft)
04.05.2012 05:54 7,0 C 83 % 0,0 l/m 0,8 km/h (0 Bft) O-NO 67 4,3 C 5,6 C 0,0 km/h (0 Bft)
04.05.2012 05:55 7,1 C 83 % 0,0 l/m 0,6 km/h (0 Bft) S 180 4,4 C 5,6 C 0,0 km/h (0 Bft)
04.05.2012 05:56 7,1 C 83 % 0,0 l/m 0,6 km/h (0 Bft) S 180 4,4 C 5,6 C 0,0 km/h (0 Bft)
04.05.2012 05:57 7,1 C 83 % 0,0 l/m 0,5 km/h (0 Bft) N 360 4,4 C 5,6 C 0,0 km/h (0 Bft)
04.05.2012 05:58 7,1 C 83 % 0,0 l/m 0,5 km/h (0 Bft) N 360 4,4 C 5,6 C 0,0 km/h (0 Bft)
04.05.2012 05:59 7,1 C 83 % 0,0 l/m 0,5 km/h (0 Bft) S 180 4,4 C 5,6 C 0,0 km/h (0 Bft)
04.05.2012 06:00 7,1 C 83 % 0,0 l/m 0,5 km/h (0 Bft) S 180 4,4 C 5,6 C 0,0 km/h (0 Bft)
04.05.2012 06:01 7,1 C 83 % 0,0 l/m 0,3 km/h (0 Bft) SO 135 4,4 C 5,5 C 0,0 km/h (0 Bft)
04.05.2012 06:02 7,1 C 83 % 0,0 l/m 0,3 km/h (0 Bft) SO 135 4,4 C 5,5 C 0,0 km/h (0 Bft)
04.05.2012 06:03 7,1 C 83 % 0,0 l/m 0,3 km/h (0 Bft) O-SO 112 4,4 C 5,4 C 2,7 km/h (1 Bft)
04.05.2012 06:04 7,1 C 83 % 0,0 l/m 0,3 km/h (0 Bft) O-SO 112 4,4 C 5,4 C 2,7 km/h (1 Bft)
04.05.2012 06:05 7,1 C 83 % 0,0 l/m 0,3 km/h (0 Bft) O-SO 112 4,4 C 5,4 C 2,1 km/h (1 Bft)
04.05.2012 06:06 7,1 C 83 % 0,0 l/m 0,3 km/h (0 Bft) O-SO 112 4,4 C 5,4 C 2,1 km/h (1 Bft)
04.05.2012 06:07 7,1 C 83 % 0,0 l/m 0,3 km/h (0 Bft) W-NW 292 4,4 C 5,4 C 0,0 km/h (0 Bft)
04.05.2012 06:08 7,1 C 83 % 0,0 l/m 0,3 km/h (0 Bft) W-NW 292 4,4 C 5,4 C 0,0 km/h (0 Bft)
04.05.2012 06:09 7,0 C 83 % 0,0 l/m 0,3 km/h (0 Bft) SO 135 4,3 C 5,4 C 0,0 km/h (0 Bft)
04.05.2012 06:10 7,0 C 83 % 0,0 l/m 0,3 km/h (0 Bft) SO 135 4,3 C 5,4 C 0,0 km/h (0 Bft)
04.05.2012 06:11 7,1 C 83 % 0,0 l/m 0,5 km/h (0 Bft) S-SW 202 4,4 C 5,4 C 0,0 km/h (0 Bft)
04.05.2012 06:12 7,1 C 83 % 0,0 l/m 0,5 km/h (0 Bft) S-SW 202 4,4 C 5,4 C 0,0 km/h (0 Bft)
04.05.2012 06:13 7,1 C 83 % 0,0 l/m 0,5 km/h (0 Bft) S 180 4,4 C 5,4 C 0,0 km/h (0 Bft)
04.05.2012 06:14 7,1 C 83 % 0,0 l/m 0,5 km/h (0 Bft) S 180 4,4 C 5,4 C 0,0 km/h (0 Bft)
04.05.2012 06:15 7,1 C 83 % 0,0 l/m 0,3 km/h (0 Bft) O-SO 112 4,4 C 5,4 C 0,0 km/h (0 Bft)
04.05.2012 06:16 7,1 C 83 % 0,0 l/m 0,3 km/h (0 Bft) O-SO 112 4,4 C 5,4 C 0,0 km/h (0 Bft)
04.05.2012 06:17 6,9 C 82 % 0,0 l/m 0,2 km/h (0 Bft) SO 135 4,0 C 5,4 C 0,0 km/h (0 Bft)
04.05.2012 06:18 6,9 C 82 % 0,0 l/m 0,2 km/h (0 Bft) SO 135 4,0 C 5,4 C 0,0 km/h (0 Bft)
04.05.2012 06:19 7,0 C 82 % 0,0 l/m 0,2 km/h (0 Bft) W 270 4,1 C 5,5 C 0,0 km/h (0 Bft)
04.05.2012 06:20 7,0 C 82 % 0,0 l/m 0,2 km/h (0 Bft) W 270 4,1 C 5,5 C 0,0 km/h (0 Bft)
04.05.2012 06:21 6,9 C 82 % 0,0 l/m 0,2 km/h (0 Bft) W 270 4,0 C 5,5 C 0,0 km/h (0 Bft)
04.05.2012 06:22 6,9 C 82 % 0,0 l/m 0,2 km/h (0 Bft) W 270 4,0 C 5,5 C 0,0 km/h (0 Bft)
04.05.2012 06:23 6,9 C 82 % 0,0 l/m 0,2 km/h (0 Bft) S 180 4,0 C 5,5 C 0,0 km/h (0 Bft)
04.05.2012 06:24 6,9 C 82 % 0,0 l/m 0,2 km/h (0 Bft) S 180 4,0 C 5,5 C 0,0 km/h (0 Bft)
04.05.2012 06:25 6,9 C 82 % 0,0 l/m 0,0 km/h (0 Bft) O-SO 112 4,0 C 5,5 C 0,0 km/h (0 Bft)
04.05.2012 06:26 6,9 C 82 % 0,0 l/m 0,0 km/h (0 Bft) O-SO 112 4,0 C 5,5 C 0,0 km/h (0 Bft)
04.05.2012 06:27 6,9 C 82 % 0,0 l/m 0,0 km/h (0 Bft) W 270 4,0 C 5,4 C 0,0 km/h (0 Bft)
04.05.2012 06:28 6,9 C 82 % 0,0 l/m 0,0 km/h (0 Bft) W 270 4,0 C 5,4 C 0,0 km/h (0 Bft)
04.05.2012 06:29 7,4 C 82 % 0,0 l/m 0,0 km/h (0 Bft) N-NO 22 4,5 C 5,5 C 0,0 km/h (0 Bft)
04.05.2012 06:30 7,4 C 82 % 0,0 l/m 0,0 km/h (0 Bft) N-NO 22 4,5 C 5,5 C 0,0 km/h (0 Bft)
04.05.2012 06:31 7,7 C 83 % 0,0 l/m 0,0 km/h (0 Bft) S-SO 157 5,0 C 5,7 C 2,6 km/h (1 Bft)
04.05.2012 06:32 7,7 C 83 % 0,0 l/m 0,0 km/h (0 Bft) S-SO 157 5,0 C 5,7 C 2,6 km/h (1 Bft)
04.05.2012 06:33 8,1 C 82 % 0,0 l/m 0,3 km/h (0 Bft) O 90 5,2 C 6,4 C 3,1 km/h (1 Bft)
04.05.2012 06:34 8,1 C 82 % 0,0 l/m 0,3 km/h (0 Bft) O 90 5,2 C 6,4 C 3,1 km/h (1 Bft)
04.05.2012 06:35 8,5 C 82 % 0,0 l/m 0,6 km/h (0 Bft) N 360 5,6 C 7,1 C 0,0 km/h (0 Bft)
04.05.2012 06:36 8,5 C 82 % 0,0 l/m 0,6 km/h (0 Bft) N 360 5,6 C 7,1 C 0,0 km/h (0 Bft)
04.05.2012 06:37 8,9 C 81 % 0,0 l/m 0,6 km/h (0 Bft) S 180 5,8 C 7,6 C 0,0 km/h (0 Bft)
04.05.2012 06:38 8,9 C 81 % 0,0 l/m 0,6 km/h (0 Bft) S 180 5,8 C 7,6 C 0,0 km/h (0 Bft)
04.05.2012 06:39 9,4 C 81 % 0,0 l/m 0,8 km/h (0 Bft) S-SO 157 6,3 C 8,1 C 2,1 km/h (1 Bft)
04.05.2012 06:40 9,4 C 81 % 0,0 l/m 0,8 km/h (0 Bft) S-SO 157 6,3 C 8,1 C 2,1 km/h (1 Bft)
04.05.2012 06:41 9,7 C 81 % 0,0 l/m 1,0 km/h (0 Bft) S 180 6,6 C 8,9 C 0,0 km/h (0 Bft)
04.05.2012 06:42 9,7 C 81 % 0,0 l/m 1,0 km/h (0 Bft) S 180 6,6 C 8,9 C 0,0 km/h (0 Bft)
04.05.2012 06:43 9,9 C 80 % 0,0 l/m 0,8 km/h (0 Bft) S-SO 157 6,6 C 9,3 C 2,6 km/h (1 Bft)
04.05.2012 06:44 9,9 C 80 % 0,0 l/m 0,8 km/h (0 Bft) S-SO 157 6,6 C 9,3 C 2,6 km/h (1 Bft)
04.05.2012 06:45 9,7 C 79 % 0,0 l/m 0,6 km/h (0 Bft) SO 135 6,2 C 9,9 C 0,0 km/h (0 Bft)
04.05.2012 06:46 9,7 C 79 % 0,0 l/m 0,6 km/h (0 Bft) SO 135 6,2 C 9,9 C 0,0 km/h (0 Bft)
04.05.2012 06:47 9,5 C 78 % 0,0 l/m 0,6 km/h (0 Bft) SO 135 5,9 C 10,3 C 0,0 km/h (0 Bft)
04.05.2012 06:48 9,5 C 78 % 0,0 l/m 0,6 km/h (0 Bft) SO 135 5,9 C 10,3 C 0,0 km/h (0 Bft)
04.05.2012 06:49 9,4 C 78 % 0,0 l/m 0,6 km/h (0 Bft) S 180 5,8 C 10,8 C 0,0 km/h (0 Bft)
04.05.2012 06:50 9,4 C 78 % 0,0 l/m 0,6 km/h (0 Bft) S 180 5,8 C 10,8 C 0,0 km/h (0 Bft)
04.05.2012 06:51 9,4 C 78 % 0,0 l/m 0,5 km/h (0 Bft) N-NO 22 5,8 C 11,2 C 0,0 km/h (0 Bft)
04.05.2012 06:52 9,4 C 78 % 0,0 l/m 0,5 km/h (0 Bft) N-NO 22 5,8 C 11,2 C 0,0 km/h (0 Bft)
04.05.2012 06:53 9,5 C 78 % 0,0 l/m 0,6 km/h (0 Bft) O 90 5,9 C 11,4 C 2,6 km/h (1 Bft)
04.05.2012 06:54 9,5 C 78 % 0,0 l/m 0,6 km/h (0 Bft) O 90 5,9 C 11,4 C 2,6 km/h (1 Bft)
04.05.2012 06:55 9,3 C 78 % 0,0 l/m 0,5 km/h (0 Bft) N-NW 337 5,7 C 11,8 C 2,1 km/h (1 Bft)
04.05.2012 06:56 9,3 C 78 % 0,0 l/m 0,5 km/h (0 Bft) N-NW 337 5,7 C 11,8 C 2,1 km/h (1 Bft)
04.05.2012 06:57 9,6 C 78 % 0,0 l/m 0,5 km/h (0 Bft) S 180 6,0 C 12,1 C 0,0 km/h (0 Bft)
04.05.2012 06:58 9,6 C 78 % 0,0 l/m 0,5 km/h (0 Bft) S 180 6,0 C 12,1 C 0,0 km/h (0 Bft)
04.05.2012 06:59 10,1 C 79 % 0,0 l/m 0,5 km/h (0 Bft) O-SO 112 6,6 C 12,4 C 1,9 km/h (1 Bft)
04.05.2012 07:00 10,1 C 79 % 0,0 l/m 0,5 km/h (0 Bft) O-SO 112 6,6 C 12,4 C 1,9 km/h (1 Bft)
04.05.2012 07:01 10,8 C 78 % 0,0 l/m 0,3 km/h (0 Bft) S 180 7,1 C 12,7 C 0,0 km/h (0 Bft)
04.05.2012 07:02 10,8 C 78 % 0,0 l/m 0,3 km/h (0 Bft) S 180 7,1 C 12,7 C 0,0 km/h (0 Bft)
04.05.2012 07:03 11,4 C 77 % 0,0 l/m 0,5 km/h (0 Bft) S-SO 157 7,5 C 13,0 C 0,0 km/h (0 Bft)
04.05.2012 07:04 11,4 C 77 % 0,0 l/m 0,5 km/h (0 Bft) S-SO 157 7,5 C 13,0 C 0,0 km/h (0 Bft)
04.05.2012 07:05 11,9 C 76 % 0,0 l/m 0,3 km/h (0 Bft) S 180 7,8 C 13,3 C 0,0 km/h (0 Bft)
04.05.2012 07:06 11,9 C 76 % 0,0 l/m 0,3 km/h (0 Bft) S 180 7,8 C 13,3 C 0,0 km/h (0 Bft)
04.05.2012 07:07 12,3 C 75 % 0,0 l/m 0,5 km/h (0 Bft) NO 45 8,0 C 13,5 C 1,6 km/h (1 Bft)
04.05.2012 07:08 12,3 C 75 % 0,0 l/m 0,5 km/h (0 Bft) NO 45 8,0 C 13,5 C 1,6 km/h (1 Bft)
04.05.2012 07:09 12,8 C 74 % 0,0 l/m 0,5 km/h (0 Bft) W-SW 247 8,3 C 13,8 C 0,0 km/h (0 Bft)
04.05.2012 07:10 12,8 C 74 % 0,0 l/m 0,5 km/h (0 Bft) W-SW 247 8,3 C 13,8 C 0,0 km/h (0 Bft)
04.05.2012 07:11 13,3 C 72 % 0,0 l/m 0,5 km/h (0 Bft) N-NO 22 8,4 C 14,0 C 0,0 km/h (0 Bft)
04.05.2012 07:12 13,3 C 72 % 0,0 l/m 0,5 km/h (0 Bft) N-NO 22 8,4 C 14,0 C 0,0 km/h (0 Bft)
04.05.2012 07:13 13,7 C 71 % 0,0 l/m 0,3 km/h (0 Bft) SW 225 8,5 C 14,2 C 0,0 km/h (0 Bft)
04.05.2012 07:14 13,7 C 71 % 0,0 l/m 0,3 km/h (0 Bft) SW 225 8,5 C 14,2 C 0,0 km/h (0 Bft)
04.05.2012 07:15 14,1 C 69 % 0,0 l/m 0,5 km/h (0 Bft) S-SW 202 8,5 C 14,4 C 0,0 km/h (0 Bft)
04.05.2012 07:16 14,1 C 69 % 0,0 l/m 0,5 km/h (0 Bft) S-SW 202 8,5 C 14,4 C 0,0 km/h (0 Bft)
04.05.2012 07:17 14,5 C 69 % 0,0 l/m 0,5 km/h (0 Bft) N-NW 337 8,9 C 14,7 C 0,0 km/h (0 Bft)
04.05.2012 07:18 14,5 C 69 % 0,0 l/m 0,5 km/h (0 Bft) N-NW 337 8,9 C 14,7 C 0,0 km/h (0 Bft)
04.05.2012 07:19 14,9 C 68 % 0,0 l/m 0,5 km/h (0 Bft) S 180 9,0 C 14,8 C 0,0 km/h (0 Bft)
04.05.2012 07:20 14,9 C 68 % 0,0 l/m 0,5 km/h (0 Bft) S 180 9,0 C 14,8 C 0,0 km/h (0 Bft)
04.05.2012 07:21 15,3 C 66 % 0,0 l/m 0,5 km/h (0 Bft) S-SW 202 9,0 C 15,0 C 0,0 km/h (0 Bft)
04.05.2012 07:22 15,3 C 66 % 0,0 l/m 0,5 km/h (0 Bft) S-SW 202 9,0 C 15,0 C 0,0 km/h (0 Bft)
04.05.2012 07:23 15,7 C 65 % 0,0 l/m 0,3 km/h (0 Bft) S-SW 202 9,1 C 15,3 C 0,0 km/h (0 Bft)
04.05.2012 07:24 15,7 C 65 % 0,0 l/m 0,3 km/h (0 Bft) S-SW 202 9,1 C 15,3 C 0,0 km/h (0 Bft)
04.05.2012 07:25 16,0 C 64 % 0,0 l/m 0,3 km/h (0 Bft) N-NW 337 9,2 C 15,6 C 1,9 km/h (1 Bft)
04.05.2012 07:26 16,0 C 64 % 0,0 l/m 0,3 km/h (0 Bft) N-NW 337 9,2 C 15,6 C 1,9 km/h (1 Bft)
04.05.2012 07:27 16,2 C 62 % 0,0 l/m 0,5 km/h (0 Bft) O-SO 112 8,9 C 15,8 C 0,0 km/h (0 Bft)
04.05.2012 07:28 16,2 C 62 % 0,0 l/m 0,5 km/h (0 Bft) O-SO 112 8,9 C 15,8 C 0,0 km/h (0 Bft)
04.05.2012 07:29 16,4 C 63 % 0,0 l/m 0,2 km/h (0 Bft) SO 135 9,3 C 16,2 C 0,0 km/h (0 Bft)
04.05.2012 07:30 16,4 C 63 % 0,0 l/m 0,2 km/h (0 Bft) SO 135 9,3 C 16,2 C 0,0 km/h (0 Bft)
04.05.2012 07:31 16,7 C 62 % 0,0 l/m 0,3 km/h (0 Bft) S-SW 202 9,4 C 16,3 C 2,3 km/h (1 Bft)
04.05.2012 07:32 16,7 C 62 % 0,0 l/m 0,3 km/h (0 Bft) S-SW 202 9,4 C 16,3 C 2,3 km/h (1 Bft)
04.05.2012 07:33 16,9 C 59 % 0,0 l/m 0,5 km/h (0 Bft) N 360 8,8 C 16,4 C 1,8 km/h (1 Bft)
04.05.2012 07:34 16,9 C 59 % 0,0 l/m 0,5 km/h (0 Bft) N 360 8,8 C 16,4 C 1,8 km/h (1 Bft)
04.05.2012 07:35 17,1 C 59 % 0,0 l/m 0,5 km/h (0 Bft) O-SO 112 9,0 C 16,7 C 0,0 km/h (0 Bft)
04.05.2012 07:36 17,1 C 59 % 0,0 l/m 0,5 km/h (0 Bft) O-SO 112 9,0 C 16,7 C 0,0 km/h (0 Bft)
04.05.2012 07:37 17,2 C 58 % 0,0 l/m 0,3 km/h (0 Bft) N-NO 22 8,9 C 16,7 C 1,6 km/h (1 Bft)
04.05.2012 07:38 17,2 C 58 % 0,0 l/m 0,3 km/h (0 Bft) N-NO 22 8,9 C 16,7 C 1,6 km/h (1 Bft)
04.05.2012 07:39 17,5 C 58 % 0,0 l/m 0,5 km/h (0 Bft) N-NW 337 9,1 C 16,8 C 0,0 km/h (0 Bft)
04.05.2012 07:40 17,5 C 58 % 0,0 l/m 0,5 km/h (0 Bft) N-NW 337 9,1 C 16,8 C 0,0 km/h (0 Bft)
04.05.2012 07:41 17,9 C 57 % 0,0 l/m 0,5 km/h (0 Bft) NO 45 9,3 C 17,0 C 0,0 km/h (0 Bft)
04.05.2012 07:42 17,9 C 57 % 0,0 l/m 0,5 km/h (0 Bft) NO 45 9,3 C 17,0 C 0,0 km/h (0 Bft)
04.05.2012 07:43 18,0 C 57 % 0,0 l/m 0,3 km/h (0 Bft) N-NO 22 9,4 C 17,2 C 0,0 km/h (0 Bft)
04.05.2012 07:44 18,0 C 57 % 0,0 l/m 0,3 km/h (0 Bft) N-NO 22 9,4 C 17,2 C 0,0 km/h (0 Bft)
04.05.2012 07:45 18,4 C 57 % 0,0 l/m 0,3 km/h (0 Bft) SO 135 9,7 C 17,6 C 0,0 km/h (0 Bft)
04.05.2012 07:46 18,4 C 57 % 0,0 l/m 0,3 km/h (0 Bft) SO 135 9,7 C 17,6 C 0,0 km/h (0 Bft)
04.05.2012 07:47 18,7 C 56 % 0,0 l/m 0,5 km/h (0 Bft) NW 315 9,7 C 17,9 C 2,1 km/h (1 Bft)
04.05.2012 07:48 18,7 C 56 % 0,0 l/m 0,5 km/h (0 Bft) NW 315 9,7 C 17,9 C 2,1 km/h (1 Bft)
04.05.2012 07:49 18,7 C 54 % 0,0 l/m 1,0 km/h (0 Bft) S 180 9,2 C 18,0 C 4,3 km/h (1 Bft)
04.05.2012 07:50 18,7 C 54 % 0,0 l/m 1,0 km/h (0 Bft) S 180 9,2 C 18,0 C 4,3 km/h (1 Bft)
04.05.2012 07:51 18,8 C 52 % 0,0 l/m 1,6 km/h (1 Bft) S-SO 157 8,7 C 17,7 C 4,8 km/h (1 Bft)
04.05.2012 07:52 18,8 C 52 % 0,0 l/m 1,6 km/h (1 Bft) S-SO 157 8,7 C 17,7 C 4,8 km/h (1 Bft)
04.05.2012 07:53 19,0 C 52 % 0,0 l/m 2,1 km/h (1 Bft) S-SO 157 8,9 C 17,5 C 2,7 km/h (1 Bft)
04.05.2012 07:54 19,0 C 52 % 0,0 l/m 2,1 km/h (1 Bft) S-SO 157 8,9 C 17,5 C 2,7 km/h (1 Bft)
04.05.2012 07:55 19,2 C 53 % 0,0 l/m 2,3 km/h (1 Bft) O-SO 112 9,4 C 17,5 C 0,0 km/h (0 Bft)
04.05.2012 07:56 19,2 C 53 % 0,0 l/m 2,3 km/h (1 Bft) O-SO 112 9,4 C 17,5 C 0,0 km/h (0 Bft)
04.05.2012 07:57 19,5 C 53 % 0,0 l/m 2,6 km/h (1 Bft) O-SO 112 9,7 C 17,6 C 2,6 km/h (1 Bft)
04.05.2012 07:58 19,5 C 53 % 0,0 l/m 2,6 km/h (1 Bft) O-SO 112 9,7 C 17,6 C 2,6 km/h (1 Bft)
04.05.2012 07:59 19,7 C 52 % 0,0 l/m 2,7 km/h (1 Bft) SO 135 9,6 C 17,7 C 3,4 km/h (1 Bft)
04.05.2012 08:00 19,7 C 52 % 0,0 l/m 2,7 km/h (1 Bft) SO 135 9,6 C 17,7 C 3,4 km/h (1 Bft)
04.05.2012 08:01 20,0 C 53 % 0,0 l/m 2,7 km/h (1 Bft) O-SO 112 10,1 C 17,7 C 6,1 km/h (2 Bft)
04.05.2012 08:02 20,0 C 53 % 0,0 l/m 2,7 km/h (1 Bft) O-SO 112 10,1 C 17,7 C 6,1 km/h (2 Bft)
04.05.2012 08:03 20,4 C 53 % 0,0 l/m 2,7 km/h (1 Bft) O-SO 112 10,5 C 17,5 C 5,5 km/h (1 Bft)
04.05.2012 08:04 20,4 C 53 % 0,0 l/m 2,7 km/h (1 Bft) O-SO 112 10,5 C 17,5 C 5,5 km/h (1 Bft)
04.05.2012 08:05 20,6 C 51 % 0,0 l/m 3,1 km/h (1 Bft) NO 45 10,1 C 17,5 C 2,7 km/h (1 Bft)
04.05.2012 08:06 20,6 C 51 % 0,0 l/m 3,1 km/h (1 Bft) NO 45 10,1 C 17,5 C 2,7 km/h (1 Bft)
04.05.2012 08:07 20,7 C 51 % 0,0 l/m 3,5 km/h (1 Bft) O-SO 112 10,2 C 17,5 C 4,8 km/h (1 Bft)
04.05.2012 08:08 20,7 C 51 % 0,0 l/m 3,5 km/h (1 Bft) O-SO 112 10,2 C 17,5 C 4,8 km/h (1 Bft)
04.05.2012 08:09 20,8 C 51 % 0,0 l/m 3,7 km/h (1 Bft) O 90 10,3 C 17,5 C 3,7 km/h (1 Bft)
04.05.2012 08:10 20,8 C 51 % 0,0 l/m 3,7 km/h (1 Bft) O 90 10,3 C 17,5 C 6,1 km/h (2 Bft)
04.05.2012 08:11 21,0 C 49 % 0,0 l/m 3,5 km/h (1 Bft) O 90 9,9 C 17,5 C 2,3 km/h (1 Bft)
04.05.2012 08:12 21,0 C 49 % 0,0 l/m 3,5 km/h (1 Bft) O 90 9,9 C 17,5 C 2,3 km/h (1 Bft)
04.05.2012 08:13 21,1 C 49 % 0,0 l/m 3,2 km/h (1 Bft) NO 45 10,0 C 17,6 C 3,9 km/h (1 Bft)
04.05.2012 08:14 21,1 C 49 % 0,0 l/m 3,2 km/h (1 Bft) NO 45 10,0 C 17,6 C 3,9 km/h (1 Bft)
04.05.2012 08:15 21,0 C 49 % 0,0 l/m 2,9 km/h (1 Bft) O-SO 112 9,9 C 17,7 C 2,1 km/h (1 Bft)
04.05.2012 08:16 21,0 C 49 % 0,0 l/m 2,9 km/h (1 Bft) O-SO 112 9,9 C 17,7 C 2,1 km/h (1 Bft)
04.05.2012 08:17 20,9 C 49 % 0,0 l/m 2,4 km/h (1 Bft) N-NO 22 9,8 C 18,0 C 0,0 km/h (0 Bft)
04.05.2012 08:18 20,9 C 49 % 0,0 l/m 2,4 km/h (1 Bft) N-NO 22 9,8 C 18,0 C 0,0 km/h (0 Bft)
04.05.2012 08:19 20,7 C 49 % 0,0 l/m 1,8 km/h (1 Bft) O-SO 112 9,6 C 18,4 C 0,0 km/h (0 Bft)
04.05.2012 08:20 20,7 C 49 % 0,0 l/m 1,8 km/h (1 Bft) O-SO 112 9,6 C 18,4 C 0,0 km/h (0 Bft)
04.05.2012 08:21 20,5 C 50 % 0,0 l/m 1,4 km/h (1 Bft) N-NW 337 9,7 C 18,8 C 0,0 km/h (0 Bft)
04.05.2012 08:22 20,5 C 50 % 0,0 l/m 1,4 km/h (1 Bft) N-NW 337 9,7 C 18,8 C 0,0 km/h (0 Bft)
04.05.2012 08:23 20,0 C 50 % 0,0 l/m 0,8 km/h (0 Bft) NO 45 9,3 C 19,3 C 0,0 km/h (0 Bft)
04.05.2012 08:24 20,0 C 50 % 0,0 l/m 0,8 km/h (0 Bft) NO 45 9,3 C 19,3 C 0,0 km/h (0 Bft)
04.05.2012 08:25 19,9 C 50 % 0,0 l/m 0,3 km/h (0 Bft) W-NW 292 9,2 C 19,9 C 1,8 km/h (1 Bft)
04.05.2012 08:26 19,9 C 50 % 0,0 l/m 0,3 km/h (0 Bft) W-NW 292 9,2 C 19,9 C 1,8 km/h (1 Bft)
04.05.2012 08:27 19,3 C 50 % 0,0 l/m 0,3 km/h (0 Bft) N-NO 22 8,6 C 20,3 C 0,0 km/h (0 Bft)
04.05.2012 08:28 19,3 C 50 % 0,0 l/m 0,3 km/h (0 Bft) N-NO 22 8,6 C 20,3 C 0,0 km/h (0 Bft)
04.05.2012 08:29 18,8 C 52 % 0,0 l/m 0,5 km/h (0 Bft) N 360 8,7 C 20,4 C 2,3 km/h (1 Bft)
04.05.2012 08:30 18,8 C 52 % 0,0 l/m 0,5 km/h (0 Bft) N 360 8,7 C 20,4 C 2,3 km/h (1 Bft)
04.05.2012 08:31 18,5 C 52 % 0,0 l/m 0,5 km/h (0 Bft) NO 45 8,5 C 20,5 C 0,0 km/h (0 Bft)
04.05.2012 08:32 18,5 C 52 % 0,0 l/m 0,5 km/h (0 Bft) NO 45 8,5 C 20,5 C 0,0 km/h (0 Bft)
04.05.2012 08:33 18,1 C 53 % 0,0 l/m 0,5 km/h (0 Bft) O 90 8,4 C 20,7 C 0,0 km/h (0 Bft)
04.05.2012 08:34 18,1 C 53 % 0,0 l/m 0,5 km/h (0 Bft) O 90 8,4 C 20,7 C 0,0 km/h (0 Bft)
04.05.2012 08:35 18,1 C 53 % 0,0 l/m 0,5 km/h (0 Bft) W-NW 292 8,4 C 21,0 C 0,0 km/h (0 Bft)
04.05.2012 08:36 18,1 C 53 % 0,0 l/m 0,5 km/h (0 Bft) W-NW 292 8,4 C 21,0 C 0,0 km/h (0 Bft)
04.05.2012 08:37 18,1 C 54 % 0,0 l/m 0,6 km/h (0 Bft) N 360 8,6 C 21,3 C 2,3 km/h (1 Bft)
04.05.2012 08:38 18,1 C 54 % 0,0 l/m 0,6 km/h (0 Bft) N 360 8,6 C 21,3 C 2,3 km/h (1 Bft)
04.05.2012 08:39 18,2 C 54 % 0,0 l/m 0,3 km/h (0 Bft) O 90 8,7 C 21,5 C 0,0 km/h (0 Bft)
04.05.2012 08:40 18,2 C 54 % 0,0 l/m 0,3 km/h (0 Bft) O 90 8,7 C 21,5 C 0,0 km/h (0 Bft)
04.05.2012 08:41 18,3 C 54 % 0,0 l/m 0,2 km/h (0 Bft) S 180 8,8 C 21,9 C 0,0 km/h (0 Bft)
04.05.2012 08:42 18,3 C 54 % 0,0 l/m 0,2 km/h (0 Bft) S 180 8,8 C 21,9 C 0,0 km/h (0 Bft)
04.05.2012 08:43 18,3 C 53 % 0,0 l/m 0,5 km/h (0 Bft) SO 135 8,6 C 22,1 C 2,7 km/h (1 Bft)
04.05.2012 08:44 18,3 C 53 % 0,0 l/m 0,5 km/h (0 Bft) SO 135 8,6 C 22,1 C 2,7 km/h (1 Bft)
04.05.2012 08:45 18,2 C 54 % 0,0 l/m 0,8 km/h (0 Bft) O-SO 112 8,7 C 22,2 C 4,2 km/h (1 Bft)
04.05.2012 08:46 18,2 C 54 % 0,0 l/m 0,8 km/h (0 Bft) O-SO 112 8,7 C 22,2 C 4,2 km/h (1 Bft)
04.05.2012 08:47 18,4 C 54 % 0,0 l/m 1,1 km/h (1 Bft) SW 225 8,9 C 22,2 C 2,3 km/h (1 Bft)
04.05.2012 08:48 18,4 C 54 % 0,0 l/m 1,1 km/h (1 Bft) SW 225 8,9 C 22,2 C 2,3 km/h (1 Bft)
04.05.2012 08:49 18,4 C 53 % 0,0 l/m 1,8 km/h (1 Bft) O 90 8,6 C 22,1 C 4,3 km/h (1 Bft)
04.05.2012 08:50 18,4 C 53 % 0,0 l/m 1,8 km/h (1 Bft) O 90 8,6 C 22,1 C 4,3 km/h (1 Bft)
04.05.2012 08:51 18,7 C 53 % 0,0 l/m 2,3 km/h (1 Bft) O-SO 112 8,9 C 21,9 C 1,9 km/h (1 Bft)
04.05.2012 08:52 18,7 C 53 % 0,0 l/m 2,3 km/h (1 Bft) O-SO 112 8,9 C 21,9 C 1,9 km/h (1 Bft)
04.05.2012 08:53 18,7 C 52 % 0,0 l/m 2,6 km/h (1 Bft) S-SO 157 8,6 C 21,9 C 3,9 km/h (1 Bft)
04.05.2012 08:54 18,7 C 52 % 0,0 l/m 2,6 km/h (1 Bft) S-SO 157 8,6 C 21,9 C 3,9 km/h (1 Bft)
04.05.2012 08:55 18,8 C 52 % 0,0 l/m 2,6 km/h (1 Bft) SO 135 8,7 C 21,9 C 2,3 km/h (1 Bft)
04.05.2012 08:56 18,8 C 52 % 0,0 l/m 2,6 km/h (1 Bft) SO 135 8,7 C 21,9 C 2,3 km/h (1 Bft)
04.05.2012 08:57 18,8 C 52 % 0,0 l/m 2,7 km/h (1 Bft) O-SO 112 8,7 C 21,9 C 2,3 km/h (1 Bft)
04.05.2012 08:58 18,8 C 52 % 0,0 l/m 2,7 km/h (1 Bft) O-SO 112 8,7 C 21,9 C 2,3 km/h (1 Bft)
04.05.2012 08:59 18,8 C 51 % 0,0 l/m 2,7 km/h (1 Bft) S-SO 157 8,4 C 21,9 C 4,3 km/h (1 Bft)
04.05.2012 09:00 18,8 C 51 % 0,0 l/m 2,7 km/h (1 Bft) S-SO 157 8,4 C 21,9 C 4,3 km/h (1 Bft)
04.05.2012 09:01 18,8 C 52 % 0,0 l/m 2,9 km/h (1 Bft) O 90 8,7 C 21,9 C 3,1 km/h (1 Bft)
04.05.2012 09:02 18,8 C 52 % 0,0 l/m 2,9 km/h (1 Bft) O 90 8,7 C 21,9 C 3,1 km/h (1 Bft)
04.05.2012 09:03 18,9 C 51 % 0,0 l/m 2,9 km/h (1 Bft) S-SO 157 8,5 C 21,7 C 3,2 km/h (1 Bft)
04.05.2012 09:04 18,9 C 51 % 0,0 l/m 2,9 km/h (1 Bft) S-SO 157 8,5 C 21,7 C 3,2 km/h (1 Bft)
04.05.2012 09:05 18,9 C 51 % 0,0 l/m 2,9 km/h (1 Bft) S-SO 157 8,5 C 21,7 C 2,9 km/h (1 Bft)
04.05.2012 09:06 18,9 C 51 % 0,0 l/m 2,9 km/h (1 Bft) S-SO 157 8,5 C 21,7 C 2,9 km/h (1 Bft)
04.05.2012 09:07 18,9 C 52 % 0,0 l/m 3,2 km/h (1 Bft) SO 135 8,8 C 21,7 C 4,8 km/h (1 Bft)
04.05.2012 09:08 18,9 C 52 % 0,0 l/m 3,2 km/h (1 Bft) SO 135 8,8 C 21,7 C 4,8 km/h (1 Bft)
04.05.2012 09:09 19,1 C 50 % 0,0 l/m 3,9 km/h (1 Bft) S-SO 157 8,4 C 21,6 C 7,1 km/h (2 Bft)
04.05.2012 09:10 19,1 C 50 % 0,0 l/m 3,9 km/h (1 Bft) S-SO 157 8,4 C 21,6 C 10,1 km/h (2 Bft)
04.05.2012 09:11 19,1 C 50 % 0,0 l/m 4,3 km/h (1 Bft) SO 135 8,4 C 21,2 C 8,0 km/h (2 Bft)
04.05.2012 09:12 19,1 C 50 % 0,0 l/m 4,3 km/h (1 Bft) SO 135 8,4 C 21,2 C 8,0 km/h (2 Bft)
04.05.2012 09:13 19,0 C 49 % 0,0 l/m 5,1 km/h (1 Bft) S 180 8,0 C 20,9 C 9,7 km/h (2 Bft)
04.05.2012 09:14 19,0 C 49 % 0,0 l/m 5,1 km/h (1 Bft) S 180 8,0 C 20,9 C 9,7 km/h (2 Bft)
04.05.2012 09:15 19,0 C 48 % 0,0 l/m 5,8 km/h (2 Bft) S 180 7,7 C 20,6 C 8,7 km/h (2 Bft)
04.05.2012 09:16 19,0 C 48 % 0,0 l/m 5,8 km/h (2 Bft) S 180 7,7 C 20,6 C 8,7 km/h (2 Bft)
04.05.2012 09:17 18,8 C 49 % 0,0 l/m 6,3 km/h (2 Bft) SO 135 7,9 C 20,3 C 8,0 km/h (2 Bft)
04.05.2012 09:18 18,8 C 49 % 0,0 l/m 6,3 km/h (2 Bft) SO 135 7,9 C 20,3 C 8,0 km/h (2 Bft)
04.05.2012 09:19 18,9 C 50 % 0,0 l/m 6,8 km/h (2 Bft) O 90 8,2 C 20,0 C 10,1 km/h (2 Bft)
04.05.2012 09:20 18,9 C 50 % 0,0 l/m 6,8 km/h (2 Bft) O 90 8,2 C 20,0 C 10,1 km/h (2 Bft)
04.05.2012 09:21 19,1 C 49 % 0,0 l/m 6,4 km/h (2 Bft) S 180 8,1 C 20,1 C 6,3 km/h (2 Bft)
04.05.2012 09:22 19,1 C 49 % 0,0 l/m 6,4 km/h (2 Bft) S 180 8,1 C 20,1 C 6,3 km/h (2 Bft)
04.05.2012 09:23 19,0 C 49 % 0,0 l/m 6,4 km/h (2 Bft) S 180 8,0 C 20,1 C 7,6 km/h (2 Bft)
04.05.2012 09:24 19,0 C 49 % 0,0 l/m 6,4 km/h (2 Bft) S 180 8,0 C 20,1 C 7,6 km/h (2 Bft)
04.05.2012 09:25 19,2 C 49 % 0,0 l/m 6,0 km/h (2 Bft) SO 135 8,2 C 20,1 C 5,3 km/h (1 Bft)
04.05.2012 09:26 19,2 C 49 % 0,0 l/m 6,0 km/h (2 Bft) SO 135 8,2 C 20,1 C 5,3 km/h (1 Bft)
04.05.2012 09:27 19,2 C 50 % 0,0 l/m 6,1 km/h (2 Bft) S-SO 157 8,5 C 20,1 C 8,5 km/h (2 Bft)
04.05.2012 09:28 19,2 C 50 % 0,0 l/m 6,1 km/h (2 Bft) S-SO 157 8,5 C 20,1 C 8,5 km/h (2 Bft)
04.05.2012 09:29 19,3 C 49 % 0,0 l/m 6,0 km/h (2 Bft) S 180 8,3 C 20,1 C 4,8 km/h (1 Bft)
04.05.2012 09:30 19,3 C 49 % 0,0 l/m 6,0 km/h (2 Bft) S 180 8,3 C 20,1 C 4,8 km/h (1 Bft)
04.05.2012 09:31 19,4 C 48 % 0,0 l/m 5,8 km/h (2 Bft) SO 135 8,1 C 20,1 C 7,7 km/h (2 Bft)
04.05.2012 09:32 19,4 C 48 % 0,0 l/m 5,8 km/h (2 Bft) SO 135 8,1 C 20,1 C 7,7 km/h (2 Bft)
04.05.2012 09:33 19,5 C 48 % 0,0 l/m 5,5 km/h (1 Bft) SO 135 8,2 C 20,1 C 4,3 km/h (1 Bft)
04.05.2012 09:34 19,5 C 48 % 0,0 l/m 5,5 km/h (1 Bft) SO 135 8,2 C 20,1 C 4,3 km/h (1 Bft)
04.05.2012 09:35 19,6 C 48 % 0,0 l/m 5,3 km/h (1 Bft) SO 135 8,3 C 20,1 C 7,1 km/h (2 Bft)
04.05.2012 09:36 19,6 C 48 % 0,0 l/m 5,3 km/h (1 Bft) SO 135 8,3 C 20,1 C 7,1 km/h (2 Bft)
04.05.2012 09:37 19,6 C 48 % 0,0 l/m 5,3 km/h (1 Bft) NO 45 8,3 C 20,3 C 5,8 km/h (2 Bft)
04.05.2012 09:38 19,6 C 48 % 0,0 l/m 5,3 km/h (1 Bft) NO 45 8,3 C 20,3 C 5,8 km/h (2 Bft)
04.05.2012 09:39 19,8 C 47 % 0,0 l/m 5,1 km/h (1 Bft) O-SO 112 8,2 C 20,4 C 5,8 km/h (2 Bft)
04.05.2012 09:40 19,8 C 47 % 0,0 l/m 5,1 km/h (1 Bft) O-SO 112 8,2 C 20,4 C 5,8 km/h (2 Bft)
04.05.2012 09:41 19,9 C 47 % 0,0 l/m 5,1 km/h (1 Bft) SO 135 8,3 C 20,4 C 6,8 km/h (2 Bft)
04.05.2012 09:42 19,9 C 47 % 0,0 l/m 5,1 km/h (1 Bft) SO 135 8,3 C 20,4 C 6,8 km/h (2 Bft)
04.05.2012 09:43 19,8 C 47 % 0,0 l/m 5,5 km/h (1 Bft) SO 135 8,2 C 20,5 C 9,5 km/h (2 Bft)
04.05.2012 09:44 19,8 C 47 % 0,0 l/m 5,5 km/h (1 Bft) SO 135 8,2 C 20,5 C 9,5 km/h (2 Bft)
04.05.2012 09:45 20,0 C 47 % 0,0 l/m 6,0 km/h (2 Bft) O-SO 112 8,3 C 20,5 C 11,6 km/h (2 Bft)
04.05.2012 09:46 20,0 C 47 % 0,0 l/m 6,0 km/h (2 Bft) O-SO 112 8,3 C 20,5 C 11,6 km/h (2 Bft)
04.05.2012 09:47 20,3 C 46 % 0,0 l/m 6,3 km/h (2 Bft) S 180 8,3 C 20,5 C 8,2 km/h (2 Bft)
04.05.2012 09:48 20,3 C 46 % 0,0 l/m 6,3 km/h (2 Bft) S 180 8,3 C 20,5 C 8,2 km/h (2 Bft)
04.05.2012 09:49 20,4 C 47 % 0,0 l/m 6,4 km/h (2 Bft) O-SO 112 8,7 C 20,4 C 7,1 km/h (2 Bft)
04.05.2012 09:50 20,4 C 47 % 0,0 l/m 6,4 km/h (2 Bft) O-SO 112 8,7 C 20,4 C 11,6 km/h (2 Bft)
04.05.2012 09:51 20,5 C 46 % 0,0 l/m 6,3 km/h (2 Bft) O-SO 112 8,5 C 20,6 C 2,3 km/h (1 Bft)
04.05.2012 09:52 20,5 C 46 % 0,0 l/m 6,3 km/h (2 Bft) O-SO 112 8,5 C 20,6 C 2,3 km/h (1 Bft)
04.05.2012 09:53 20,5 C 47 % 0,0 l/m 5,8 km/h (2 Bft) SO 135 8,8 C 20,9 C 5,0 km/h (1 Bft)
04.05.2012 09:54 20,5 C 47 % 0,0 l/m 5,8 km/h (2 Bft) SO 135 8,8 C 20,9 C 5,0 km/h (1 Bft)
04.05.2012 09:55 20,7 C 46 % 0,0 l/m 5,5 km/h (1 Bft) SO 135 8,7 C 21,2 C 7,2 km/h (2 Bft)
04.05.2012 09:56 20,7 C 46 % 0,0 l/m 5,5 km/h (1 Bft) SO 135 8,7 C 21,2 C 7,2 km/h (2 Bft)
04.05.2012 09:57 20,6 C 45 % 0,0 l/m 5,1 km/h (1 Bft) S 180 8,2 C 21,2 C 8,9 km/h (2 Bft)
04.05.2012 09:58 20,6 C 45 % 0,0 l/m 5,1 km/h (1 Bft) S 180 8,2 C 21,2 C 8,9 km/h (2 Bft)
04.05.2012 09:59 20,7 C 44 % 0,0 l/m 5,0 km/h (1 Bft) S-SW 202 8,0 C 21,2 C 7,6 km/h (2 Bft)
04.05.2012 10:00 20,7 C 44 % 0,0 l/m 5,0 km/h (1 Bft) S-SW 202 8,0 C 21,2 C 7,6 km/h (2 Bft)
04.05.2012 10:01 20,6 C 45 % 0,0 l/m 5,1 km/h (1 Bft) S-SW 202 8,2 C 21,2 C 9,8 km/h (2 Bft)
04.05.2012 10:02 20,6 C 45 % 0,0 l/m 5,1 km/h (1 Bft) S-SW 202 8,2 C 21,2 C 9,8 km/h (2 Bft)
04.05.2012 10:03 20,7 C 45 % 0,0 l/m 5,8 km/h (2 Bft) W-SW 247 8,3 C 21,0 C 5,0 km/h (1 Bft)
04.05.2012 10:04 20,7 C 45 % 0,0 l/m 5,8 km/h (2 Bft) W-SW 247 8,3 C 21,0 C 5,0 km/h (1 Bft)
04.05.2012 10:05 20,6 C 45 % 0,0 l/m 5,8 km/h (2 Bft) S 180 8,2 C 21,0 C 11,1 km/h (2 Bft)
04.05.2012 10:06 20,6 C 45 % 0,0 l/m 5,8 km/h (2 Bft) S 180 8,2 C 21,0 C 11,1 km/h (2 Bft)
04.05.2012 10:07 20,6 C 43 % 0,0 l/m 5,8 km/h (2 Bft) S 180 7,6 C 21,0 C 6,9 km/h (2 Bft)
04.05.2012 10:08 20,6 C 43 % 0,0 l/m 5,8 km/h (2 Bft) S 180 7,6 C 21,0 C 6,9 km/h (2 Bft)
04.05.2012 10:09 20,7 C 44 % 0,0 l/m 5,6 km/h (1 Bft) S-SW 202 8,0 C 20,9 C 5,0 km/h (1 Bft)
04.05.2012 10:10 20,7 C 44 % 0,0 l/m 5,6 km/h (1 Bft) S-SW 202 8,0 C 20,9 C 5,0 km/h (1 Bft)
04.05.2012 10:11 20,7 C 45 % 0,0 l/m 5,5 km/h (1 Bft) S 180 8,3 C 21,0 C 2,9 km/h (1 Bft)
04.05.2012 10:12 20,7 C 45 % 0,0 l/m 5,5 km/h (1 Bft) S 180 8,3 C 21,0 C 2,9 km/h (1 Bft)
04.05.2012 10:13 20,9 C 44 % 0,0 l/m 5,1 km/h (1 Bft) S-SW 202 8,2 C 21,2 C 10,0 km/h (2 Bft)
04.05.2012 10:14 20,9 C 44 % 0,0 l/m 5,1 km/h (1 Bft) S-SW 202 8,2 C 21,2 C 10,0 km/h (2 Bft)
04.05.2012 10:15 20,8 C 44 % 0,0 l/m 5,5 km/h (1 Bft) SO 135 8,1 C 21,2 C 5,5 km/h (1 Bft)
04.05.2012 10:16 20,8 C 44 % 0,0 l/m 5,5 km/h (1 Bft) SO 135 8,1 C 21,2 C 5,5 km/h (1 Bft)
04.05.2012 10:17 20,9 C 45 % 0,0 l/m 5,3 km/h (1 Bft) SO 135 8,5 C 21,2 C 7,1 km/h (2 Bft)
04.05.2012 10:18 20,9 C 45 % 0,0 l/m 5,3 km/h (1 Bft) SO 135 8,5 C 21,2 C 7,1 km/h (2 Bft)
04.05.2012 10:19 21,1 C 45 % 0,0 l/m 5,1 km/h (1 Bft) S-SW 202 8,7 C 21,1 C 5,0 km/h (1 Bft)
04.05.2012 10:20 21,1 C 45 % 0,0 l/m 5,1 km/h (1 Bft) S-SW 202 8,7 C 21,1 C 5,0 km/h (1 Bft)
04.05.2012 10:21 21,1 C 45 % 0,0 l/m 5,3 km/h (1 Bft) S 180 8,7 C 21,1 C 6,3 km/h (2 Bft)
04.05.2012 10:22 21,1 C 45 % 0,0 l/m 5,3 km/h (1 Bft) S 180 8,7 C 21,1 C 6,3 km/h (2 Bft)
04.05.2012 10:23 21,3 C 44 % 0,0 l/m 5,6 km/h (1 Bft) SW 225 8,5 C 21,0 C 6,9 km/h (2 Bft)
04.05.2012 10:24 21,3 C 44 % 0,0 l/m 5,6 km/h (1 Bft) SW 225 8,5 C 21,0 C 6,9 km/h (2 Bft)
04.05.2012 10:25 21,2 C 45 % 0,0 l/m 5,3 km/h (1 Bft) S-SO 157 8,8 C 20,9 C 6,1 km/h (2 Bft)
04.05.2012 10:26 21,2 C 45 % 0,0 l/m 5,3 km/h (1 Bft) S-SO 157 8,8 C 20,9 C 6,1 km/h (2 Bft)
04.05.2012 10:27 21,5 C 44 % 0,0 l/m 5,1 km/h (1 Bft) S 180 8,7 C 20,9 C 8,7 km/h (2 Bft)
04.05.2012 10:28 21,5 C 44 % 0,0 l/m 5,1 km/h (1 Bft) S 180 8,7 C 20,9 C 8,7 km/h (2 Bft)
04.05.2012 10:29 21,4 C 42 % 0,0 l/m 5,3 km/h (1 Bft) S 180 8,0 C 20,7 C 6,3 km/h (2 Bft)
04.05.2012 10:30 21,4 C 42 % 0,0 l/m 5,3 km/h (1 Bft) S 180 8,0 C 20,7 C 6,3 km/h (2 Bft)
04.05.2012 10:31 21,3 C 43 % 0,0 l/m 5,1 km/h (1 Bft) O-SO 112 8,2 C 20,5 C 4,2 km/h (1 Bft)
04.05.2012 10:32 21,3 C 43 % 0,0 l/m 5,1 km/h (1 Bft) O-SO 112 8,2 C 20,5 C 4,2 km/h (1 Bft)
04.05.2012 10:33 21,1 C 44 % 0,0 l/m 5,1 km/h (1 Bft) SO 135 8,4 C 20,3 C 8,2 km/h (2 Bft)
04.05.2012 10:34 21,1 C 44 % 0,0 l/m 5,1 km/h (1 Bft) SO 135 8,4 C 20,3 C 8,2 km/h (2 Bft)
04.05.2012 10:35 21,2 C 44 % 0,0 l/m 5,5 km/h (1 Bft) O-SO 112 8,5 C 20,1 C 9,8 km/h (2 Bft)
04.05.2012 10:36 21,2 C 44 % 0,0 l/m 5,5 km/h (1 Bft) O-SO 112 8,5 C 20,1 C 9,8 km/h (2 Bft)
04.05.2012 10:37 20,9 C 44 % 0,0 l/m 5,3 km/h (1 Bft) NO 45 8,2 C 19,6 C 2,4 km/h (1 Bft)
04.05.2012 10:38 20,9 C 44 % 0,0 l/m 5,3 km/h (1 Bft) NO 45 8,2 C 19,6 C 2,4 km/h (1 Bft)
04.05.2012 10:39 21,1 C 43 % 0,0 l/m 5,3 km/h (1 Bft) O-NO 67 8,0 C 19,4 C 8,9 km/h (2 Bft)
04.05.2012 10:40 21,1 C 43 % 0,0 l/m 5,3 km/h (1 Bft) O-NO 67 8,0 C 19,4 C 8,9 km/h (2 Bft)
04.05.2012 10:41 21,2 C 43 % 0,0 l/m 5,3 km/h (1 Bft) S-SO 157 8,1 C 19,4 C 5,0 km/h (1 Bft)
04.05.2012 10:42 21,2 C 43 % 0,0 l/m 5,3 km/h (1 Bft) S-SO 157 8,1 C 19,4 C 5,0 km/h (1 Bft)
04.05.2012 10:43 21,5 C 43 % 0,0 l/m 5,5 km/h (1 Bft) S-SO 157 8,4 C 19,6 C 5,1 km/h (1 Bft)
04.05.2012 10:44 21,5 C 43 % 0,0 l/m 5,5 km/h (1 Bft) S-SO 157 8,4 C 19,6 C 5,1 km/h (1 Bft)
04.05.2012 10:45 21,6 C 43 % 0,0 l/m 5,5 km/h (1 Bft) S 180 8,5 C 19,8 C 10,3 km/h (2 Bft)
04.05.2012 10:46 21,6 C 43 % 0,0 l/m 5,5 km/h (1 Bft) S 180 8,5 C 19,8 C 10,3 km/h (2 Bft)
04.05.2012 10:47 21,6 C 42 % 0,0 l/m 5,6 km/h (1 Bft) S-SW 202 8,1 C 19,8 C 6,8 km/h (2 Bft)
04.05.2012 10:48 21,6 C 42 % 0,0 l/m 5,6 km/h (1 Bft) S-SW 202 8,1 C 19,8 C 6,8 km/h (2 Bft)
04.05.2012 10:49 21,6 C 42 % 0,0 l/m 6,0 km/h (2 Bft) O-SO 112 8,1 C 19,9 C 6,9 km/h (2 Bft)
04.05.2012 10:50 21,6 C 42 % 0,0 l/m 6,0 km/h (2 Bft) O-SO 112 8,1 C 19,9 C 6,9 km/h (2 Bft)
04.05.2012 10:51 21,6 C 40 % 0,0 l/m 5,0 km/h (1 Bft) O-SO 112 7,4 C 20,1 C 0,0 km/h (0 Bft)
04.05.2012 10:52 21,6 C 40 % 0,0 l/m 5,0 km/h (1 Bft) O-SO 112 7,4 C 20,1 C 0,0 km/h (0 Bft)
04.05.2012 10:53 21,7 C 42 % 0,0 l/m 4,8 km/h (1 Bft) S 180 8,2 C 20,4 C 7,7 km/h (2 Bft)
04.05.2012 10:54 21,7 C 42 % 0,0 l/m 4,8 km/h (1 Bft) S 180 8,2 C 20,4 C 7,7 km/h (2 Bft)
04.05.2012 10:55 21,8 C 42 % 0,0 l/m 4,7 km/h (1 Bft) S-SO 157 8,3 C 20,7 C 8,9 km/h (2 Bft)
04.05.2012 10:56 21,8 C 42 % 0,0 l/m 4,7 km/h (1 Bft) S-SO 157 8,3 C 20,7 C 8,9 km/h (2 Bft)
04.05.2012 10:57 21,6 C 42 % 0,0 l/m 4,5 km/h (1 Bft) W-SW 247 8,1 C 20,7 C 9,5 km/h (2 Bft)
04.05.2012 10:58 21,6 C 42 % 0,0 l/m 4,5 km/h (1 Bft) W-SW 247 8,1 C 20,7 C 9,5 km/h (2 Bft)
04.05.2012 10:59 21,9 C 40 % 0,0 l/m 4,5 km/h (1 Bft) SO 135 7,7 C 20,6 C 6,6 km/h (2 Bft)
04.05.2012 11:00 21,9 C 40 % 0,0 l/m 4,5 km/h (1 Bft) SO 135 7,7 C 20,6 C 6,6 km/h (2 Bft)
04.05.2012 11:01 22,0 C 41 % 0,0 l/m 4,8 km/h (1 Bft) S-SO 157 8,1 C 20,4 C 8,4 km/h (2 Bft)
04.05.2012 11:02 22,0 C 41 % 0,0 l/m 4,8 km/h (1 Bft) S-SO 157 8,1 C 20,4 C 8,4 km/h (2 Bft)
04.05.2012 11:03 22,0 C 42 % 0,0 l/m 5,5 km/h (1 Bft) S 180 8,5 C 20,4 C 3,9 km/h (1 Bft)
04.05.2012 11:04 22,0 C 42 % 0,0 l/m 5,5 km/h (1 Bft) S 180 8,5 C 20,4 C 3,9 km/h (1 Bft)
04.05.2012 11:05 22,3 C 40 % 0,0 l/m 5,5 km/h (1 Bft) S-SW 202 8,0 C 20,6 C 10,5 km/h (2 Bft)
04.05.2012 11:06 22,3 C 40 % 0,0 l/m 5,5 km/h (1 Bft) S-SW 202 8,0 C 20,6 C 10,5 km/h (2 Bft)
04.05.2012 11:07 22,2 C 41 % 0,0 l/m 5,6 km/h (1 Bft) S 180 8,3 C 20,6 C 6,0 km/h (2 Bft)
04.05.2012 11:08 22,2 C 41 % 0,0 l/m 5,6 km/h (1 Bft) S 180 8,3 C 20,6 C 6,0 km/h (2 Bft)
04.05.2012 11:09 22,4 C 39 % 0,0 l/m 5,8 km/h (2 Bft) SO 135 7,8 C 20,6 C 8,4 km/h (2 Bft)
04.05.2012 11:10 22,4 C 39 % 0,0 l/m 5,8 km/h (2 Bft) SO 135 7,8 C 20,6 C 8,4 km/h (2 Bft)
04.05.2012 11:11 22,6 C 40 % 0,0 l/m 5,5 km/h (1 Bft) SO 135 8,3 C 20,5 C 5,0 km/h (1 Bft)
04.05.2012 11:12 22,6 C 40 % 0,0 l/m 5,5 km/h (1 Bft) SO 135 8,3 C 20,5 C 5,0 km/h (1 Bft)
04.05.2012 11:13 22,8 C 41 % 0,0 l/m 4,8 km/h (1 Bft) SO 135 8,9 C 20,7 C 3,7 km/h (1 Bft)
04.05.2012 11:14 22,8 C 41 % 0,0 l/m 4,8 km/h (1 Bft) SO 135 8,9 C 20,7 C 3,7 km/h (1 Bft)
04.05.2012 11:15 23,1 C 39 % 0,0 l/m 4,7 km/h (1 Bft) S 180 8,4 C 20,9 C 4,8 km/h (1 Bft)
04.05.2012 11:16 23,1 C 39 % 0,0 l/m 4,7 km/h (1 Bft) S 180 8,4 C 20,9 C 4,8 km/h (1 Bft)
04.05.2012 11:17 23,1 C 39 % 0,0 l/m 4,5 km/h (1 Bft) W-SW 247 8,4 C 21,1 C 5,0 km/h (1 Bft)
04.05.2012 11:18 23,1 C 39 % 0,0 l/m 4,5 km/h (1 Bft) W-SW 247 8,4 C 21,1 C 5,0 km/h (1 Bft)
04.05.2012 11:19 23,1 C 37 % 0,0 l/m 3,9 km/h (1 Bft) S-SW 202 7,6 C 21,2 C 6,3 km/h (2 Bft)
04.05.2012 11:20 23,1 C 37 % 0,0 l/m 3,9 km/h (1 Bft) S-SW 202 7,6 C 21,2 C 6,3 km/h (2 Bft)
04.05.2012 11:21 22,9 C 37 % 0,0 l/m 3,2 km/h (1 Bft) SW 225 7,4 C 21,2 C 0,0 km/h (0 Bft)
04.05.2012 11:22 22,9 C 37 % 0,0 l/m 3,2 km/h (1 Bft) SW 225 7,4 C 21,2 C 0,0 km/h (0 Bft)
04.05.2012 11:23 23,1 C 38 % 0,0 l/m 2,7 km/h (1 Bft) S 180 8,0 C 21,4 C 0,0 km/h (0 Bft)
04.05.2012 11:24 23,1 C 38 % 0,0 l/m 2,7 km/h (1 Bft) S 180 8,0 C 21,4 C 0,0 km/h (0 Bft)
04.05.2012 11:25 22,3 C 38 % 0,0 l/m 3,5 km/h (1 Bft) S-SW 202 7,3 C 21,6 C 9,2 km/h (2 Bft)
04.05.2012 11:26 22,3 C 38 % 0,0 l/m 3,5 km/h (1 Bft) S-SW 202 7,3 C 21,6 C 9,2 km/h (2 Bft)
04.05.2012 11:27 22,3 C 38 % 0,0 l/m 4,0 km/h (1 Bft) S-SO 157 7,3 C 21,4 C 9,5 km/h (2 Bft)
04.05.2012 11:28 22,3 C 38 % 0,0 l/m 4,0 km/h (1 Bft) S-SO 157 7,3 C 21,4 C 9,5 km/h (2 Bft)
04.05.2012 11:29 22,7 C 38 % 0,0 l/m 4,5 km/h (1 Bft) O-SO 112 7,6 C 21,0 C 7,1 km/h (2 Bft)
04.05.2012 11:30 22,7 C 38 % 0,0 l/m 4,5 km/h (1 Bft) O-SO 112 7,6 C 21,0 C 7,1 km/h (2 Bft)
04.05.2012 11:31 22,5 C 38 % 0,0 l/m 4,7 km/h (1 Bft) SO 135 7,5 C 20,9 C 3,9 km/h (1 Bft)
04.05.2012 11:32 22,5 C 38 % 0,0 l/m 4,7 km/h (1 Bft) SO 135 7,5 C 20,9 C 3,9 km/h (1 Bft)
04.05.2012 11:33 22,7 C 37 % 0,0 l/m 5,1 km/h (1 Bft) S 180 7,3 C 20,8 C 4,7 km/h (1 Bft)
04.05.2012 11:34 22,7 C 37 % 0,0 l/m 5,1 km/h (1 Bft) S 180 7,3 C 20,8 C 4,7 km/h (1 Bft)
04.05.2012 11:35 23,0 C 37 % 0,0 l/m 5,5 km/h (1 Bft) S-SO 157 7,5 C 20,7 C 3,4 km/h (1 Bft)
04.05.2012 11:36 23,0 C 37 % 0,0 l/m 5,5 km/h (1 Bft) S-SO 157 7,5 C 20,7 C 3,4 km/h (1 Bft)
04.05.2012 11:37 23,2 C 37 % 0,0 l/m 5,0 km/h (1 Bft) O-SO 112 7,7 C 20,8 C 2,3 km/h (1 Bft)
04.05.2012 11:38 23,2 C 37 % 0,0 l/m 5,0 km/h (1 Bft) O-SO 112 7,7 C 20,8 C 2,3 km/h (1 Bft)
04.05.2012 11:39 23,3 C 39 % 0,0 l/m 4,3 km/h (1 Bft) S-SO 157 8,6 C 21,0 C 4,8 km/h (1 Bft)
04.05.2012 11:40 23,3 C 39 % 0,0 l/m 4,3 km/h (1 Bft) S-SO 157 8,6 C 21,0 C 4,8 km/h (1 Bft)
04.05.2012 11:41 23,7 C 41 % 0,0 l/m 4,7 km/h (1 Bft) S 180 9,7 C 21,2 C 5,8 km/h (2 Bft)
04.05.2012 11:42 23,7 C 41 % 0,0 l/m 4,7 km/h (1 Bft) S 180 9,7 C 21,2 C 5,8 km/h (2 Bft)
04.05.2012 11:43 23,9 C 38 % 0,0 l/m 4,3 km/h (1 Bft) SO 135 8,7 C 21,4 C 5,1 km/h (1 Bft)
04.05.2012 11:44 23,9 C 38 % 0,0 l/m 4,3 km/h (1 Bft) SO 135 8,7 C 21,4 C 5,1 km/h (1 Bft)
04.05.2012 11:45 24,1 C 37 % 0,0 l/m 4,7 km/h (1 Bft) S 180 8,5 C 21,6 C 5,0 km/h (1 Bft)
04.05.2012 11:46 24,1 C 37 % 0,0 l/m 4,7 km/h (1 Bft) S 180 8,5 C 21,6 C 5,0 km/h (1 Bft)
04.05.2012 11:47 24,0 C 39 % 0,0 l/m 5,0 km/h (1 Bft) SO 135 9,2 C 21,6 C 9,7 km/h (2 Bft)
04.05.2012 11:48 24,0 C 39 % 0,0 l/m 5,0 km/h (1 Bft) SO 135 9,2 C 21,6 C 9,7 km/h (2 Bft)
04.05.2012 11:49 24,1 C 37 % 0,0 l/m 5,1 km/h (1 Bft) S 180 8,5 C 21,4 C 4,7 km/h (1 Bft)
04.05.2012 11:50 24,1 C 37 % 0,0 l/m 5,1 km/h (1 Bft) S 180 8,5 C 21,4 C 4,7 km/h (1 Bft)
04.05.2012 11:51 24,1 C 36 % 0,0 l/m 5,6 km/h (1 Bft) S-SO 157 8,1 C 21,4 C 12,4 km/h (3 Bft)
04.05.2012 11:52 24,1 C 36 % 0,0 l/m 5,6 km/h (1 Bft) S-SO 157 8,1 C 21,4 C 12,4 km/h (3 Bft)
04.05.2012 11:53 24,1 C 36 % 0,0 l/m 6,1 km/h (2 Bft) S 180 8,1 C 21,1 C 5,8 km/h (2 Bft)
04.05.2012 11:54 24,1 C 36 % 0,0 l/m 6,1 km/h (2 Bft) S 180 8,1 C 21,1 C 5,8 km/h (2 Bft)
04.05.2012 11:55 24,1 C 37 % 0,0 l/m 6,3 km/h (2 Bft) S-SO 157 8,5 C 21,0 C 9,0 km/h (2 Bft)
04.05.2012 11:56 24,1 C 37 % 0,0 l/m 6,3 km/h (2 Bft) S-SO 157 8,5 C 21,0 C 9,0 km/h (2 Bft)
04.05.2012 11:57 24,1 C 34 % 0,0 l/m 6,3 km/h (2 Bft) SO 135 7,2 C 20,9 C 5,3 km/h (1 Bft)
04.05.2012 11:58 24,1 C 34 % 0,0 l/m 6,3 km/h (2 Bft) SO 135 7,2 C 20,9 C 5,3 km/h (1 Bft)
04.05.2012 11:59 24,0 C 38 % 0,0 l/m 6,1 km/h (2 Bft) O-SO 112 8,8 C 20,9 C 7,2 km/h (2 Bft)
04.05.2012 12:00 24,0 C 38 % 0,0 l/m 6,1 km/h (2 Bft) O-SO 112 8,8 C 20,9 C 12,4 km/h (3 Bft)
04.05.2012 12:01 23,7 C 36 % 0,0 l/m 6,3 km/h (2 Bft) O-SO 112 7,7 C 20,9 C 6,0 km/h (2 Bft)
04.05.2012 12:02 23,7 C 36 % 0,0 l/m 6,3 km/h (2 Bft) O-SO 112 7,7 C 20,9 C 6,0 km/h (2 Bft)
04.05.2012 12:03 23,3 C 35 % 0,0 l/m 5,5 km/h (1 Bft) S 180 7,0 C 20,8 C 3,1 km/h (1 Bft)
04.05.2012 12:04 23,3 C 35 % 0,0 l/m 5,5 km/h (1 Bft) S 180 7,0 C 20,8 C 3,1 km/h (1 Bft)
04.05.2012 12:05 23,6 C 36 % 0,0 l/m 4,8 km/h (1 Bft) N 360 7,6 C 20,4 C 2,4 km/h (1 Bft)
04.05.2012 12:06 23,6 C 36 % 0,0 l/m 4,8 km/h (1 Bft) N 360 7,6 C 20,4 C 2,4 km/h (1 Bft)
04.05.2012 12:07 23,8 C 35 % 0,0 l/m 4,0 km/h (1 Bft) S-SO 157 7,4 C 20,4 C 2,7 km/h (1 Bft)
04.05.2012 12:08 23,8 C 35 % 0,0 l/m 4,0 km/h (1 Bft) S-SO 157 7,4 C 20,4 C 2,7 km/h (1 Bft)
04.05.2012 12:09 24,0 C 35 % 0,0 l/m 4,0 km/h (1 Bft) O-SO 112 7,6 C 20,6 C 4,2 km/h (1 Bft)
04.05.2012 12:10 24,0 C 35 % 0,0 l/m 4,0 km/h (1 Bft) O-SO 112 7,6 C 20,6 C 4,2 km/h (1 Bft)
04.05.2012 12:11 24,3 C 37 % 0,0 l/m 3,2 km/h (1 Bft) S 180 8,7 C 20,8 C 3,5 km/h (1 Bft)
04.05.2012 12:12 24,3 C 37 % 0,0 l/m 3,2 km/h (1 Bft) S 180 8,7 C 20,8 C 3,5 km/h (1 Bft)
04.05.2012 12:13 23,9 C 35 % 0,0 l/m 2,9 km/h (1 Bft) S 180 7,5 C 20,9 C 6,1 km/h (2 Bft)
04.05.2012 12:14 23,9 C 35 % 0,0 l/m 2,9 km/h (1 Bft) S 180 7,5 C 20,9 C 6,1 km/h (2 Bft)
04.05.2012 12:15 23,9 C 36 % 0,0 l/m 3,5 km/h (1 Bft) SO 135 7,9 C 20,7 C 5,3 km/h (1 Bft)
04.05.2012 12:16 23,9 C 36 % 0,0 l/m 3,5 km/h (1 Bft) SO 135 7,9 C 20,7 C 5,3 km/h (1 Bft)
04.05.2012 12:17 24,1 C 34 % 0,0 l/m 4,2 km/h (1 Bft) S-SO 157 7,2 C 20,4 C 7,4 km/h (2 Bft)
04.05.2012 12:18 24,1 C 34 % 0,0 l/m 4,2 km/h (1 Bft) S-SO 157 7,2 C 20,4 C 7,4 km/h (2 Bft)
04.05.2012 12:19 24,3 C 34 % 0,0 l/m 4,8 km/h (1 Bft) SO 135 7,4 C 20,2 C 6,3 km/h (2 Bft)
04.05.2012 12:20 24,3 C 34 % 0,0 l/m 4,8 km/h (1 Bft) SO 135 7,4 C 20,2 C 6,3 km/h (2 Bft)
04.05.2012 12:21 24,3 C 33 % 0,0 l/m 4,5 km/h (1 Bft) S-SO 157 7,0 C 20,1 C 4,3 km/h (1 Bft)
04.05.2012 12:22 24,3 C 33 % 0,0 l/m 4,5 km/h (1 Bft) S-SO 157 7,0 C 20,1 C 4,3 km/h (1 Bft)
04.05.2012 12:23 24,4 C 32 % 0,0 l/m 5,0 km/h (1 Bft) S 180 6,6 C 20,2 C 7,4 km/h (2 Bft)
04.05.2012 12:24 24,4 C 32 % 0,0 l/m 5,0 km/h (1 Bft) S 180 6,6 C 20,2 C 7,4 km/h (2 Bft)
04.05.2012 12:25 24,5 C 33 % 0,0 l/m 4,8 km/h (1 Bft) SO 135 7,2 C 20,2 C 4,3 km/h (1 Bft)
04.05.2012 12:26 24,5 C 33 % 0,0 l/m 4,8 km/h (1 Bft) SO 135 7,2 C 20,2 C 4,3 km/h (1 Bft)
04.05.2012 12:27 24,6 C 35 % 0,0 l/m 4,8 km/h (1 Bft) N-NW 337 8,1 C 20,0 C 6,0 km/h (2 Bft)
04.05.2012 12:28 24,6 C 35 % 0,0 l/m 4,8 km/h (1 Bft) N-NW 337 8,1 C 20,0 C 6,0 km/h (2 Bft)
04.05.2012 12:29 23,6 C 33 % 0,0 l/m 4,7 km/h (1 Bft) SO 135 6,4 C 20,0 C 5,3 km/h (1 Bft)
04.05.2012 12:30 23,6 C 33 % 0,0 l/m 4,7 km/h (1 Bft) SO 135 6,4 C 20,0 C 5,3 km/h (1 Bft)
04.05.2012 12:31 22,8 C 35 % 0,0 l/m 5,1 km/h (1 Bft) SO 135 6,5 C 19,7 C 12,4 km/h (3 Bft)
04.05.2012 12:32 22,8 C 35 % 0,0 l/m 5,1 km/h (1 Bft) SO 135 6,5 C 19,7 C 12,4 km/h (3 Bft)
04.05.2012 12:33 22,4 C 35 % 0,0 l/m 6,3 km/h (2 Bft) O-SO 112 6,2 C 19,2 C 12,6 km/h (3 Bft)
04.05.2012 12:34 22,4 C 35 % 0,0 l/m 6,3 km/h (2 Bft) O-SO 112 6,2 C 19,2 C 12,6 km/h (3 Bft)
04.05.2012 12:35 23,0 C 35 % 0,0 l/m 6,6 km/h (2 Bft) O-SO 112 6,7 C 18,7 C 12,2 km/h (2 Bft)
04.05.2012 12:36 23,0 C 35 % 0,0 l/m 6,6 km/h (2 Bft) O-SO 112 6,7 C 18,7 C 12,2 km/h (2 Bft)
04.05.2012 12:37 23,4 C 37 % 0,0 l/m 6,9 km/h (2 Bft) SO 135 7,9 C 18,4 C 10,3 km/h (2 Bft)
04.05.2012 12:38 23,4 C 37 % 0,0 l/m 6,9 km/h (2 Bft) SO 135 7,9 C 18,4 C 10,3 km/h (2 Bft)
04.05.2012 12:39 23,9 C 36 % 0,0 l/m 7,1 km/h (2 Bft) O-SO 112 7,9 C 18,4 C 7,7 km/h (2 Bft)
04.05.2012 12:40 23,9 C 36 % 0,0 l/m 7,1 km/h (2 Bft) O-SO 112 7,9 C 18,4 C 14,6 km/h (3 Bft)
04.05.2012 12:41 24,0 C 36 % 0,0 l/m 7,2 km/h (2 Bft) S 180 8,0 C 18,4 C 5,3 km/h (1 Bft)
04.05.2012 12:42 24,0 C 36 % 0,0 l/m 7,2 km/h (2 Bft) S 180 8,0 C 18,4 C 5,3 km/h (1 Bft)
04.05.2012 12:43 24,3 C 36 % 0,0 l/m 6,3 km/h (2 Bft) S 180 8,3 C 18,9 C 5,0 km/h (1 Bft)
04.05.2012 12:44 24,3 C 36 % 0,0 l/m 6,3 km/h (2 Bft) S 180 8,3 C 18,9 C 5,0 km/h (1 Bft)
04.05.2012 12:45 24,4 C 34 % 0,0 l/m 5,3 km/h (1 Bft) W 270 7,5 C 19,0 C 2,3 km/h (1 Bft)
04.05.2012 12:46 24,4 C 34 % 0,0 l/m 5,3 km/h (1 Bft) W 270 7,5 C 19,0 C 2,3 km/h (1 Bft)
04.05.2012 12:47 24,5 C 35 % 0,0 l/m 4,2 km/h (1 Bft) O 90 8,0 C 19,2 C 4,2 km/h (1 Bft)
04.05.2012 12:48 24,5 C 35 % 0,0 l/m 4,2 km/h (1 Bft) O 90 8,0 C 19,2 C 4,2 km/h (1 Bft)
04.05.2012 12:49 24,7 C 33 % 0,0 l/m 4,2 km/h (1 Bft) S-SO 157 7,3 C 19,5 C 7,2 km/h (2 Bft)
04.05.2012 12:50 24,7 C 33 % 0,0 l/m 4,2 km/h (1 Bft) S-SO 157 7,3 C 19,5 C 7,2 km/h (2 Bft)
04.05.2012 12:51 24,8 C 33 % 0,0 l/m 3,4 km/h (1 Bft) N 360 7,4 C 19,6 C 2,9 km/h (1 Bft)
04.05.2012 12:52 24,8 C 33 % 0,0 l/m 3,4 km/h (1 Bft) N 360 7,4 C 19,6 C 2,9 km/h (1 Bft)
04.05.2012 12:53 24,8 C 33 % 0,0 l/m 3,4 km/h (1 Bft) SO 135 7,4 C 19,7 C 8,9 km/h (2 Bft)
04.05.2012 12:54 24,8 C 33 % 0,0 l/m 3,4 km/h (1 Bft) SO 135 7,4 C 19,7 C 8,9 km/h (2 Bft)
04.05.2012 12:55 24,9 C 35 % 0,0 l/m 3,2 km/h (1 Bft) W-NW 292 8,4 C 19,9 C 5,0 km/h (1 Bft)
04.05.2012 12:56 24,9 C 35 % 0,0 l/m 3,2 km/h (1 Bft) W-NW 292 8,4 C 19,9 C 5,0 km/h (1 Bft)
04.05.2012 12:57 24,7 C 33 % 0,0 l/m 3,9 km/h (1 Bft) S 180 7,3 C 20,0 C 2,1 km/h (1 Bft)
04.05.2012 12:58 24,7 C 33 % 0,0 l/m 3,9 km/h (1 Bft) S 180 7,3 C 20,0 C 2,1 km/h (1 Bft)
04.05.2012 12:59 24,7 C 33 % 0,0 l/m 4,7 km/h (1 Bft) S-SO 157 7,3 C 20,0 C 8,2 km/h (2 Bft)
04.05.2012 13:00 24,7 C 33 % 0,0 l/m 4,7 km/h (1 Bft) S-SO 157 7,3 C 20,0 C 8,2 km/h (2 Bft)
04.05.2012 13:01 24,1 C 32 % 0,0 l/m 4,8 km/h (1 Bft) SO 135 6,4 C 19,9 C 6,4 km/h (2 Bft)
04.05.2012 13:02 24,1 C 32 % 0,0 l/m 4,8 km/h (1 Bft) SO 135 6,4 C 19,9 C 6,4 km/h (2 Bft)
04.05.2012 13:03 23,6 C 32 % 0,0 l/m 6,0 km/h (2 Bft) O-SO 112 5,9 C 19,7 C 8,2 km/h (2 Bft)
04.05.2012 13:04 23,6 C 32 % 0,0 l/m 6,0 km/h (2 Bft) O-SO 112 5,9 C 19,7 C 8,2 km/h (2 Bft)
04.05.2012 13:05 23,2 C 33 % 0,0 l/m 6,3 km/h (2 Bft) O-SO 112 6,0 C 19,4 C 9,0 km/h (2 Bft)
04.05.2012 13:06 23,2 C 33 % 0,0 l/m 6,3 km/h (2 Bft) O-SO 112 6,0 C 19,4 C 9,0 km/h (2 Bft)
04.05.2012 13:07 23,5 C 33 % 0,0 l/m 6,3 km/h (2 Bft) SO 135 6,3 C 19,1 C 3,1 km/h (1 Bft)
04.05.2012 13:08 23,5 C 33 % 0,0 l/m 6,3 km/h (2 Bft) SO 135 6,3 C 19,1 C 3,1 km/h (1 Bft)
04.05.2012 13:09 22,8 C 34 % 0,0 l/m 5,8 km/h (2 Bft) S-SO 157 6,1 C 19,0 C 3,9 km/h (1 Bft)
04.05.2012 13:10 22,8 C 34 % 0,0 l/m 5,8 km/h (2 Bft) S-SO 157 6,1 C 19,0 C 3,9 km/h (1 Bft)
04.05.2012 13:11 22,7 C 33 % 0,0 l/m 4,8 km/h (1 Bft) SO 135 5,6 C 18,9 C 4,2 km/h (1 Bft)
04.05.2012 13:12 22,7 C 33 % 0,0 l/m 4,8 km/h (1 Bft) SO 135 5,6 C 18,9 C 4,2 km/h (1 Bft)
04.05.2012 13:13 22,3 C 33 % 0,0 l/m 4,0 km/h (1 Bft) S-SO 157 5,2 C 18,8 C 0,0 km/h (0 Bft)
04.05.2012 13:14 22,3 C 33 % 0,0 l/m 4,0 km/h (1 Bft) S-SO 157 5,2 C 18,8 C 0,0 km/h (0 Bft)
04.05.2012 13:15 23,0 C 37 % 0,0 l/m 2,7 km/h (1 Bft) NO 45 7,5 C 18,8 C 0,0 km/h (0 Bft)
04.05.2012 13:16 23,0 C 37 % 0,0 l/m 2,7 km/h (1 Bft) NO 45 7,5 C 18,8 C 0,0 km/h (0 Bft)
04.05.2012 13:17 22,6 C 35 % 0,0 l/m 2,1 km/h (1 Bft) S 180 6,4 C 19,2 C 3,9 km/h (1 Bft)
04.05.2012 13:18 22,6 C 35 % 0,0 l/m 2,1 km/h (1 Bft) S 180 6,4 C 19,2 C 3,9 km/h (1 Bft)
04.05.2012 13:19 22,4 C 34 % 0,0 l/m 2,4 km/h (1 Bft) O-SO 112 5,8 C 19,4 C 4,8 km/h (1 Bft)
04.05.2012 13:20 22,4 C 34 % 0,0 l/m 2,4 km/h (1 Bft) O-SO 112 5,8 C 19,4 C 4,8 km/h (1 Bft)
04.05.2012 13:21 22,3 C 35 % 0,0 l/m 2,4 km/h (1 Bft) SO 135 6,1 C 19,3 C 3,1 km/h (1 Bft)
04.05.2012 13:22 22,3 C 35 % 0,0 l/m 2,4 km/h (1 Bft) SO 135 6,1 C 19,3 C 3,1 km/h (1 Bft)
04.05.2012 13:23 21,9 C 36 % 0,0 l/m 1,9 km/h (1 Bft) O-NO 67 6,1 C 19,2 C 0,0 km/h (0 Bft)
04.05.2012 13:24 21,9 C 36 % 0,0 l/m 1,9 km/h (1 Bft) O-NO 67 6,1 C 19,2 C 0,0 km/h (0 Bft)
04.05.2012 13:25 21,6 C 38 % 0,0 l/m 1,8 km/h (1 Bft) O-SO 112 6,7 C 19,2 C 0,0 km/h (0 Bft)
04.05.2012 13:26 21,6 C 38 % 0,0 l/m 1,8 km/h (1 Bft) O-SO 112 6,7 C 19,2 C 0,0 km/h (0 Bft)
04.05.2012 13:27 21,5 C 38 % 0,0 l/m 2,3 km/h (1 Bft) SO 135 6,6 C 19,4 C 4,8 km/h (1 Bft)
04.05.2012 13:28 21,5 C 38 % 0,0 l/m 2,3 km/h (1 Bft) SO 135 6,6 C 19,4 C 4,8 km/h (1 Bft)
04.05.2012 13:29 21,5 C 39 % 0,0 l/m 1,8 km/h (1 Bft) SO 135 7,0 C 19,4 C 2,7 km/h (1 Bft)
04.05.2012 13:30 21,5 C 39 % 0,0 l/m 1,8 km/h (1 Bft) SO 135 7,0 C 19,4 C 2,7 km/h (1 Bft)
04.05.2012 13:31 21,5 C 39 % 0,0 l/m 1,4 km/h (1 Bft) S-SO 157 7,0 C 19,4 C 3,1 km/h (1 Bft)
04.05.2012 13:32 21,5 C 39 % 0,0 l/m 1,4 km/h (1 Bft) S-SO 157 7,0 C 19,4 C 3,1 km/h (1 Bft)
04.05.2012 13:33 21,4 C 39 % 0,0 l/m 1,4 km/h (1 Bft) O-SO 112 6,9 C 19,4 C 0,0 km/h (0 Bft)
04.05.2012 13:34 21,4 C 39 % 0,0 l/m 1,4 km/h (1 Bft) O-SO 112 6,9 C 19,4 C 0,0 km/h (0 Bft)
04.05.2012 13:35 21,5 C 41 % 0,0 l/m 1,6 km/h (1 Bft) O-SO 112 7,7 C 19,4 C 4,8 km/h (1 Bft)
04.05.2012 13:36 21,5 C 41 % 0,0 l/m 1,6 km/h (1 Bft) O-SO 112 7,7 C 19,4 C 4,8 km/h (1 Bft)
04.05.2012 13:37 21,6 C 39 % 0,0 l/m 2,4 km/h (1 Bft) O 90 7,0 C 19,4 C 4,3 km/h (1 Bft)
04.05.2012 13:38 21,6 C 39 % 0,0 l/m 2,4 km/h (1 Bft) O 90 7,0 C 19,4 C 4,3 km/h (1 Bft)
04.05.2012 13:39 21,5 C 36 % 0,0 l/m 2,7 km/h (1 Bft) N 360 5,8 C 19,3 C 4,7 km/h (1 Bft)
04.05.2012 13:40 21,5 C 36 % 0,0 l/m 2,7 km/h (1 Bft) N 360 5,8 C 19,3 C 4,7 km/h (1 Bft)
04.05.2012 13:41 21,3 C 36 % 0,0 l/m 2,7 km/h (1 Bft) S-SO 157 5,6 C 19,2 C 2,9 km/h (1 Bft)
04.05.2012 13:42 21,3 C 36 % 0,0 l/m 2,7 km/h (1 Bft) S-SO 157 5,6 C 19,2 C 2,9 km/h (1 Bft)
04.05.2012 13:43 21,2 C 39 % 0,0 l/m 2,4 km/h (1 Bft) O-SO 112 6,7 C 19,1 C 1,8 km/h (1 Bft)
04.05.2012 13:44 21,2 C 39 % 0,0 l/m 2,4 km/h (1 Bft) O-SO 112 6,7 C 19,1 C 1,8 km/h (1 Bft)
04.05.2012 13:45 21,0 C 38 % 0,0 l/m 2,6 km/h (1 Bft) NO 45 6,1 C 19,1 C 0,0 km/h (0 Bft)
04.05.2012 13:46 21,0 C 38 % 0,0 l/m 2,6 km/h (1 Bft) NO 45 6,1 C 19,1 C 0,0 km/h (0 Bft)
04.05.2012 13:47 20,7 C 40 % 0,0 l/m 2,1 km/h (1 Bft) N 360 6,6 C 19,1 C 2,4 km/h (1 Bft)
04.05.2012 13:48 20,7 C 40 % 0,0 l/m 2,1 km/h (1 Bft) N 360 6,6 C 19,1 C 2,4 km/h (1 Bft)
04.05.2012 13:49 20,4 C 41 % 0,0 l/m 1,4 km/h (1 Bft) N-NW 337 6,7 C 19,1 C 1,9 km/h (1 Bft)
04.05.2012 13:50 20,4 C 41 % 0,0 l/m 1,4 km/h (1 Bft) N-NW 337 6,7 C 19,1 C 1,9 km/h (1 Bft)
04.05.2012 13:51 20,4 C 41 % 0,0 l/m 1,1 km/h (1 Bft) NW 315 6,7 C 19,0 C 1,6 km/h (1 Bft)
04.05.2012 13:52 20,4 C 41 % 0,0 l/m 1,1 km/h (1 Bft) NW 315 6,7 C 19,0 C 1,6 km/h (1 Bft)
04.05.2012 13:53 20,4 C 38 % 0,0 l/m 1,0 km/h (0 Bft) NO 45 5,6 C 19,0 C 0,0 km/h (0 Bft)
04.05.2012 13:54 20,4 C 38 % 0,0 l/m 1,0 km/h (0 Bft) NO 45 5,6 C 19,0 C 0,0 km/h (0 Bft)
04.05.2012 13:55 20,4 C 37 % 0,0 l/m 0,8 km/h (0 Bft) N-NO 22 5,2 C 19,1 C 0,0 km/h (0 Bft)
04.05.2012 13:56 20,4 C 37 % 0,0 l/m 0,8 km/h (0 Bft) N-NO 22 5,2 C 19,1 C 0,0 km/h (0 Bft)
04.05.2012 13:57 20,3 C 38 % 0,0 l/m 0,8 km/h (0 Bft) N-NO 22 5,5 C 19,2 C 0,0 km/h (0 Bft)
04.05.2012 13:58 20,3 C 38 % 0,0 l/m 0,8 km/h (0 Bft) N-NO 22 5,5 C 19,2 C 0,0 km/h (0 Bft)
04.05.2012 13:59 20,4 C 37 % 0,0 l/m 0,5 km/h (0 Bft) W-SW 247 5,2 C 19,4 C 0,0 km/h (0 Bft)
04.05.2012 14:00 20,4 C 37 % 0,0 l/m 0,5 km/h (0 Bft) W-SW 247 5,2 C 19,4 C 0,0 km/h (0 Bft)
04.05.2012 14:01 20,7 C 39 % 0,0 l/m 0,2 km/h (0 Bft) O 90 6,2 C 19,6 C 0,0 km/h (0 Bft)
04.05.2012 14:02 20,7 C 39 % 0,0 l/m 0,2 km/h (0 Bft) O 90 6,2 C 19,6 C 0,0 km/h (0 Bft)
04.05.2012 14:03 20,8 C 37 % 0,0 l/m 0,0 km/h (0 Bft) N-NW 337 5,6 C 19,7 C 0,0 km/h (0 Bft)
04.05.2012 14:04 20,8 C 37 % 0,0 l/m 0,0 km/h (0 Bft) N-NW 337 5,6 C 19,7 C 0,0 km/h (0 Bft)
04.05.2012 14:05 20,9 C 38 % 0,0 l/m 0,2 km/h (0 Bft) W-SW 247 6,0 C 19,8 C 2,1 km/h (1 Bft)
04.05.2012 14:06 20,9 C 38 % 0,0 l/m 0,2 km/h (0 Bft) W-SW 247 6,0 C 19,8 C 2,1 km/h (1 Bft)
04.05.2012 14:07 20,8 C 37 % 0,0 l/m 0,3 km/h (0 Bft) W-NW 292 5,6 C 19,9 C 0,0 km/h (0 Bft)
04.05.2012 14:08 20,8 C 37 % 0,0 l/m 0,3 km/h (0 Bft) W-NW 292 5,6 C 19,9 C 0,0 km/h (0 Bft)
04.05.2012 14:09 21,0 C 39 % 0,0 l/m 0,3 km/h (0 Bft) N 360 6,5 C 20,1 C 0,0 km/h (0 Bft)
04.05.2012 14:10 21,0 C 39 % 0,0 l/m 0,3 km/h (0 Bft) N 360 6,5 C 20,1 C 0,0 km/h (0 Bft)
04.05.2012 14:11 21,7 C 38 % 0,0 l/m 0,3 km/h (0 Bft) S-SW 202 6,8 C 20,4 C 0,0 km/h (0 Bft)
04.05.2012 14:12 21,7 C 38 % 0,0 l/m 0,3 km/h (0 Bft) S-SW 202 6,8 C 20,4 C 0,0 km/h (0 Bft)
04.05.2012 14:13 22,5 C 34 % 0,0 l/m 0,8 km/h (0 Bft) W-NW 292 5,9 C 20,9 C 6,6 km/h (2 Bft)
04.05.2012 14:14 22,5 C 34 % 0,0 l/m 0,8 km/h (0 Bft) W-NW 292 5,9 C 20,9 C 6,6 km/h (2 Bft)
04.05.2012 14:15 22,5 C 32 % 0,0 l/m 1,9 km/h (1 Bft) W-NW 292 5,0 C 21,7 C 6,1 km/h (2 Bft)
04.05.2012 14:16 22,5 C 32 % 0,0 l/m 1,9 km/h (1 Bft) W-NW 292 5,0 C 21,7 C 6,1 km/h (2 Bft)
04.05.2012 14:17 21,9 C 34 % 0,0 l/m 2,1 km/h (1 Bft) NW 315 5,3 C 22,0 C 3,7 km/h (1 Bft)
04.05.2012 14:18 21,9 C 34 % 0,0 l/m 2,1 km/h (1 Bft) NW 315 5,3 C 22,0 C 3,7 km/h (1 Bft)
04.05.2012 14:19 21,7 C 34 % 0,0 l/m 2,4 km/h (1 Bft) S 180 5,2 C 22,2 C 1,8 km/h (1 Bft)
04.05.2012 14:20 21,7 C 34 % 0,0 l/m 2,4 km/h (1 Bft) S 180 5,2 C 22,2 C 1,8 km/h (1 Bft)
04.05.2012 14:21 21,4 C 33 % 0,0 l/m 3,1 km/h (1 Bft) W-SW 247 4,5 C 22,0 C 6,3 km/h (2 Bft)
04.05.2012 14:22 21,4 C 33 % 0,0 l/m 3,1 km/h (1 Bft) W-SW 247 4,5 C 22,0 C 6,3 km/h (2 Bft)
04.05.2012 14:23 21,1 C 33 % 0,0 l/m 3,7 km/h (1 Bft) W-SW 247 4,2 C 21,6 C 5,1 km/h (1 Bft)
04.05.2012 14:24 21,1 C 33 % 0,0 l/m 3,7 km/h (1 Bft) W-SW 247 4,2 C 21,6 C 5,1 km/h (1 Bft)
04.05.2012 14:25 21,0 C 34 % 0,0 l/m 3,1 km/h (1 Bft) O-SO 112 4,5 C 21,0 C 2,1 km/h (1 Bft)
04.05.2012 14:26 21,0 C 34 % 0,0 l/m 3,1 km/h (1 Bft) O-SO 112 4,5 C 21,0 C 2,1 km/h (1 Bft)
04.05.2012 14:27 20,8 C 35 % 0,0 l/m 2,3 km/h (1 Bft) N 360 4,8 C 20,8 C 1,9 km/h (1 Bft)
04.05.2012 14:28 20,8 C 35 % 0,0 l/m 2,3 km/h (1 Bft) N 360 4,8 C 20,8 C 1,9 km/h (1 Bft)
04.05.2012 14:29 20,8 C 37 % 0,0 l/m 2,1 km/h (1 Bft) NO 45 5,6 C 20,7 C 2,3 km/h (1 Bft)
04.05.2012 14:30 20,8 C 37 % 0,0 l/m 2,1 km/h (1 Bft) NO 45 5,6 C 20,7 C 2,3 km/h (1 Bft)
04.05.2012 14:31 21,5 C 35 % 0,0 l/m 2,3 km/h (1 Bft) N-NW 337 5,4 C 20,4 C 1,8 km/h (1 Bft)
04.05.2012 14:32 21,5 C 35 % 0,0 l/m 2,3 km/h (1 Bft) N-NW 337 5,4 C 20,4 C 1,8 km/h (1 Bft)
04.05.2012 14:33 22,1 C 35 % 0,0 l/m 1,8 km/h (1 Bft) W-NW 292 5,9 C 20,8 C 2,6 km/h (1 Bft)
04.05.2012 14:34 22,1 C 35 % 0,0 l/m 1,8 km/h (1 Bft) W-NW 292 5,9 C 20,8 C 2,6 km/h (1 Bft)
04.05.2012 14:35 21,9 C 33 % 0,0 l/m 2,1 km/h (1 Bft) W-NW 292 4,9 C 21,4 C 5,0 km/h (1 Bft)
04.05.2012 14:36 21,9 C 33 % 0,0 l/m 2,1 km/h (1 Bft) W-NW 292 4,9 C 21,4 C 5,0 km/h (1 Bft)
04.05.2012 14:37 21,6 C 33 % 0,0 l/m 2,9 km/h (1 Bft) W-SW 247 4,6 C 21,8 C 5,1 km/h (1 Bft)
04.05.2012 14:38 21,6 C 33 % 0,0 l/m 2,9 km/h (1 Bft) W-SW 247 4,6 C 21,8 C 5,1 km/h (1 Bft)
04.05.2012 14:39 21,5 C 34 % 0,0 l/m 3,1 km/h (1 Bft) N 360 5,0 C 21,7 C 3,1 km/h (1 Bft)
04.05.2012 14:40 21,5 C 34 % 0,0 l/m 3,1 km/h (1 Bft) N 360 5,0 C 21,7 C 3,1 km/h (1 Bft)
04.05.2012 14:41 21,2 C 34 % 0,0 l/m 2,9 km/h (1 Bft) W 270 4,7 C 21,4 C 4,0 km/h (1 Bft)
04.05.2012 14:42 21,2 C 34 % 0,0 l/m 2,9 km/h (1 Bft) W 270 4,7 C 21,4 C 4,0 km/h (1 Bft)
04.05.2012 14:43 21,1 C 34 % 0,0 l/m 3,1 km/h (1 Bft) W-SW 247 4,6 C 21,1 C 3,4 km/h (1 Bft)
04.05.2012 14:44 21,1 C 34 % 0,0 l/m 3,1 km/h (1 Bft) W-SW 247 4,6 C 21,1 C 3,4 km/h (1 Bft)
04.05.2012 14:45 20,8 C 33 % 0,0 l/m 3,1 km/h (1 Bft) W 270 3,9 C 20,7 C 2,7 km/h (1 Bft)
04.05.2012 14:46 20,8 C 33 % 0,0 l/m 3,1 km/h (1 Bft) W 270 3,9 C 20,7 C 2,7 km/h (1 Bft)
04.05.2012 14:47 20,8 C 34 % 0,0 l/m 2,9 km/h (1 Bft) NO 45 4,4 C 20,4 C 2,4 km/h (1 Bft)
04.05.2012 14:48 20,8 C 34 % 0,0 l/m 2,9 km/h (1 Bft) NO 45 4,4 C 20,4 C 2,4 km/h (1 Bft)
04.05.2012 14:49 20,8 C 34 % 0,0 l/m 2,6 km/h (1 Bft) W-NW 292 4,4 C 20,3 C 4,2 km/h (1 Bft)
04.05.2012 14:50 20,8 C 34 % 0,0 l/m 2,6 km/h (1 Bft) W-NW 292 4,4 C 20,3 C 4,2 km/h (1 Bft)
04.05.2012 14:51 20,7 C 35 % 0,0 l/m 3,2 km/h (1 Bft) W 270 4,7 C 20,2 C 5,3 km/h (1 Bft)
04.05.2012 14:52 20,7 C 35 % 0,0 l/m 3,2 km/h (1 Bft) W 270 4,7 C 20,2 C 5,3 km/h (1 Bft)
04.05.2012 14:53 20,7 C 36 % 0,0 l/m 3,4 km/h (1 Bft) W-SW 247 5,1 C 20,0 C 3,7 km/h (1 Bft)
04.05.2012 14:54 20,7 C 36 % 0,0 l/m 3,4 km/h (1 Bft) W-SW 247 5,1 C 20,0 C 3,7 km/h (1 Bft)
04.05.2012 14:55 20,6 C 35 % 0,0 l/m 3,4 km/h (1 Bft) S-SW 202 4,6 C 19,9 C 2,4 km/h (1 Bft)
04.05.2012 14:56 20,6 C 35 % 0,0 l/m 3,4 km/h (1 Bft) S-SW 202 4,6 C 19,9 C 2,4 km/h (1 Bft)
04.05.2012 14:57 20,7 C 35 % 0,0 l/m 3,1 km/h (1 Bft) W-SW 247 4,7 C 19,8 C 2,4 km/h (1 Bft)
04.05.2012 14:58 20,7 C 35 % 0,0 l/m 3,1 km/h (1 Bft) W-SW 247 4,7 C 19,8 C 2,4 km/h (1 Bft)
04.05.2012 14:59 20,4 C 35 % 0,0 l/m 3,9 km/h (1 Bft) W 270 4,4 C 19,8 C 3,7 km/h (1 Bft)
04.05.2012 15:00 20,4 C 35 % 0,0 l/m 3,9 km/h (1 Bft) W 270 4,4 C 19,8 C 3,7 km/h (1 Bft)
04.05.2012 15:01 20,2 C 34 % 0,0 l/m 3,7 km/h (1 Bft) W-SW 247 3,8 C 19,6 C 3,2 km/h (1 Bft)
04.05.2012 15:02 20,2 C 34 % 0,0 l/m 3,7 km/h (1 Bft) W-SW 247 3,8 C 19,6 C 3,2 km/h (1 Bft)
04.05.2012 15:03 20,4 C 35 % 0,0 l/m 3,2 km/h (1 Bft) N 360 4,4 C 19,5 C 0,0 km/h (0 Bft)
04.05.2012 15:04 20,4 C 35 % 0,0 l/m 3,2 km/h (1 Bft) N 360 4,4 C 19,5 C 0,0 km/h (0 Bft)
04.05.2012 15:05 21,2 C 35 % 0,0 l/m 2,9 km/h (1 Bft) W-SW 247 5,1 C 19,6 C 2,4 km/h (1 Bft)
04.05.2012 15:06 21,2 C 35 % 0,0 l/m 2,9 km/h (1 Bft) W-SW 247 5,1 C 19,6 C 2,4 km/h (1 Bft)
04.05.2012 15:07 21,1 C 36 % 0,0 l/m 3,1 km/h (1 Bft) W 270 5,4 C 20,2 C 2,3 km/h (1 Bft)
04.05.2012 15:08 21,1 C 36 % 0,0 l/m 3,1 km/h (1 Bft) W 270 5,4 C 20,2 C 2,3 km/h (1 Bft)
04.05.2012 15:09 21,5 C 35 % 0,0 l/m 2,7 km/h (1 Bft) W-NW 292 5,4 C 20,8 C 3,7 km/h (1 Bft)
04.05.2012 15:10 21,5 C 35 % 0,0 l/m 2,7 km/h (1 Bft) W-NW 292 5,4 C 20,8 C 3,7 km/h (1 Bft)
04.05.2012 15:11 21,2 C 33 % 0,0 l/m 2,6 km/h (1 Bft) N-NO 22 4,3 C 21,3 C 5,5 km/h (1 Bft)
04.05.2012 15:12 21,2 C 33 % 0,0 l/m 2,6 km/h (1 Bft) N-NO 22 4,3 C 21,3 C 5,5 km/h (1 Bft)
04.05.2012 15:13 21,0 C 34 % 0,0 l/m 2,3 km/h (1 Bft) W 270 4,5 C 21,3 C 2,3 km/h (1 Bft)
04.05.2012 15:14 21,0 C 34 % 0,0 l/m 2,3 km/h (1 Bft) W 270 4,5 C 21,3 C 2,3 km/h (1 Bft)
04.05.2012 15:15 20,6 C 33 % 0,0 l/m 2,9 km/h (1 Bft) W-NW 292 3,8 C 21,1 C 4,5 km/h (1 Bft)
04.05.2012 15:16 20,6 C 33 % 0,0 l/m 2,9 km/h (1 Bft) W-NW 292 3,8 C 21,1 C 4,5 km/h (1 Bft)
04.05.2012 15:17 20,5 C 33 % 0,0 l/m 3,5 km/h (1 Bft) W-SW 247 3,7 C 20,7 C 7,7 km/h (2 Bft)
04.05.2012 15:18 20,5 C 33 % 0,0 l/m 3,5 km/h (1 Bft) W-SW 247 3,7 C 20,7 C 7,7 km/h (2 Bft)
04.05.2012 15:19 20,4 C 34 % 0,0 l/m 3,5 km/h (1 Bft) N-NW 337 4,0 C 20,4 C 2,9 km/h (1 Bft)
04.05.2012 15:20 20,4 C 34 % 0,0 l/m 3,5 km/h (1 Bft) N-NW 337 4,0 C 20,4 C 2,9 km/h (1 Bft)
04.05.2012 15:21 20,3 C 35 % 0,0 l/m 3,4 km/h (1 Bft) NW 315 4,3 C 20,2 C 3,2 km/h (1 Bft)
04.05.2012 15:22 20,3 C 35 % 0,0 l/m 3,4 km/h (1 Bft) NW 315 4,3 C 20,2 C 3,2 km/h (1 Bft)
04.05.2012 15:23 20,3 C 35 % 0,0 l/m 3,5 km/h (1 Bft) W 270 4,3 C 20,0 C 3,7 km/h (1 Bft)
04.05.2012 15:24 20,3 C 35 % 0,0 l/m 3,5 km/h (1 Bft) W 270 4,3 C 20,0 C 3,7 km/h (1 Bft)
04.05.2012 15:25 20,3 C 35 % 0,0 l/m 3,7 km/h (1 Bft) W-SW 247 4,3 C 19,9 C 3,7 km/h (1 Bft)
04.05.2012 15:26 20,3 C 35 % 0,0 l/m 3,7 km/h (1 Bft) W-SW 247 4,3 C 19,9 C 3,7 km/h (1 Bft)
04.05.2012 15:27 20,4 C 35 % 0,0 l/m 3,2 km/h (1 Bft) NW 315 4,4 C 19,8 C 2,6 km/h (1 Bft)
04.05.2012 15:28 20,4 C 35 % 0,0 l/m 3,2 km/h (1 Bft) NW 315 4,4 C 19,8 C 2,6 km/h (1 Bft)
04.05.2012 15:29 20,3 C 36 % 0,0 l/m 2,9 km/h (1 Bft) W 270 4,7 C 19,9 C 4,2 km/h (1 Bft)
04.05.2012 15:30 20,3 C 36 % 0,0 l/m 2,9 km/h (1 Bft) W 270 4,7 C 19,9 C 4,2 km/h (1 Bft)
04.05.2012 15:31 20,3 C 36 % 0,0 l/m 2,9 km/h (1 Bft) W-NW 292 4,7 C 19,9 C 3,2 km/h (1 Bft)
04.05.2012 15:32 20,3 C 36 % 0,0 l/m 2,9 km/h (1 Bft) W-NW 292 4,7 C 19,9 C 3,2 km/h (1 Bft)
04.05.2012 15:33 20,3 C 35 % 0,0 l/m 2,9 km/h (1 Bft) NW 315 4,3 C 19,8 C 4,0 km/h (1 Bft)
04.05.2012 15:34 20,3 C 35 % 0,0 l/m 2,9 km/h (1 Bft) NW 315 4,3 C 19,8 C 4,0 km/h (1 Bft)
04.05.2012 15:35 20,1 C 35 % 0,0 l/m 3,4 km/h (1 Bft) W 270 4,2 C 19,8 C 6,3 km/h (2 Bft)
04.05.2012 15:36 20,1 C 35 % 0,0 l/m 3,4 km/h (1 Bft) W 270 4,2 C 19,8 C 6,3 km/h (2 Bft)
04.05.2012 15:37 20,0 C 37 % 0,0 l/m 3,2 km/h (1 Bft) NO 45 4,9 C 19,6 C 0,0 km/h (0 Bft)
04.05.2012 15:38 20,0 C 37 % 0,0 l/m 3,2 km/h (1 Bft) NO 45 4,9 C 19,6 C 0,0 km/h (0 Bft)
04.05.2012 15:39 20,0 C 38 % 0,0 l/m 2,7 km/h (1 Bft) N-NO 22 5,2 C 19,5 C 1,6 km/h (1 Bft)
04.05.2012 15:40 20,0 C 38 % 0,0 l/m 2,7 km/h (1 Bft) N-NO 22 5,2 C 19,5 C 1,6 km/h (1 Bft)
04.05.2012 15:41 20,0 C 40 % 0,0 l/m 2,4 km/h (1 Bft) N-NW 337 6,0 C 19,4 C 1,9 km/h (1 Bft)
04.05.2012 15:42 20,0 C 40 % 0,0 l/m 2,4 km/h (1 Bft) N-NW 337 6,0 C 19,4 C 1,9 km/h (1 Bft)
04.05.2012 15:43 20,0 C 40 % 0,0 l/m 2,1 km/h (1 Bft) NO 45 6,0 C 19,4 C 0,0 km/h (0 Bft)
04.05.2012 15:44 20,0 C 40 % 0,0 l/m 2,1 km/h (1 Bft) NO 45 6,0 C 19,4 C 0,0 km/h (0 Bft)
04.05.2012 15:45 20,1 C 40 % 0,0 l/m 1,1 km/h (1 Bft) N-NO 22 6,1 C 19,5 C 1,6 km/h (1 Bft)
04.05.2012 15:46 20,1 C 40 % 0,0 l/m 1,1 km/h (1 Bft) N-NO 22 6,1 C 19,5 C 1,6 km/h (1 Bft)
04.05.2012 15:47 20,2 C 42 % 0,0 l/m 0,5 km/h (0 Bft) N 360 6,9 C 19,7 C 0,0 km/h (0 Bft)
04.05.2012 15:48 20,2 C 42 % 0,0 l/m 0,5 km/h (0 Bft) N 360 6,9 C 19,7 C 0,0 km/h (0 Bft)
04.05.2012 15:49 20,7 C 40 % 0,0 l/m 0,5 km/h (0 Bft) N-NW 337 6,6 C 20,2 C 2,3 km/h (1 Bft)
04.05.2012 15:50 20,7 C 40 % 0,0 l/m 0,5 km/h (0 Bft) N-NW 337 6,6 C 20,2 C 2,3 km/h (1 Bft)
04.05.2012 15:51 20,6 C 36 % 0,0 l/m 1,1 km/h (1 Bft) W 270 5,0 C 20,9 C 4,3 km/h (1 Bft)
04.05.2012 15:52 20,6 C 36 % 0,0 l/m 1,1 km/h (1 Bft) W 270 5,0 C 20,9 C 4,3 km/h (1 Bft)
04.05.2012 15:53 20,5 C 35 % 0,0 l/m 1,4 km/h (1 Bft) W-NW 292 4,5 C 20,9 C 4,3 km/h (1 Bft)
04.05.2012 15:54 20,5 C 35 % 0,0 l/m 1,4 km/h (1 Bft) W-NW 292 4,5 C 20,9 C 4,3 km/h (1 Bft)
04.05.2012 15:55 20,4 C 36 % 0,0 l/m 1,8 km/h (1 Bft) N 360 4,8 C 20,8 C 1,9 km/h (1 Bft)
04.05.2012 15:56 20,4 C 36 % 0,0 l/m 1,8 km/h (1 Bft) N 360 4,8 C 20,8 C 1,9 km/h (1 Bft)
04.05.2012 15:57 20,4 C 37 % 0,0 l/m 2,1 km/h (1 Bft) W-NW 292 5,2 C 20,7 C 2,7 km/h (1 Bft)
04.05.2012 15:58 20,4 C 37 % 0,0 l/m 2,1 km/h (1 Bft) W-NW 292 5,2 C 20,7 C 2,7 km/h (1 Bft)
04.05.2012 15:59 20,3 C 37 % 0,0 l/m 2,3 km/h (1 Bft) N 360 5,1 C 20,6 C 2,1 km/h (1 Bft)
04.05.2012 16:00 20,3 C 37 % 0,0 l/m 2,3 km/h (1 Bft) N 360 5,1 C 20,6 C 2,1 km/h (1 Bft)
04.05.2012 16:01 20,3 C 35 % 0,0 l/m 2,4 km/h (1 Bft) W-NW 292 4,3 C 20,4 C 4,8 km/h (1 Bft)
04.05.2012 16:02 20,3 C 35 % 0,0 l/m 2,4 km/h (1 Bft) W-NW 292 4,3 C 20,4 C 4,8 km/h (1 Bft)
04.05.2012 16:03 20,2 C 35 % 0,0 l/m 2,4 km/h (1 Bft) W-NW 292 4,2 C 20,3 C 3,7 km/h (1 Bft)
04.05.2012 16:04 20,2 C 35 % 0,0 l/m 2,4 km/h (1 Bft) W-NW 292 4,2 C 20,3 C 3,7 km/h (1 Bft)
04.05.2012 16:05 20,1 C 35 % 0,0 l/m 1,9 km/h (1 Bft) NW 315 4,2 C 20,2 C 0,0 km/h (0 Bft)
04.05.2012 16:06 20,1 C 35 % 0,0 l/m 1,9 km/h (1 Bft) NW 315 4,2 C 20,2 C 0,0 km/h (0 Bft)
04.05.2012 16:07 20,1 C 39 % 0,0 l/m 1,6 km/h (1 Bft) N-NO 22 5,7 C 20,1 C 0,0 km/h (0 Bft)
04.05.2012 16:08 20,1 C 39 % 0,0 l/m 1,6 km/h (1 Bft) N-NO 22 5,7 C 20,1 C 0,0 km/h (0 Bft)
04.05.2012 16:09 20,0 C 37 % 0,0 l/m 1,6 km/h (1 Bft) N-NO 22 4,9 C 20,1 C 0,0 km/h (0 Bft)
04.05.2012 16:10 20,0 C 37 % 0,0 l/m 1,6 km/h (1 Bft) N-NO 22 4,9 C 20,1 C 0,0 km/h (0 Bft)
04.05.2012 16:11 20,1 C 37 % 0,0 l/m 1,1 km/h (1 Bft) N-NW 337 5,0 C 20,2 C 0,0 km/h (0 Bft)
04.05.2012 16:12 20,1 C 37 % 0,0 l/m 1,1 km/h (1 Bft) N-NW 337 5,0 C 20,2 C 0,0 km/h (0 Bft)
04.05.2012 16:13 20,2 C 37 % 0,0 l/m 0,6 km/h (0 Bft) N-NO 22 5,0 C 20,2 C 0,0 km/h (0 Bft)
04.05.2012 16:14 20,2 C 37 % 0,0 l/m 0,6 km/h (0 Bft) N-NO 22 5,0 C 20,2 C 0,0 km/h (0 Bft)
04.05.2012 16:15 20,1 C 39 % 0,0 l/m 0,3 km/h (0 Bft) NO 45 5,7 C 20,2 C 1,6 km/h (1 Bft)
04.05.2012 16:16 20,1 C 39 % 0,0 l/m 0,3 km/h (0 Bft) NO 45 5,7 C 20,2 C 1,6 km/h (1 Bft)
04.05.2012 16:17 20,1 C 41 % 0,0 l/m 0,5 km/h (0 Bft) N-NO 22 6,4 C 20,1 C 1,6 km/h (1 Bft)
04.05.2012 16:18 20,1 C 41 % 0,0 l/m 0,5 km/h (0 Bft) N-NO 22 6,4 C 20,1 C 1,6 km/h (1 Bft)
04.05.2012 16:19 20,1 C 40 % 0,0 l/m 0,5 km/h (0 Bft) N-NO 22 6,1 C 20,1 C 0,0 km/h (0 Bft)
04.05.2012 16:20 20,1 C 40 % 0,0 l/m 0,5 km/h (0 Bft) N-NO 22 6,1 C 20,1 C 0,0 km/h (0 Bft)
04.05.2012 16:21 20,0 C 40 % 0,0 l/m 0,5 km/h (0 Bft) N-NO 22 6,0 C 20,1 C 0,0 km/h (0 Bft)
04.05.2012 16:22 20,0 C 40 % 0,0 l/m 0,5 km/h (0 Bft) N-NO 22 6,0 C 20,1 C 0,0 km/h (0 Bft)
04.05.2012 16:23 20,1 C 40 % 0,0 l/m 0,8 km/h (0 Bft) W-NW 292 6,1 C 20,1 C 2,7 km/h (1 Bft)
04.05.2012 16:24 20,1 C 40 % 0,0 l/m 0,8 km/h (0 Bft) W-NW 292 6,1 C 20,1 C 2,7 km/h (1 Bft)
04.05.2012 16:25 20,2 C 42 % 0,0 l/m 1,0 km/h (0 Bft) NW 315 6,9 C 20,2 C 1,9 km/h (1 Bft)
04.05.2012 16:26 20,2 C 42 % 0,0 l/m 1,0 km/h (0 Bft) NW 315 6,9 C 20,2 C 1,9 km/h (1 Bft)
04.05.2012 16:27 20,2 C 42 % 0,0 l/m 1,1 km/h (1 Bft) W-NW 292 6,9 C 20,2 C 3,5 km/h (1 Bft)
04.05.2012 16:28 20,2 C 42 % 0,0 l/m 1,1 km/h (1 Bft) W-NW 292 6,9 C 20,2 C 3,5 km/h (1 Bft)
04.05.2012 16:29 20,1 C 41 % 0,0 l/m 1,3 km/h (1 Bft) S 180 6,4 C 20,2 C 2,9 km/h (1 Bft)
04.05.2012 16:30 20,1 C 41 % 0,0 l/m 1,3 km/h (1 Bft) S 180 6,4 C 20,2 C 2,9 km/h (1 Bft)
04.05.2012 16:31 20,3 C 42 % 0,0 l/m 1,6 km/h (1 Bft) W 270 7,0 C 20,2 C 2,3 km/h (1 Bft)
04.05.2012 16:32 20,3 C 42 % 0,0 l/m 1,6 km/h (1 Bft) W 270 7,0 C 20,2 C 2,3 km/h (1 Bft)
04.05.2012 16:33 20,3 C 41 % 0,0 l/m 1,6 km/h (1 Bft) N 360 6,6 C 20,3 C 1,9 km/h (1 Bft)
04.05.2012 16:34 20,3 C 41 % 0,0 l/m 1,6 km/h (1 Bft) N 360 6,6 C 20,3 C 1,9 km/h (1 Bft)
04.05.2012 16:35 20,3 C 37 % 0,0 l/m 1,8 km/h (1 Bft) N-NW 337 5,1 C 20,4 C 3,4 km/h (1 Bft)
04.05.2012 16:36 20,3 C 37 % 0,0 l/m 1,8 km/h (1 Bft) N-NW 337 5,1 C 20,4 C 3,4 km/h (1 Bft)
04.05.2012 16:37 20,2 C 40 % 0,0 l/m 1,6 km/h (1 Bft) NO 45 6,2 C 20,4 C 1,9 km/h (1 Bft)
04.05.2012 16:38 20,2 C 40 % 0,0 l/m 1,6 km/h (1 Bft) NO 45 6,2 C 20,4 C 1,9 km/h (1 Bft)
04.05.2012 16:39 20,2 C 40 % 0,0 l/m 1,6 km/h (1 Bft) N-NW 337 6,2 C 20,4 C 1,6 km/h (1 Bft)
04.05.2012 16:40 20,2 C 40 % 0,0 l/m 1,6 km/h (1 Bft) N-NW 337 6,2 C 20,4 C 1,6 km/h (1 Bft)
04.05.2012 16:41 20,3 C 37 % 0,0 l/m 1,6 km/h (1 Bft) W-NW 292 5,1 C 20,4 C 3,1 km/h (1 Bft)
04.05.2012 16:42 20,3 C 37 % 0,0 l/m 1,6 km/h (1 Bft) W-NW 292 5,1 C 20,4 C 3,1 km/h (1 Bft)
04.05.2012 16:43 20,3 C 38 % 0,0 l/m 1,8 km/h (1 Bft) W-NW 292 5,5 C 20,3 C 2,4 km/h (1 Bft)
04.05.2012 16:44 20,3 C 38 % 0,0 l/m 1,8 km/h (1 Bft) W-NW 292 5,5 C 20,3 C 2,4 km/h (1 Bft)
04.05.2012 16:45 20,3 C 38 % 0,0 l/m 2,1 km/h (1 Bft) W-NW 292 5,5 C 20,3 C 4,8 km/h (1 Bft)
04.05.2012 16:46 20,3 C 38 % 0,0 l/m 2,1 km/h (1 Bft) W-NW 292 5,5 C 20,3 C 4,8 km/h (1 Bft)
04.05.2012 16:47 20,2 C 40 % 0,0 l/m 1,9 km/h (1 Bft) N-NW 337 6,2 C 20,1 C 0,0 km/h (0 Bft)
04.05.2012 16:48 20,2 C 40 % 0,0 l/m 1,9 km/h (1 Bft) N-NW 337 6,2 C 20,1 C 0,0 km/h (0 Bft)
04.05.2012 16:49 20,2 C 40 % 0,0 l/m 2,3 km/h (1 Bft) NW 315 6,2 C 20,1 C 2,4 km/h (1 Bft)
04.05.2012 16:50 20,2 C 40 % 0,0 l/m 2,3 km/h (1 Bft) NW 315 6,2 C 20,1 C 2,4 km/h (1 Bft)
04.05.2012 16:51 20,2 C 38 % 0,0 l/m 2,1 km/h (1 Bft) W-NW 292 5,4 C 20,1 C 0,0 km/h (0 Bft)
04.05.2012 16:52 20,2 C 38 % 0,0 l/m 2,1 km/h (1 Bft) W-NW 292 5,4 C 20,1 C 0,0 km/h (0 Bft)
04.05.2012 16:53 20,3 C 39 % 0,0 l/m 2,1 km/h (1 Bft) W-NW 292 5,9 C 20,0 C 2,7 km/h (1 Bft)
04.05.2012 16:54 20,3 C 39 % 0,0 l/m 2,1 km/h (1 Bft) W-NW 292 5,9 C 20,0 C 2,7 km/h (1 Bft)
04.05.2012 16:55 20,1 C 37 % 0,0 l/m 2,1 km/h (1 Bft) N-NW 337 5,0 C 20,0 C 1,8 km/h (1 Bft)
04.05.2012 16:56 20,1 C 37 % 0,0 l/m 2,1 km/h (1 Bft) N-NW 337 5,0 C 20,0 C 1,8 km/h (1 Bft)
04.05.2012 16:57 20,1 C 36 % 0,0 l/m 1,9 km/h (1 Bft) W-NW 292 4,6 C 20,0 C 3,7 km/h (1 Bft)
04.05.2012 16:58 20,1 C 36 % 0,0 l/m 1,9 km/h (1 Bft) W-NW 292 4,6 C 20,0 C 3,7 km/h (1 Bft)
04.05.2012 16:59 20,0 C 38 % 0,0 l/m 1,8 km/h (1 Bft) W-SW 247 5,2 C 20,0 C 2,3 km/h (1 Bft)
04.05.2012 17:00 20,0 C 38 % 0,0 l/m 1,8 km/h (1 Bft) W-SW 247 5,2 C 20,0 C 2,3 km/h (1 Bft)
04.05.2012 17:01 20,1 C 37 % 0,0 l/m 1,8 km/h (1 Bft) N 360 5,0 C 19,9 C 2,6 km/h (1 Bft)
04.05.2012 17:02 20,1 C 37 % 0,0 l/m 1,8 km/h (1 Bft) N 360 5,0 C 19,9 C 2,6 km/h (1 Bft)
04.05.2012 17:03 20,1 C 39 % 0,0 l/m 1,8 km/h (1 Bft) W 270 5,7 C 19,9 C 3,5 km/h (1 Bft)
04.05.2012 17:04 20,1 C 39 % 0,0 l/m 1,8 km/h (1 Bft) W 270 5,7 C 19,9 C 3,5 km/h (1 Bft)
04.05.2012 17:05 20,1 C 37 % 0,0 l/m 1,8 km/h (1 Bft) W 270 5,0 C 19,8 C 2,4 km/h (1 Bft)
04.05.2012 17:06 20,1 C 37 % 0,0 l/m 1,8 km/h (1 Bft) W 270 5,0 C 19,8 C 2,4 km/h (1 Bft)
04.05.2012 17:07 19,9 C 41 % 0,0 l/m 1,4 km/h (1 Bft) N 360 6,3 C 19,7 C 0,0 km/h (0 Bft)
04.05.2012 17:08 19,9 C 41 % 0,0 l/m 1,4 km/h (1 Bft) N 360 6,3 C 19,7 C 0,0 km/h (0 Bft)
04.05.2012 17:09 19,8 C 43 % 0,0 l/m 1,1 km/h (1 Bft) NO 45 6,9 C 19,6 C 0,0 km/h (0 Bft)
04.05.2012 17:10 19,8 C 43 % 0,0 l/m 1,1 km/h (1 Bft) NO 45 6,9 C 19,6 C 0,0 km/h (0 Bft)
04.05.2012 17:11 19,6 C 42 % 0,0 l/m 1,0 km/h (0 Bft) O-SO 112 6,3 C 19,6 C 0,0 km/h (0 Bft)
04.05.2012 17:12 19,6 C 42 % 0,0 l/m 1,0 km/h (0 Bft) O-SO 112 6,3 C 19,6 C 0,0 km/h (0 Bft)
04.05.2012 17:13 19,6 C 44 % 0,0 l/m 0,6 km/h (0 Bft) NO 45 7,0 C 19,5 C 0,0 km/h (0 Bft)
04.05.2012 17:14 19,6 C 44 % 0,0 l/m 0,6 km/h (0 Bft) NO 45 7,0 C 19,5 C 0,0 km/h (0 Bft)
04.05.2012 17:15 19,5 C 44 % 0,0 l/m 0,3 km/h (0 Bft) NO 45 6,9 C 19,5 C 0,0 km/h (0 Bft)
04.05.2012 17:16 19,5 C 44 % 0,0 l/m 0,3 km/h (0 Bft) NO 45 6,9 C 19,5 C 0,0 km/h (0 Bft)
04.05.2012 17:17 19,4 C 44 % 0,0 l/m 0,0 km/h (0 Bft) NO 45 6,8 C 19,4 C 0,0 km/h (0 Bft)
04.05.2012 17:18 19,4 C 44 % 0,0 l/m 0,0 km/h (0 Bft) NO 45 6,8 C 19,4 C 0,0 km/h (0 Bft)
04.05.2012 17:19 19,3 C 44 % 0,0 l/m 0,0 km/h (0 Bft) O 90 6,7 C 19,4 C 0,0 km/h (0 Bft)
04.05.2012 17:20 19,3 C 44 % 0,0 l/m 0,0 km/h (0 Bft) O 90 6,7 C 19,4 C 0,0 km/h (0 Bft)
04.05.2012 17:21 19,3 C 44 % 0,0 l/m 0,0 km/h (0 Bft) O 90 6,7 C 19,4 C 0,0 km/h (0 Bft)
04.05.2012 17:22 19,3 C 44 % 0,0 l/m 0,0 km/h (0 Bft) O 90 6,7 C 19,4 C 0,0 km/h (0 Bft)
04.05.2012 17:23 19,2 C 42 % 0,0 l/m 0,0 km/h (0 Bft) N-NO 22 6,0 C 19,5 C 0,0 km/h (0 Bft)
04.05.2012 17:24 19,2 C 42 % 0,0 l/m 0,0 km/h (0 Bft) N-NO 22 6,0 C 19,5 C 0,0 km/h (0 Bft)
04.05.2012 17:25 19,3 C 43 % 0,0 l/m 0,0 km/h (0 Bft) N 360 6,4 C 19,6 C 0,0 km/h (0 Bft)
04.05.2012 17:26 19,3 C 43 % 0,0 l/m 0,0 km/h (0 Bft) N 360 6,4 C 19,6 C 0,0 km/h (0 Bft)
04.05.2012 17:27 19,2 C 40 % 0,0 l/m 0,0 km/h (0 Bft) N-NO 22 5,3 C 19,6 C 0,0 km/h (0 Bft)
04.05.2012 17:28 19,2 C 40 % 0,0 l/m 0,0 km/h (0 Bft) N-NO 22 5,3 C 19,6 C 0,0 km/h (0 Bft)
04.05.2012 17:29 19,2 C 40 % 0,0 l/m 0,0 km/h (0 Bft) N-NO 22 5,3 C 19,6 C 0,0 km/h (0 Bft)
04.05.2012 17:30 19,2 C 40 % 0,0 l/m 0,0 km/h (0 Bft) N-NO 22 5,3 C 19,6 C 0,0 km/h (0 Bft)
04.05.2012 17:31 19,2 C 40 % 0,0 l/m 0,0 km/h (0 Bft) N-NO 22 5,3 C 19,6 C 0,0 km/h (0 Bft)
04.05.2012 17:32 19,2 C 40 % 0,0 l/m 0,0 km/h (0 Bft) N-NO 22 5,3 C 19,6 C 0,0 km/h (0 Bft)
04.05.2012 17:33 19,2 C 40 % 0,0 l/m 0,0 km/h (0 Bft) N-NO 22 5,3 C 19,6 C 0,0 km/h (0 Bft)
04.05.2012 17:34 19,5 C 41 % 0,0 l/m 0,5 km/h (0 Bft) W-SW 247 5,9 C 21,2 C 5,0 km/h (1 Bft)
04.05.2012 17:35 19,5 C 41 % 0,0 l/m 0,5 km/h (0 Bft) W-SW 247 5,9 C 21,2 C 5,0 km/h (1 Bft)
04.05.2012 17:36 19,5 C 38 % 0,0 l/m 1,1 km/h (1 Bft) W 270 4,8 C 21,3 C 7,2 km/h (2 Bft)
04.05.2012 17:37 19,5 C 38 % 0,0 l/m 1,1 km/h (1 Bft) W 270 4,8 C 21,3 C 7,2 km/h (2 Bft)
04.05.2012 17:38 19,4 C 38 % 0,0 l/m 1,8 km/h (1 Bft) W-SW 247 4,7 C 21,1 C 4,8 km/h (1 Bft)
04.05.2012 17:39 19,4 C 38 % 0,0 l/m 1,8 km/h (1 Bft) W-SW 247 4,7 C 21,1 C 4,8 km/h (1 Bft)
04.05.2012 17:40 19,4 C 39 % 0,0 l/m 2,4 km/h (1 Bft) NW 315 5,1 C 20,7 C 3,2 km/h (1 Bft)
04.05.2012 17:41 19,4 C 39 % 0,0 l/m 2,4 km/h (1 Bft) NW 315 5,1 C 20,7 C 3,2 km/h (1 Bft)
04.05.2012 17:42 19,5 C 39 % 0,0 l/m 3,1 km/h (1 Bft) W-NW 292 5,2 C 20,3 C 7,2 km/h (2 Bft)
04.05.2012 17:43 19,5 C 39 % 0,0 l/m 3,1 km/h (1 Bft) W-NW 292 5,2 C 20,3 C 7,2 km/h (2 Bft)
04.05.2012 17:44 19,3 C 39 % 0,0 l/m 3,9 km/h (1 Bft) N 360 5,0 C 20,0 C 2,6 km/h (1 Bft)
04.05.2012 17:45 19,3 C 39 % 0,0 l/m 3,9 km/h (1 Bft) N 360 5,0 C 20,0 C 2,6 km/h (1 Bft)
04.05.2012 17:46 19,4 C 39 % 0,0 l/m 3,9 km/h (1 Bft) W-SW 247 5,1 C 20,0 C 4,2 km/h (1 Bft)
04.05.2012 17:47 19,4 C 39 % 0,0 l/m 3,9 km/h (1 Bft) W-SW 247 5,1 C 20,0 C 4,2 km/h (1 Bft)
04.05.2012 17:48 19,6 C 41 % 0,0 l/m 3,5 km/h (1 Bft) W 270 6,0 C 20,2 C 4,2 km/h (1 Bft)
04.05.2012 17:49 19,6 C 41 % 0,0 l/m 3,5 km/h (1 Bft) W 270 6,0 C 20,2 C 4,2 km/h (1 Bft)
04.05.2012 17:50 19,6 C 38 % 0,0 l/m 4,2 km/h (1 Bft) W 270 4,9 C 20,8 C 9,2 km/h (2 Bft)
04.05.2012 17:51 19,6 C 38 % 0,0 l/m 4,2 km/h (1 Bft) W 270 4,9 C 20,8 C 9,2 km/h (2 Bft)
04.05.2012 17:52 19,6 C 38 % 0,0 l/m 4,8 km/h (1 Bft) W-SW 247 4,9 C 21,1 C 8,2 km/h (2 Bft)
04.05.2012 17:53 19,6 C 38 % 0,0 l/m 4,8 km/h (1 Bft) W-SW 247 4,9 C 21,1 C 8,2 km/h (2 Bft)
04.05.2012 17:54 19,7 C 38 % 0,0 l/m 4,7 km/h (1 Bft) W 270 5,0 C 21,4 C 3,4 km/h (1 Bft)
04.05.2012 17:55 19,7 C 38 % 0,0 l/m 4,7 km/h (1 Bft) W 270 5,0 C 21,4 C 3,4 km/h (1 Bft)
04.05.2012 17:56 19,7 C 38 % 0,0 l/m 4,8 km/h (1 Bft) S-SW 202 5,0 C 21,8 C 7,1 km/h (2 Bft)
04.05.2012 17:57 19,7 C 38 % 0,0 l/m 4,8 km/h (1 Bft) S-SW 202 5,0 C 21,8 C 7,1 km/h (2 Bft)
04.05.2012 17:58 19,7 C 39 % 0,0 l/m 4,5 km/h (1 Bft) N 360 5,4 C 22,0 C 2,6 km/h (1 Bft)
04.05.2012 17:59 19,7 C 39 % 0,0 l/m 4,5 km/h (1 Bft) N 360 5,4 C 22,0 C 2,6 km/h (1 Bft)
04.05.2012 18:00 19,7 C 38 % 0,0 l/m 4,3 km/h (1 Bft) N 360 5,0 C 22,4 C 4,5 km/h (1 Bft)
04.05.2012 18:01 19,7 C 38 % 0,0 l/m 4,3 km/h (1 Bft) N 360 5,0 C 22,4 C 4,5 km/h (1 Bft)
04.05.2012 18:02 19,7 C 38 % 0,0 l/m 3,9 km/h (1 Bft) O-SO 112 5,0 C 22,8 C 5,0 km/h (1 Bft)
04.05.2012 18:03 19,7 C 38 % 0,0 l/m 3,9 km/h (1 Bft) O-SO 112 5,0 C 22,8 C 5,0 km/h (1 Bft)
04.05.2012 18:04 19,7 C 39 % 0,0 l/m 3,5 km/h (1 Bft) N-NW 337 5,4 C 23,0 C 3,7 km/h (1 Bft)
04.05.2012 18:05 19,7 C 39 % 0,0 l/m 3,5 km/h (1 Bft) N-NW 337 5,4 C 23,0 C 3,7 km/h (1 Bft)
04.05.2012 18:06 19,9 C 38 % 0,0 l/m 3,4 km/h (1 Bft) W-NW 292 5,2 C 23,0 C 5,3 km/h (1 Bft)
04.05.2012 18:07 19,9 C 38 % 0,0 l/m 3,4 km/h (1 Bft) W-NW 292 5,2 C 23,0 C 5,3 km/h (1 Bft)
04.05.2012 18:08 19,7 C 38 % 0,0 l/m 3,7 km/h (1 Bft) N 360 5,0 C 23,1 C 8,2 km/h (2 Bft)
04.05.2012 18:09 19,7 C 38 % 0,0 l/m 3,7 km/h (1 Bft) N 360 5,0 C 23,1 C 8,2 km/h (2 Bft)
04.05.2012 18:10 19,8 C 37 % 0,0 l/m 4,0 km/h (1 Bft) NW 315 4,7 C 23,1 C 3,7 km/h (1 Bft)
04.05.2012 18:11 19,8 C 37 % 0,0 l/m 4,0 km/h (1 Bft) NW 315 4,7 C 23,1 C 3,7 km/h (1 Bft)
04.05.2012 18:12 19,7 C 38 % 0,0 l/m 3,5 km/h (1 Bft) W-SW 247 5,0 C 23,2 C 2,1 km/h (1 Bft)
04.05.2012 18:13 19,7 C 38 % 0,0 l/m 3,5 km/h (1 Bft) W-SW 247 5,0 C 23,2 C 2,1 km/h (1 Bft)
04.05.2012 18:14 19,7 C 37 % 0,0 l/m 3,5 km/h (1 Bft) W-SW 247 4,6 C 23,2 C 6,0 km/h (2 Bft)
04.05.2012 18:15 19,7 C 37 % 0,0 l/m 3,5 km/h (1 Bft) W-SW 247 4,6 C 23,2 C 6,0 km/h (2 Bft)
04.05.2012 18:16 19,7 C 37 % 0,0 l/m 3,9 km/h (1 Bft) W 270 4,6 C 23,3 C 6,0 km/h (2 Bft)
04.05.2012 18:17 19,7 C 37 % 0,0 l/m 3,9 km/h (1 Bft) W 270 4,6 C 23,3 C 6,0 km/h (2 Bft)
04.05.2012 18:18 19,7 C 37 % 0,0 l/m 3,7 km/h (1 Bft) W 270 4,6 C 23,2 C 2,1 km/h (1 Bft)
04.05.2012 18:19 19,7 C 37 % 0,0 l/m 3,7 km/h (1 Bft) W 270 4,6 C 23,2 C 2,1 km/h (1 Bft)
04.05.2012 18:20 19,7 C 37 % 0,0 l/m 3,1 km/h (1 Bft) N-NW 337 4,6 C 23,2 C 2,1 km/h (1 Bft)
04.05.2012 18:21 19,7 C 37 % 0,0 l/m 3,1 km/h (1 Bft) N-NW 337 4,6 C 23,2 C 2,1 km/h (1 Bft)
04.05.2012 18:22 19,7 C 37 % 0,0 l/m 2,7 km/h (1 Bft) W-SW 247 4,6 C 23,5 C 3,1 km/h (1 Bft)
04.05.2012 18:23 19,7 C 37 % 0,0 l/m 2,7 km/h (1 Bft) W-SW 247 4,6 C 23,5 C 3,1 km/h (1 Bft)
04.05.2012 18:24 19,6 C 36 % 0,0 l/m 3,4 km/h (1 Bft) W-SW 247 4,1 C 23,6 C 4,5 km/h (1 Bft)
04.05.2012 18:25 19,6 C 36 % 0,0 l/m 3,4 km/h (1 Bft) W-SW 247 4,1 C 23,6 C 4,5 km/h (1 Bft)
04.05.2012 18:26 19,6 C 36 % 0,0 l/m 3,2 km/h (1 Bft) W-SW 247 4,1 C 23,5 C 3,9 km/h (1 Bft)
04.05.2012 18:27 19,6 C 36 % 0,0 l/m 3,2 km/h (1 Bft) W-SW 247 4,1 C 23,5 C 3,9 km/h (1 Bft)
04.05.2012 18:28 19,6 C 36 % 0,0 l/m 3,1 km/h (1 Bft) W-SW 247 4,1 C 23,5 C 4,7 km/h (1 Bft)
04.05.2012 18:29 19,6 C 36 % 0,0 l/m 3,1 km/h (1 Bft) W-SW 247 4,1 C 23,5 C 4,7 km/h (1 Bft)
04.05.2012 18:30 19,6 C 38 % 0,0 l/m 3,4 km/h (1 Bft) SO 135 4,9 C 23,4 C 5,5 km/h (1 Bft)
04.05.2012 18:31 19,6 C 38 % 0,0 l/m 3,4 km/h (1 Bft) SO 135 4,9 C 23,4 C 5,5 km/h (1 Bft)
04.05.2012 18:32 19,5 C 38 % 0,0 l/m 3,7 km/h (1 Bft) W-SW 247 4,8 C 23,2 C 3,4 km/h (1 Bft)
04.05.2012 18:33 19,5 C 38 % 0,0 l/m 3,7 km/h (1 Bft) W-SW 247 4,8 C 23,2 C 3,4 km/h (1 Bft)
04.05.2012 18:34 19,5 C 37 % 0,0 l/m 3,9 km/h (1 Bft) W-NW 292 4,4 C 23,0 C 4,2 km/h (1 Bft)
04.05.2012 18:35 19,5 C 37 % 0,0 l/m 3,9 km/h (1 Bft) W-NW 292 4,4 C 23,0 C 4,2 km/h (1 Bft)
04.05.2012 18:36 19,5 C 38 % 0,0 l/m 3,7 km/h (1 Bft) W-NW 292 4,8 C 23,0 C 4,3 km/h (1 Bft)
04.05.2012 18:37 19,5 C 38 % 0,0 l/m 3,7 km/h (1 Bft) W-NW 292 4,8 C 23,0 C 4,3 km/h (1 Bft)
04.05.2012 18:38 19,4 C 37 % 0,0 l/m 3,7 km/h (1 Bft) S-SW 202 4,3 C 22,9 C 4,3 km/h (1 Bft)
04.05.2012 18:39 19,4 C 37 % 0,0 l/m 3,7 km/h (1 Bft) S-SW 202 4,3 C 22,9 C 4,3 km/h (1 Bft)
04.05.2012 18:40 19,3 C 37 % 0,0 l/m 3,5 km/h (1 Bft) W-NW 292 4,2 C 22,9 C 4,0 km/h (1 Bft)
04.05.2012 18:41 19,3 C 37 % 0,0 l/m 3,5 km/h (1 Bft) W-NW 292 4,2 C 22,9 C 4,0 km/h (1 Bft)
04.05.2012 18:42 19,3 C 36 % 0,0 l/m 3,4 km/h (1 Bft) W 270 3,9 C 22,7 C 5,5 km/h (1 Bft)
04.05.2012 18:43 19,3 C 36 % 0,0 l/m 3,4 km/h (1 Bft) W 270 3,9 C 22,7 C 5,5 km/h (1 Bft)
04.05.2012 18:44 19,3 C 37 % 0,0 l/m 3,4 km/h (1 Bft) W-SW 247 4,2 C 22,4 C 5,1 km/h (1 Bft)
04.05.2012 18:45 19,3 C 37 % 0,0 l/m 3,4 km/h (1 Bft) W-SW 247 4,2 C 22,4 C 5,1 km/h (1 Bft)
04.05.2012 18:46 19,2 C 38 % 0,0 l/m 3,1 km/h (1 Bft) NO 45 4,5 C 22,3 C 0,0 km/h (0 Bft)
04.05.2012 18:47 19,2 C 38 % 0,0 l/m 3,1 km/h (1 Bft) NO 45 4,5 C 22,3 C 0,0 km/h (0 Bft)
04.05.2012 18:48 19,2 C 38 % 0,0 l/m 2,6 km/h (1 Bft) W-SW 247 4,5 C 22,4 C 0,0 km/h (0 Bft)
04.05.2012 18:49 19,2 C 38 % 0,0 l/m 2,6 km/h (1 Bft) W-SW 247 4,5 C 22,4 C 0,0 km/h (0 Bft)
04.05.2012 18:50 19,3 C 39 % 0,0 l/m 1,9 km/h (1 Bft) NW 315 5,0 C 22,7 C 1,6 km/h (1 Bft)
04.05.2012 18:51 19,3 C 39 % 0,0 l/m 1,9 km/h (1 Bft) NW 315 5,0 C 22,7 C 1,6 km/h (1 Bft)
04.05.2012 18:52 19,2 C 39 % 0,0 l/m 1,6 km/h (1 Bft) O 90 4,9 C 23,0 C 2,6 km/h (1 Bft)
04.05.2012 18:53 19,2 C 39 % 0,0 l/m 1,6 km/h (1 Bft) O 90 4,9 C 23,0 C 2,6 km/h (1 Bft)
04.05.2012 18:54 19,2 C 39 % 0,0 l/m 1,1 km/h (1 Bft) O 90 4,9 C 23,2 C 0,0 km/h (0 Bft)
04.05.2012 18:55 19,2 C 39 % 0,0 l/m 1,1 km/h (1 Bft) O 90 4,9 C 23,2 C 0,0 km/h (0 Bft)
04.05.2012 18:56 19,1 C 38 % 0,0 l/m 0,3 km/h (0 Bft) NO 45 4,4 C 23,4 C 0,0 km/h (0 Bft)
04.05.2012 18:57 19,1 C 38 % 0,0 l/m 0,3 km/h (0 Bft) NO 45 4,4 C 23,4 C 0,0 km/h (0 Bft)
04.05.2012 18:58 19,1 C 39 % 0,0 l/m 0,3 km/h (0 Bft) N-NO 22 4,8 C 23,6 C 0,0 km/h (0 Bft)
04.05.2012 18:59 19,1 C 39 % 0,0 l/m 0,3 km/h (0 Bft) N-NO 22 4,8 C 23,6 C 0,0 km/h (0 Bft)
04.05.2012 19:00 18,9 C 41 % 0,0 l/m 0,5 km/h (0 Bft) N 360 5,4 C 24,1 C 2,3 km/h (1 Bft)
04.05.2012 19:01 18,9 C 41 % 0,0 l/m 0,5 km/h (0 Bft) N 360 5,4 C 24,1 C 2,3 km/h (1 Bft)
04.05.2012 19:02 18,8 C 40 % 0,0 l/m 0,3 km/h (0 Bft) N-NO 22 4,9 C 24,1 C 0,0 km/h (0 Bft)
04.05.2012 19:03 18,8 C 40 % 0,0 l/m 0,3 km/h (0 Bft) N-NO 22 4,9 C 24,1 C 0,0 km/h (0 Bft)
04.05.2012 19:04 18,5 C 41 % 0,0 l/m 0,2 km/h (0 Bft) N-NW 337 5,0 C 23,8 C 0,0 km/h (0 Bft)
04.05.2012 19:05 18,5 C 41 % 0,0 l/m 0,2 km/h (0 Bft) N-NW 337 5,0 C 23,8 C 0,0 km/h (0 Bft)
04.05.2012 19:06 18,4 C 41 % 0,0 l/m 0,3 km/h (0 Bft) N 360 4,9 C 23,2 C 1,8 km/h (1 Bft)
04.05.2012 19:07 18,4 C 41 % 0,0 l/m 0,3 km/h (0 Bft) N 360 4,9 C 23,2 C 1,8 km/h (1 Bft)
04.05.2012 19:08 18,5 C 41 % 0,0 l/m 0,3 km/h (0 Bft) W-NW 292 5,0 C 22,9 C 0,0 km/h (0 Bft)
04.05.2012 19:09 18,5 C 41 % 0,0 l/m 0,3 km/h (0 Bft) W-NW 292 5,0 C 22,9 C 0,0 km/h (0 Bft)
04.05.2012 19:10 18,4 C 41 % 0,0 l/m 0,2 km/h (0 Bft) NW 315 4,9 C 22,7 C 0,0 km/h (0 Bft)
04.05.2012 19:11 18,4 C 41 % 0,0 l/m 0,2 km/h (0 Bft) NW 315 4,9 C 22,7 C 0,0 km/h (0 Bft)
04.05.2012 19:12 18,3 C 42 % 0,0 l/m 0,3 km/h (0 Bft) W-SW 247 5,2 C 22,9 C 2,7 km/h (1 Bft)
04.05.2012 19:13 18,3 C 42 % 0,0 l/m 0,3 km/h (0 Bft) W-SW 247 5,2 C 22,9 C 2,7 km/h (1 Bft)
04.05.2012 19:14 18,2 C 42 % 0,0 l/m 0,6 km/h (0 Bft) SO 135 5,1 C 22,9 C 3,7 km/h (1 Bft)
04.05.2012 19:15 18,2 C 42 % 0,0 l/m 0,6 km/h (0 Bft) SO 135 5,1 C 22,9 C 3,7 km/h (1 Bft)
04.05.2012 19:16 18,3 C 41 % 0,0 l/m 1,3 km/h (1 Bft) W-SW 247 4,8 C 22,7 C 3,5 km/h (1 Bft)
04.05.2012 19:17 18,3 C 41 % 0,0 l/m 1,3 km/h (1 Bft) W-SW 247 4,8 C 22,7 C 3,5 km/h (1 Bft)
04.05.2012 19:18 18,3 C 42 % 0,0 l/m 1,3 km/h (1 Bft) W-SW 247 5,2 C 22,4 C 0,0 km/h (0 Bft)
04.05.2012 19:19 18,3 C 42 % 0,0 l/m 1,3 km/h (1 Bft) W-SW 247 5,2 C 22,4 C 0,0 km/h (0 Bft)
04.05.2012 19:20 18,2 C 42 % 0,0 l/m 1,3 km/h (1 Bft) N-NW 337 5,1 C 22,4 C 0,0 km/h (0 Bft)
04.05.2012 19:21 18,2 C 42 % 0,0 l/m 1,3 km/h (1 Bft) N-NW 337 5,1 C 22,4 C 0,0 km/h (0 Bft)
04.05.2012 19:22 18,0 C 42 % 0,0 l/m 1,6 km/h (1 Bft) W 270 4,9 C 22,2 C 3,1 km/h (1 Bft)
04.05.2012 19:23 18,0 C 42 % 0,0 l/m 1,6 km/h (1 Bft) W 270 4,9 C 22,2 C 3,1 km/h (1 Bft)
04.05.2012 19:24 18,0 C 43 % 0,0 l/m 1,8 km/h (1 Bft) N-NW 337 5,2 C 21,6 C 1,9 km/h (1 Bft)
04.05.2012 19:25 18,0 C 43 % 0,0 l/m 1,8 km/h (1 Bft) N-NW 337 5,2 C 21,6 C 1,9 km/h (1 Bft)
04.05.2012 19:26 18,0 C 44 % 0,0 l/m 1,4 km/h (1 Bft) NW 315 5,6 C 21,0 C 0,0 km/h (0 Bft)
04.05.2012 19:27 18,0 C 44 % 0,0 l/m 1,4 km/h (1 Bft) NW 315 5,6 C 21,0 C 0,0 km/h (0 Bft)
04.05.2012 19:28 17,9 C 44 % 0,0 l/m 1,1 km/h (1 Bft) W 270 5,5 C 20,5 C 0,0 km/h (0 Bft)
04.05.2012 19:29 17,9 C 44 % 0,0 l/m 1,1 km/h (1 Bft) W 270 5,5 C 20,5 C 0,0 km/h (0 Bft)
04.05.2012 19:30 17,9 C 45 % 0,0 l/m 1,1 km/h (1 Bft) W-SW 247 5,8 C 20,4 C 0,0 km/h (0 Bft)
04.05.2012 19:31 17,9 C 45 % 0,0 l/m 1,1 km/h (1 Bft) W-SW 247 5,8 C 20,4 C 0,0 km/h (0 Bft)
04.05.2012 19:32 17,7 C 45 % 0,0 l/m 1,0 km/h (0 Bft) S-SO 157 5,6 C 20,3 C 0,0 km/h (0 Bft)
04.05.2012 19:33 17,7 C 45 % 0,0 l/m 1,0 km/h (0 Bft) S-SO 157 5,6 C 20,3 C 0,0 km/h (0 Bft)
04.05.2012 19:34 17,6 C 46 % 0,0 l/m 0,3 km/h (0 Bft) O 90 5,8 C 20,2 C 0,0 km/h (0 Bft)
04.05.2012 19:35 17,6 C 46 % 0,0 l/m 0,3 km/h (0 Bft) O 90 5,8 C 20,2 C 0,0 km/h (0 Bft)
04.05.2012 19:36 17,4 C 49 % 0,0 l/m 0,0 km/h (0 Bft) NO 45 6,6 C 20,2 C 0,0 km/h (0 Bft)
04.05.2012 19:37 17,4 C 49 % 0,0 l/m 0,0 km/h (0 Bft) NO 45 6,6 C 20,2 C 0,0 km/h (0 Bft)
04.05.2012 19:38 17,2 C 49 % 0,0 l/m 0,2 km/h (0 Bft) N-NO 22 6,4 C 20,1 C 0,0 km/h (0 Bft)
04.05.2012 19:39 17,2 C 49 % 0,0 l/m 0,2 km/h (0 Bft) N-NO 22 6,4 C 20,1 C 0,0 km/h (0 Bft)
04.05.2012 19:40 17,1 C 50 % 0,0 l/m 0,2 km/h (0 Bft) N 360 6,6 C 19,9 C 0,0 km/h (0 Bft)
04.05.2012 19:41 17,1 C 50 % 0,0 l/m 0,2 km/h (0 Bft) N 360 6,6 C 19,9 C 0,0 km/h (0 Bft)
04.05.2012 19:42 17,0 C 51 % 0,0 l/m 0,3 km/h (0 Bft) N 360 6,8 C 19,8 C 2,6 km/h (1 Bft)
04.05.2012 19:43 17,0 C 51 % 0,0 l/m 0,3 km/h (0 Bft) N 360 6,8 C 19,8 C 2,6 km/h (1 Bft)
04.05.2012 19:44 16,8 C 51 % 0,0 l/m 0,6 km/h (0 Bft) N 360 6,6 C 19,6 C 3,2 km/h (1 Bft)
04.05.2012 19:45 16,8 C 51 % 0,0 l/m 0,6 km/h (0 Bft) N 360 6,6 C 19,6 C 3,2 km/h (1 Bft)
04.05.2012 19:46 16,7 C 50 % 0,0 l/m 0,8 km/h (0 Bft) N-NO 22 6,2 C 19,5 C 0,0 km/h (0 Bft)
04.05.2012 19:47 16,7 C 50 % 0,0 l/m 0,8 km/h (0 Bft) N-NO 22 6,2 C 19,5 C 0,0 km/h (0 Bft)
04.05.2012 19:48 16,7 C 50 % 0,0 l/m 0,6 km/h (0 Bft) N 360 6,2 C 19,5 C 2,4 km/h (1 Bft)
04.05.2012 19:49 16,7 C 50 % 0,0 l/m 0,6 km/h (0 Bft) N 360 6,2 C 19,5 C 2,4 km/h (1 Bft)
04.05.2012 19:50 16,6 C 50 % 0,0 l/m 0,8 km/h (0 Bft) N-NO 22 6,1 C 19,3 C 0,0 km/h (0 Bft)
04.05.2012 19:51 16,6 C 50 % 0,0 l/m 0,8 km/h (0 Bft) N-NO 22 6,1 C 19,3 C 0,0 km/h (0 Bft)
04.05.2012 19:52 16,5 C 50 % 0,0 l/m 0,8 km/h (0 Bft) N 360 6,0 C 19,2 C 0,0 km/h (0 Bft)
04.05.2012 19:53 16,5 C 50 % 0,0 l/m 0,8 km/h (0 Bft) N 360 6,0 C 19,2 C 0,0 km/h (0 Bft)
04.05.2012 19:54 16,4 C 50 % 0,0 l/m 0,5 km/h (0 Bft) S 180 6,0 C 19,2 C 0,0 km/h (0 Bft)
04.05.2012 19:55 16,4 C 50 % 0,0 l/m 0,5 km/h (0 Bft) S 180 6,0 C 19,2 C 0,0 km/h (0 Bft)
04.05.2012 19:56 16,4 C 52 % 0,0 l/m 0,3 km/h (0 Bft) O-SO 112 6,5 C 19,1 C 0,0 km/h (0 Bft)
04.05.2012 19:57 16,4 C 52 % 0,0 l/m 0,3 km/h (0 Bft) O-SO 112 6,5 C 19,1 C 0,0 km/h (0 Bft)
04.05.2012 19:58 16,3 C 52 % 0,0 l/m 0,3 km/h (0 Bft) NO 45 6,4 C 19,1 C 0,0 km/h (0 Bft)
04.05.2012 19:59 16,3 C 52 % 0,0 l/m 0,3 km/h (0 Bft) NO 45 6,4 C 19,1 C 0,0 km/h (0 Bft)
04.05.2012 20:00 16,1 C 52 % 0,0 l/m 0,2 km/h (0 Bft) O 90 6,2 C 19,0 C 1,9 km/h (1 Bft)
04.05.2012 20:01 16,1 C 52 % 0,0 l/m 0,2 km/h (0 Bft) O 90 6,2 C 19,0 C 1,9 km/h (1 Bft)
04.05.2012 20:02 16,0 C 53 % 0,0 l/m 0,5 km/h (0 Bft) N-NO 22 6,4 C 18,7 C 2,9 km/h (1 Bft)
04.05.2012 20:03 16,0 C 53 % 0,0 l/m 0,5 km/h (0 Bft) N-NO 22 6,4 C 18,7 C 2,9 km/h (1 Bft)
04.05.2012 20:04 15,8 C 54 % 0,0 l/m 0,6 km/h (0 Bft) NO 45 6,5 C 18,4 C 0,0 km/h (0 Bft)
04.05.2012 20:05 15,8 C 54 % 0,0 l/m 0,6 km/h (0 Bft) NO 45 6,5 C 18,4 C 0,0 km/h (0 Bft)
04.05.2012 20:06 15,7 C 54 % 0,0 l/m 0,6 km/h (0 Bft) N 360 6,4 C 18,1 C 1,6 km/h (1 Bft)
04.05.2012 20:07 15,7 C 54 % 0,0 l/m 0,6 km/h (0 Bft) N 360 6,4 C 18,1 C 1,6 km/h (1 Bft)
04.05.2012 20:08 15,7 C 55 % 0,0 l/m 0,6 km/h (0 Bft) N-NO 22 6,7 C 17,7 C 0,0 km/h (0 Bft)
04.05.2012 20:09 15,7 C 55 % 0,0 l/m 0,6 km/h (0 Bft) N-NO 22 6,7 C 17,7 C 0,0 km/h (0 Bft)
04.05.2012 20:10 15,5 C 55 % 0,0 l/m 0,6 km/h (0 Bft) NO 45 6,5 C 17,4 C 0,0 km/h (0 Bft)
04.05.2012 20:11 15,5 C 55 % 0,0 l/m 0,6 km/h (0 Bft) NO 45 6,5 C 17,4 C 0,0 km/h (0 Bft)
04.05.2012 20:12 15,3 C 56 % 0,0 l/m 0,5 km/h (0 Bft) N-NO 22 6,6 C 17,0 C 2,4 km/h (1 Bft)
04.05.2012 20:13 15,3 C 56 % 0,0 l/m 0,5 km/h (0 Bft) N-NO 22 6,6 C 17,0 C 2,4 km/h (1 Bft)
04.05.2012 20:14 15,2 C 56 % 0,0 l/m 0,3 km/h (0 Bft) NO 45 6,5 C 16,5 C 0,0 km/h (0 Bft)
04.05.2012 20:15 15,2 C 56 % 0,0 l/m 0,3 km/h (0 Bft) NO 45 6,5 C 16,5 C 0,0 km/h (0 Bft)
04.05.2012 20:16 15,2 C 56 % 0,0 l/m 0,3 km/h (0 Bft) NO 45 6,5 C 16,2 C 0,0 km/h (0 Bft)
04.05.2012 20:17 15,2 C 56 % 0,0 l/m 0,3 km/h (0 Bft) NO 45 6,5 C 16,2 C 0,0 km/h (0 Bft)
04.05.2012 20:18 14,9 C 57 % 0,0 l/m 0,2 km/h (0 Bft) NO 45 6,5 C 15,8 C 0,0 km/h (0 Bft)
04.05.2012 20:19 14,9 C 57 % 0,0 l/m 0,2 km/h (0 Bft) NO 45 6,5 C 15,8 C 0,0 km/h (0 Bft)
04.05.2012 20:20 14,9 C 57 % 0,0 l/m 0,2 km/h (0 Bft) N 360 6,5 C 15,4 C 0,0 km/h (0 Bft)
04.05.2012 20:21 14,9 C 57 % 0,0 l/m 0,2 km/h (0 Bft) N 360 6,5 C 15,4 C 0,0 km/h (0 Bft)
04.05.2012 20:22 14,7 C 58 % 0,0 l/m 0,3 km/h (0 Bft) NO 45 6,5 C 15,1 C 0,0 km/h (0 Bft)
04.05.2012 20:23 14,7 C 58 % 0,0 l/m 0,3 km/h (0 Bft) NO 45 6,5 C 15,1 C 0,0 km/h (0 Bft)
04.05.2012 20:24 14,7 C 58 % 0,0 l/m 0,3 km/h (0 Bft) N-NO 22 6,5 C 14,7 C 2,4 km/h (1 Bft)
04.05.2012 20:25 14,7 C 58 % 0,0 l/m 0,3 km/h (0 Bft) N-NO 22 6,5 C 14,7 C 2,4 km/h (1 Bft)
04.05.2012 20:26 14,5 C 58 % 0,0 l/m 0,3 km/h (0 Bft) N 360 6,3 C 14,4 C 1,6 km/h (1 Bft)
04.05.2012 20:27 14,5 C 58 % 0,0 l/m 0,3 km/h (0 Bft) N 360 6,3 C 14,4 C 1,6 km/h (1 Bft)
04.05.2012 20:28 14,4 C 57 % 0,0 l/m 0,5 km/h (0 Bft) NO 45 6,0 C 14,0 C 2,4 km/h (1 Bft)
04.05.2012 20:29 14,4 C 57 % 0,0 l/m 0,5 km/h (0 Bft) NO 45 6,0 C 14,0 C 2,4 km/h (1 Bft)
04.05.2012 20:30 14,3 C 57 % 0,0 l/m 0,6 km/h (0 Bft) NO 45 5,9 C 13,6 C 0,0 km/h (0 Bft)
04.05.2012 20:31 14,3 C 57 % 0,0 l/m 0,6 km/h (0 Bft) NO 45 5,9 C 13,6 C 0,0 km/h (0 Bft)
04.05.2012 20:32 14,2 C 57 % 0,0 l/m 0,6 km/h (0 Bft) NO 45 5,8 C 13,4 C 1,6 km/h (1 Bft)
04.05.2012 20:33 14,2 C 57 % 0,0 l/m 0,6 km/h (0 Bft) NO 45 5,8 C 13,4 C 1,6 km/h (1 Bft)
04.05.2012 20:34 14,1 C 58 % 0,0 l/m 0,8 km/h (0 Bft) NO 45 6,0 C 13,1 C 1,9 km/h (1 Bft)
04.05.2012 20:35 14,1 C 58 % 0,0 l/m 0,8 km/h (0 Bft) NO 45 6,0 C 13,1 C 1,9 km/h (1 Bft)
04.05.2012 20:36 14,0 C 58 % 0,0 l/m 0,8 km/h (0 Bft) N-NO 22 5,9 C 12,7 C 1,6 km/h (1 Bft)
04.05.2012 20:37 14,0 C 58 % 0,0 l/m 0,8 km/h (0 Bft) N-NO 22 5,9 C 12,7 C 1,6 km/h (1 Bft)
04.05.2012 20:38 13,8 C 59 % 0,0 l/m 0,8 km/h (0 Bft) N-NO 22 5,9 C 12,5 C 1,9 km/h (1 Bft)
04.05.2012 20:39 13,8 C 59 % 0,0 l/m 0,8 km/h (0 Bft) N-NO 22 5,9 C 12,5 C 1,9 km/h (1 Bft)
04.05.2012 20:40 13,7 C 60 % 0,0 l/m 0,6 km/h (0 Bft) W-NW 292 6,1 C 12,2 C 0,0 km/h (0 Bft)
04.05.2012 20:41 13,7 C 60 % 0,0 l/m 0,6 km/h (0 Bft) W-NW 292 6,1 C 12,2 C 0,0 km/h (0 Bft)
04.05.2012 20:42 13,4 C 60 % 0,0 l/m 0,6 km/h (0 Bft) NO 45 5,8 C 12,0 C 0,0 km/h (0 Bft)
04.05.2012 20:43 13,4 C 60 % 0,0 l/m 0,6 km/h (0 Bft) NO 45 5,8 C 12,0 C 0,0 km/h (0 Bft)
04.05.2012 20:44 13,3 C 61 % 0,0 l/m 0,5 km/h (0 Bft) NO 45 5,9 C 11,8 C 1,9 km/h (1 Bft)
04.05.2012 20:45 13,3 C 61 % 0,0 l/m 0,5 km/h (0 Bft) NO 45 5,9 C 11,8 C 1,9 km/h (1 Bft)
04.05.2012 20:46 13,3 C 61 % 0,0 l/m 0,5 km/h (0 Bft) N-NW 337 5,9 C 11,6 C 0,0 km/h (0 Bft)
04.05.2012 20:47 13,3 C 61 % 0,0 l/m 0,5 km/h (0 Bft) N-NW 337 5,9 C 11,6 C 0,0 km/h (0 Bft)
04.05.2012 20:48 13,2 C 61 % 0,0 l/m 0,3 km/h (0 Bft) NO 45 5,8 C 11,5 C 0,0 km/h (0 Bft)
04.05.2012 20:49 13,2 C 61 % 0,0 l/m 0,3 km/h (0 Bft) NO 45 5,8 C 11,5 C 0,0 km/h (0 Bft)
04.05.2012 20:50 12,8 C 61 % 0,0 l/m 0,5 km/h (0 Bft) N-NO 22 5,5 C 11,3 C 2,1 km/h (1 Bft)
04.05.2012 20:51 12,8 C 61 % 0,0 l/m 0,5 km/h (0 Bft) N-NO 22 5,5 C 11,3 C 2,1 km/h (1 Bft)
04.05.2012 20:52 12,8 C 62 % 0,0 l/m 0,8 km/h (0 Bft) N-NO 22 5,7 C 11,0 C 3,4 km/h (1 Bft)
04.05.2012 20:53 12,8 C 62 % 0,0 l/m 0,8 km/h (0 Bft) N-NO 22 5,7 C 11,0 C 3,4 km/h (1 Bft)
04.05.2012 20:54 12,7 C 62 % 0,0 l/m 0,8 km/h (0 Bft) N-NO 22 5,6 C 10,9 C 0,0 km/h (0 Bft)
04.05.2012 20:55 12,7 C 62 % 0,0 l/m 0,8 km/h (0 Bft) N-NO 22 5,6 C 10,9 C 0,0 km/h (0 Bft)
04.05.2012 20:56 12,7 C 62 % 0,0 l/m 1,0 km/h (0 Bft) NO 45 5,6 C 10,7 C 3,4 km/h (1 Bft)
04.05.2012 20:57 12,7 C 62 % 0,0 l/m 1,0 km/h (0 Bft) NO 45 5,6 C 10,7 C 3,4 km/h (1 Bft)
04.05.2012 20:58 12,5 C 62 % 0,0 l/m 1,3 km/h (1 Bft) NO 45 5,4 C 10,6 C 1,8 km/h (1 Bft)
04.05.2012 20:59 12,5 C 62 % 0,0 l/m 1,3 km/h (1 Bft) NO 45 5,4 C 10,6 C 1,8 km/h (1 Bft)
04.05.2012 21:00 12,4 C 62 % 0,0 l/m 1,4 km/h (1 Bft) N 360 5,3 C 10,5 C 2,6 km/h (1 Bft)
04.05.2012 21:01 12,4 C 62 % 0,0 l/m 1,4 km/h (1 Bft) N 360 5,3 C 10,5 C 2,6 km/h (1 Bft)
04.05.2012 21:02 12,4 C 63 % 0,0 l/m 1,6 km/h (1 Bft) N-NO 22 5,6 C 10,4 C 2,6 km/h (1 Bft)
04.05.2012 21:03 12,4 C 63 % 0,0 l/m 1,6 km/h (1 Bft) N-NO 22 5,6 C 10,4 C 2,6 km/h (1 Bft)
04.05.2012 21:04 12,3 C 63 % 0,0 l/m 1,4 km/h (1 Bft) NO 45 5,5 C 10,3 C 1,9 km/h (1 Bft)
04.05.2012 21:05 12,3 C 63 % 0,0 l/m 1,4 km/h (1 Bft) NO 45 5,5 C 10,3 C 1,9 km/h (1 Bft)
04.05.2012 21:06 12,3 C 64 % 0,0 l/m 1,6 km/h (1 Bft) N-NO 22 5,7 C 10,1 C 1,9 km/h (1 Bft)
04.05.2012 21:07 12,3 C 64 % 0,0 l/m 1,6 km/h (1 Bft) N-NO 22 5,7 C 10,1 C 1,9 km/h (1 Bft)
04.05.2012 21:08 12,0 C 64 % 0,0 l/m 1,6 km/h (1 Bft) N-NO 22 5,4 C 10,1 C 2,3 km/h (1 Bft)
04.05.2012 21:09 12,0 C 64 % 0,0 l/m 1,6 km/h (1 Bft) N-NO 22 5,4 C 10,1 C 2,3 km/h (1 Bft)
04.05.2012 21:10 11,9 C 64 % 0,0 l/m 1,4 km/h (1 Bft) NO 45 5,3 C 10,0 C 1,6 km/h (1 Bft)
04.05.2012 21:11 11,9 C 64 % 0,0 l/m 1,4 km/h (1 Bft) NO 45 5,3 C 10,0 C 1,6 km/h (1 Bft)
04.05.2012 21:12 11,9 C 65 % 0,0 l/m 1,3 km/h (1 Bft) N-NO 22 5,5 C 9,9 C 1,9 km/h (1 Bft)
04.05.2012 21:13 11,9 C 65 % 0,0 l/m 1,3 km/h (1 Bft) N-NO 22 5,5 C 9,9 C 1,9 km/h (1 Bft)
04.05.2012 21:14 11,7 C 65 % 0,0 l/m 1,3 km/h (1 Bft) NO 45 5,3 C 9,8 C 1,6 km/h (1 Bft)
04.05.2012 21:15 11,7 C 65 % 0,0 l/m 1,3 km/h (1 Bft) NO 45 5,3 C 9,8 C 1,6 km/h (1 Bft)
04.05.2012 21:15 11,6 C 65 % 0,0 l/m 1,0 km/h (0 Bft) N-NO 22 5,2 C 9,8 C 0,0 km/h (0 Bft)
04.05.2012 21:16 11,6 C 65 % 0,0 l/m 1,0 km/h (0 Bft) N-NO 22 5,2 C 9,8 C 0,0 km/h (0 Bft)
04.05.2012 21:17 11,6 C 65 % 0,0 l/m 1,0 km/h (0 Bft) N-NO 22 5,2 C 9,8 C 0,0 km/h (0 Bft)
04.05.2012 21:18 11,6 C 65 % 0,0 l/m 1,0 km/h (0 Bft) NO 45 5,2 C 9,8 C 1,6 km/h (1 Bft)
04.05.2012 21:19 11,6 C 65 % 0,0 l/m 1,0 km/h (0 Bft) NO 45 5,2 C 9,8 C 1,6 km/h (1 Bft)
04.05.2012 21:20 11,6 C 66 % 0,0 l/m 1,1 km/h (1 Bft) N-NO 22 5,5 C 9,8 C 3,4 km/h (1 Bft)
04.05.2012 21:21 11,6 C 66 % 0,0 l/m 1,1 km/h (1 Bft) N-NO 22 5,5 C 9,8 C 3,4 km/h (1 Bft)
04.05.2012 21:22 11,6 C 66 % 0,0 l/m 1,3 km/h (1 Bft) N-NO 22 5,5 C 9,9 C 2,6 km/h (1 Bft)
04.05.2012 21:23 11,6 C 66 % 0,0 l/m 1,3 km/h (1 Bft) N-NO 22 5,5 C 9,9 C 2,6 km/h (1 Bft)
04.05.2012 21:24 11,5 C 66 % 0,0 l/m 1,1 km/h (1 Bft) N 360 5,4 C 9,9 C 2,1 km/h (1 Bft)
04.05.2012 21:25 11,5 C 66 % 0,0 l/m 1,1 km/h (1 Bft) N 360 5,4 C 9,9 C 2,1 km/h (1 Bft)
04.05.2012 21:26 11,5 C 66 % 0,0 l/m 1,3 km/h (1 Bft) NO 45 5,4 C 10,0 C 2,4 km/h (1 Bft)
04.05.2012 21:27 11,5 C 66 % 0,0 l/m 1,3 km/h (1 Bft) NO 45 5,4 C 10,0 C 2,4 km/h (1 Bft)
04.05.2012 21:28 11,5 C 66 % 0,0 l/m 1,4 km/h (1 Bft) N-NO 22 5,4 C 10,0 C 3,7 km/h (1 Bft)
04.05.2012 21:29 11,5 C 66 % 0,0 l/m 1,4 km/h (1 Bft) N-NO 22 5,4 C 10,0 C 3,7 km/h (1 Bft)
04.05.2012 21:30 11,5 C 66 % 0,0 l/m 1,3 km/h (1 Bft) N-NO 22 5,4 C 10,1 C 1,9 km/h (1 Bft)
04.05.2012 21:31 11,5 C 66 % 0,0 l/m 1,3 km/h (1 Bft) N-NO 22 5,4 C 10,1 C 1,9 km/h (1 Bft)
04.05.2012 21:32 11,5 C 67 % 0,0 l/m 1,3 km/h (1 Bft) NO 45 5,6 C 10,1 C 2,9 km/h (1 Bft)
04.05.2012 21:33 11,5 C 67 % 0,0 l/m 1,3 km/h (1 Bft) NO 45 5,6 C 10,1 C 2,9 km/h (1 Bft)
04.05.2012 21:34 11,4 C 67 % 0,0 l/m 1,3 km/h (1 Bft) NO 45 5,5 C 10,1 C 1,9 km/h (1 Bft)
04.05.2012 21:35 11,4 C 67 % 0,0 l/m 1,3 km/h (1 Bft) NO 45 5,5 C 10,1 C 1,9 km/h (1 Bft)
04.05.2012 21:36 11,3 C 67 % 0,0 l/m 1,8 km/h (1 Bft) NO 45 5,4 C 10,1 C 4,0 km/h (1 Bft)
04.05.2012 21:37 11,3 C 67 % 0,0 l/m 1,8 km/h (1 Bft) NO 45 5,4 C 10,1 C 4,0 km/h (1 Bft)
04.05.2012 21:38 11,3 C 67 % 0,0 l/m 2,1 km/h (1 Bft) NO 45 5,4 C 10,0 C 2,9 km/h (1 Bft)
04.05.2012 21:39 11,3 C 67 % 0,0 l/m 2,1 km/h (1 Bft) NO 45 5,4 C 10,0 C 2,9 km/h (1 Bft)
04.05.2012 21:40 11,3 C 67 % 0,0 l/m 2,3 km/h (1 Bft) N-NO 22 5,4 C 10,0 C 3,4 km/h (1 Bft)
04.05.2012 21:41 11,3 C 67 % 0,0 l/m 2,3 km/h (1 Bft) N-NO 22 5,4 C 10,0 C 3,4 km/h (1 Bft)
04.05.2012 21:42 11,3 C 67 % 0,0 l/m 2,6 km/h (1 Bft) NO 45 5,4 C 10,0 C 3,4 km/h (1 Bft)
04.05.2012 21:43 11,3 C 67 % 0,0 l/m 2,6 km/h (1 Bft) NO 45 5,4 C 10,0 C 3,4 km/h (1 Bft)
04.05.2012 21:44 11,5 C 67 % 0,0 l/m 2,7 km/h (1 Bft) NO 45 5,6 C 10,1 C 2,3 km/h (1 Bft)
04.05.2012 21:45 11,5 C 67 % 0,0 l/m 2,7 km/h (1 Bft) NO 45 5,6 C 10,1 C 2,3 km/h (1 Bft)
04.05.2012 21:46 11,5 C 68 % 0,0 l/m 2,9 km/h (1 Bft) NO 45 5,8 C 10,1 C 3,9 km/h (1 Bft)
04.05.2012 21:47 11,5 C 68 % 0,0 l/m 2,9 km/h (1 Bft) NO 45 5,8 C 10,1 C 3,9 km/h (1 Bft)
04.05.2012 21:48 11,5 C 68 % 0,0 l/m 2,7 km/h (1 Bft) NO 45 5,8 C 10,1 C 2,9 km/h (1 Bft)
04.05.2012 21:49 11,5 C 68 % 0,0 l/m 2,7 km/h (1 Bft) NO 45 5,8 C 10,1 C 2,9 km/h (1 Bft)
04.05.2012 21:50 11,5 C 68 % 0,0 l/m 2,7 km/h (1 Bft) NO 45 5,8 C 10,1 C 2,1 km/h (1 Bft)
04.05.2012 21:51 11,5 C 68 % 0,0 l/m 2,7 km/h (1 Bft) NO 45 5,8 C 10,1 C 2,1 km/h (1 Bft)
04.05.2012 21:52 11,4 C 67 % 0,0 l/m 2,4 km/h (1 Bft) NO 45 5,5 C 10,1 C 0,0 km/h (0 Bft)
04.05.2012 21:53 11,4 C 67 % 0,0 l/m 2,4 km/h (1 Bft) NO 45 5,5 C 10,1 C 0,0 km/h (0 Bft)
04.05.2012 21:54 11,5 C 68 % 0,0 l/m 2,1 km/h (1 Bft) NO 45 5,8 C 10,1 C 0,0 km/h (0 Bft)
04.05.2012 21:55 11,5 C 68 % 0,0 l/m 2,1 km/h (1 Bft) NO 45 5,8 C 10,1 C 0,0 km/h (0 Bft)
04.05.2012 21:56 11,5 C 67 % 0,0 l/m 1,4 km/h (1 Bft) O 90 5,6 C 10,2 C 0,0 km/h (0 Bft)
04.05.2012 21:57 11,5 C 67 % 0,0 l/m 1,4 km/h (1 Bft) O 90 5,6 C 10,2 C 0,0 km/h (0 Bft)
04.05.2012 21:58 11,5 C 67 % 0,0 l/m 0,8 km/h (0 Bft) N 360 5,6 C 10,2 C 0,0 km/h (0 Bft)
04.05.2012 21:59 11,5 C 67 % 0,0 l/m 0,8 km/h (0 Bft) N 360 5,6 C 10,2 C 0,0 km/h (0 Bft)
04.05.2012 22:00 11,5 C 67 % 0,0 l/m 0,5 km/h (0 Bft) N-NW 337 5,6 C 10,2 C 0,0 km/h (0 Bft)
04.05.2012 22:01 11,5 C 67 % 0,0 l/m 0,5 km/h (0 Bft) N-NW 337 5,6 C 10,2 C 0,0 km/h (0 Bft)
04.05.2012 22:02 11,6 C 68 % 0,0 l/m 0,2 km/h (0 Bft) W 270 5,9 C 10,2 C 0,0 km/h (0 Bft)
04.05.2012 22:03 11,6 C 68 % 0,0 l/m 0,2 km/h (0 Bft) W 270 5,9 C 10,2 C 0,0 km/h (0 Bft)
04.05.2012 22:04 11,7 C 67 % 0,0 l/m 0,0 km/h (0 Bft) W-NW 292 5,8 C 10,2 C 0,0 km/h (0 Bft)
04.05.2012 22:05 11,7 C 67 % 0,0 l/m 0,0 km/h (0 Bft) W-NW 292 5,8 C 10,2 C 0,0 km/h (0 Bft)
04.05.2012 22:06 11,6 C 67 % 0,0 l/m 0,0 km/h (0 Bft) W 270 5,7 C 10,2 C 0,0 km/h (0 Bft)
04.05.2012 22:07 11,6 C 67 % 0,0 l/m 0,0 km/h (0 Bft) W 270 5,7 C 10,2 C 0,0 km/h (0 Bft)
04.05.2012 22:08 11,6 C 68 % 0,0 l/m 0,0 km/h (0 Bft) W 270 5,9 C 10,2 C 0,0 km/h (0 Bft)
04.05.2012 22:09 11,6 C 68 % 0,0 l/m 0,0 km/h (0 Bft) W 270 5,9 C 10,2 C 0,0 km/h (0 Bft)
04.05.2012 22:10 11,6 C 68 % 0,0 l/m 0,0 km/h (0 Bft) N-NO 22 5,9 C 10,2 C 0,0 km/h (0 Bft)
04.05.2012 22:11 11,6 C 68 % 0,0 l/m 0,0 km/h (0 Bft) N-NO 22 5,9 C 10,2 C 0,0 km/h (0 Bft)
04.05.2012 22:12 11,6 C 68 % 0,0 l/m 0,0 km/h (0 Bft) N-NO 22 5,9 C 10,2 C 0,0 km/h (0 Bft)
04.05.2012 22:13 11,6 C 68 % 0,0 l/m 0,0 km/h (0 Bft) N-NO 22 5,9 C 10,2 C 0,0 km/h (0 Bft)
04.05.2012 22:14 11,6 C 67 % 0,0 l/m 0,0 km/h (0 Bft) N 360 5,7 C 10,1 C 0,0 km/h (0 Bft)
04.05.2012 22:15 11,6 C 67 % 0,0 l/m 0,0 km/h (0 Bft) N 360 5,7 C 10,1 C 0,0 km/h (0 Bft)
04.05.2012 22:16 11,7 C 67 % 0,0 l/m 0,0 km/h (0 Bft) S 180 5,8 C 10,1 C 0,0 km/h (0 Bft)
04.05.2012 22:17 11,7 C 67 % 0,0 l/m 0,0 km/h (0 Bft) S 180 5,8 C 10,1 C 0,0 km/h (0 Bft)
04.05.2012 22:18 11,7 C 68 % 0,0 l/m 0,0 km/h (0 Bft) N-NW 337 6,0 C 10,1 C 0,0 km/h (0 Bft)
04.05.2012 22:19 11,7 C 68 % 0,0 l/m 0,0 km/h (0 Bft) N-NW 337 6,0 C 10,1 C 0,0 km/h (0 Bft)
04.05.2012 22:20 11,6 C 68 % 0,0 l/m 0,0 km/h (0 Bft) W 270 5,9 C 10,1 C 0,0 km/h (0 Bft)
04.05.2012 22:21 11,6 C 68 % 0,0 l/m 0,0 km/h (0 Bft) W 270 5,9 C 10,1 C 0,0 km/h (0 Bft)
04.05.2012 22:22 11,7 C 68 % 0,0 l/m 0,0 km/h (0 Bft) W 270 6,0 C 10,1 C 0,0 km/h (0 Bft)
04.05.2012 22:23 11,7 C 68 % 0,0 l/m 0,0 km/h (0 Bft) W 270 6,0 C 10,1 C 0,0 km/h (0 Bft)
04.05.2012 22:24 11,7 C 68 % 0,0 l/m 0,0 km/h (0 Bft) S 180 6,0 C 10,2 C 0,0 km/h (0 Bft)
04.05.2012 22:25 11,7 C 68 % 0,0 l/m 0,0 km/h (0 Bft) S 180 6,0 C 10,2 C 0,0 km/h (0 Bft)
04.05.2012 22:26 11,7 C 68 % 0,0 l/m 0,0 km/h (0 Bft) O 90 6,0 C 10,2 C 0,0 km/h (0 Bft)
04.05.2012 22:27 11,7 C 68 % 0,0 l/m 0,0 km/h (0 Bft) O 90 6,0 C 10,2 C 0,0 km/h (0 Bft)
04.05.2012 22:28 11,7 C 67 % 0,0 l/m 0,2 km/h (0 Bft) N 360 5,8 C 10,2 C 0,0 km/h (0 Bft)
04.05.2012 22:29 11,7 C 67 % 0,0 l/m 0,2 km/h (0 Bft) N 360 5,8 C 10,2 C 0,0 km/h (0 Bft)
04.05.2012 22:30 11,7 C 68 % 0,0 l/m 0,2 km/h (0 Bft) NO 45 6,0 C 10,3 C 0,0 km/h (0 Bft)
04.05.2012 22:31 11,7 C 68 % 0,0 l/m 0,2 km/h (0 Bft) NO 45 6,0 C 10,3 C 0,0 km/h (0 Bft)
04.05.2012 22:32 11,7 C 68 % 0,0 l/m 0,2 km/h (0 Bft) W-SW 247 6,0 C 10,3 C 0,0 km/h (0 Bft)
04.05.2012 22:33 11,7 C 68 % 0,0 l/m 0,2 km/h (0 Bft) W-SW 247 6,0 C 10,3 C 0,0 km/h (0 Bft)
04.05.2012 22:34 11,6 C 68 % 0,0 l/m 0,2 km/h (0 Bft) NO 45 5,9 C 10,2 C 0,0 km/h (0 Bft)
04.05.2012 22:35 11,6 C 68 % 0,0 l/m 0,2 km/h (0 Bft) NO 45 5,9 C 10,2 C 0,0 km/h (0 Bft)
04.05.2012 22:36 11,6 C 68 % 0,0 l/m 0,2 km/h (0 Bft) NW 315 5,9 C 10,1 C 0,0 km/h (0 Bft)
04.05.2012 22:37 11,6 C 68 % 0,0 l/m 0,2 km/h (0 Bft) NW 315 5,9 C 10,1 C 0,0 km/h (0 Bft)
04.05.2012 22:38 11,6 C 68 % 0,0 l/m 0,0 km/h (0 Bft) NW 315 5,9 C 10,1 C 0,0 km/h (0 Bft)
04.05.2012 22:39 11,6 C 68 % 0,0 l/m 0,0 km/h (0 Bft) NW 315 5,9 C 10,1 C 0,0 km/h (0 Bft)
04.05.2012 22:40 11,6 C 68 % 0,0 l/m 0,0 km/h (0 Bft) W-NW 292 5,9 C 10,1 C 0,0 km/h (0 Bft)
04.05.2012 22:41 11,6 C 68 % 0,0 l/m 0,0 km/h (0 Bft) W-NW 292 5,9 C 10,1 C 0,0 km/h (0 Bft)
04.05.2012 22:42 11,7 C 68 % 0,0 l/m 0,0 km/h (0 Bft) W-NW 292 6,0 C 10,1 C 0,0 km/h (0 Bft)
04.05.2012 22:43 11,7 C 68 % 0,0 l/m 0,0 km/h (0 Bft) W-NW 292 6,0 C 10,1 C 0,0 km/h (0 Bft)
04.05.2012 22:44 11,7 C 68 % 0,0 l/m 0,0 km/h (0 Bft) N-NW 337 6,0 C 10,0 C 0,0 km/h (0 Bft)
04.05.2012 22:45 11,7 C 68 % 0,0 l/m 0,0 km/h (0 Bft) N-NW 337 6,0 C 10,0 C 0,0 km/h (0 Bft)
04.05.2012 22:46 11,6 C 68 % 0,0 l/m 0,0 km/h (0 Bft) N 360 5,9 C 9,9 C 0,0 km/h (0 Bft)
04.05.2012 22:47 11,6 C 68 % 0,0 l/m 0,0 km/h (0 Bft) N 360 5,9 C 9,9 C 0,0 km/h (0 Bft)
04.05.2012 22:48 11,5 C 68 % 0,0 l/m 0,0 km/h (0 Bft) N-NO 22 5,8 C 9,8 C 0,0 km/h (0 Bft)
04.05.2012 22:49 11,5 C 68 % 0,0 l/m 0,0 km/h (0 Bft) N-NO 22 5,8 C 9,8 C 0,0 km/h (0 Bft)
04.05.2012 22:50 11,5 C 68 % 0,0 l/m 0,0 km/h (0 Bft) S 180 5,8 C 9,7 C 0,0 km/h (0 Bft)
04.05.2012 22:51 11,5 C 68 % 0,0 l/m 0,0 km/h (0 Bft) S 180 5,8 C 9,7 C 0,0 km/h (0 Bft)
04.05.2012 22:52 11,4 C 67 % 0,0 l/m 0,0 km/h (0 Bft) S 180 5,5 C 9,6 C 0,0 km/h (0 Bft)
04.05.2012 22:53 11,4 C 67 % 0,0 l/m 0,0 km/h (0 Bft) S 180 5,5 C 9,6 C 0,0 km/h (0 Bft)
04.05.2012 22:54 11,5 C 68 % 0,0 l/m 0,0 km/h (0 Bft) S 180 5,8 C 9,4 C 0,0 km/h (0 Bft)
04.05.2012 22:55 11,5 C 68 % 0,0 l/m 0,0 km/h (0 Bft) S 180 5,8 C 9,4 C 0,0 km/h (0 Bft)
04.05.2012 22:56 11,3 C 67 % 0,0 l/m 0,0 km/h (0 Bft) S 180 5,4 C 9,3 C 0,0 km/h (0 Bft)
04.05.2012 22:57 11,3 C 67 % 0,0 l/m 0,0 km/h (0 Bft) S 180 5,4 C 9,3 C 0,0 km/h (0 Bft)
04.05.2012 22:58 11,2 C 67 % 0,0 l/m 0,0 km/h (0 Bft) NO 45 5,3 C 9,2 C 0,0 km/h (0 Bft)
04.05.2012 22:59 11,2 C 67 % 0,0 l/m 0,0 km/h (0 Bft) NO 45 5,3 C 9,2 C 0,0 km/h (0 Bft)
04.05.2012 23:00 11,2 C 67 % 0,0 l/m 0,0 km/h (0 Bft) N-NO 22 5,3 C 9,1 C 0,0 km/h (0 Bft)
04.05.2012 23:01 11,2 C 67 % 0,0 l/m 0,0 km/h (0 Bft) N-NO 22 5,3 C 9,1 C 0,0 km/h (0 Bft)
04.05.2012 23:02 11,1 C 67 % 0,0 l/m 0,0 km/h (0 Bft) NO 45 5,2 C 9,0 C 0,0 km/h (0 Bft)
04.05.2012 23:03 11,1 C 67 % 0,0 l/m 0,0 km/h (0 Bft) NO 45 5,2 C 9,0 C 0,0 km/h (0 Bft)
04.05.2012 23:04 11,0 C 67 % 0,0 l/m 0,0 km/h (0 Bft) N-NO 22 5,1 C 8,9 C 0,0 km/h (0 Bft)
04.05.2012 23:06 11,1 C 67 % 0,0 l/m 0,0 km/h (0 Bft) N-NO 22 5,2 C 8,8 C 0,0 km/h (0 Bft)
04.05.2012 23:07 11,1 C 67 % 0,0 l/m 0,0 km/h (0 Bft) N-NO 22 5,2 C 8,8 C 0,0 km/h (0 Bft)
04.05.2012 23:08 11,0 C 67 % 0,0 l/m 0,0 km/h (0 Bft) N-NO 22 5,1 C 8,8 C 0,0 km/h (0 Bft)
04.05.2012 23:09 11,0 C 67 % 0,0 l/m 0,0 km/h (0 Bft) N-NO 22 5,1 C 8,8 C 0,0 km/h (0 Bft)
04.05.2012 23:10 10,9 C 67 % 0,0 l/m 0,0 km/h (0 Bft) N-NW 337 5,0 C 8,6 C 0,0 km/h (0 Bft)
04.05.2012 23:11 10,9 C 67 % 0,0 l/m 0,0 km/h (0 Bft) N-NW 337 5,0 C 8,6 C 0,0 km/h (0 Bft)
04.05.2012 23:12 10,9 C 67 % 0,0 l/m 0,0 km/h (0 Bft) W-NW 292 5,0 C 8,5 C 0,0 km/h (0 Bft)
04.05.2012 23:13 10,9 C 67 % 0,0 l/m 0,0 km/h (0 Bft) W-NW 292 5,0 C 8,5 C 0,0 km/h (0 Bft)
04.05.2012 23:14 10,8 C 67 % 0,0 l/m 0,0 km/h (0 Bft) N-NO 22 4,9 C 8,4 C 0,0 km/h (0 Bft)
04.05.2012 23:15 10,8 C 67 % 0,0 l/m 0,0 km/h (0 Bft) N-NO 22 4,9 C 8,4 C 0,0 km/h (0 Bft)
04.05.2012 23:16 10,8 C 67 % 0,0 l/m 0,0 km/h (0 Bft) N-NO 22 4,9 C 8,4 C 0,0 km/h (0 Bft)
04.05.2012 23:17 10,8 C 67 % 0,0 l/m 0,0 km/h (0 Bft) N-NO 22 4,9 C 8,4 C 0,0 km/h (0 Bft)
04.05.2012 23:18 10,8 C 67 % 0,0 l/m 0,0 km/h (0 Bft) N-NO 22 4,9 C 8,3 C 0,0 km/h (0 Bft)
04.05.2012 23:19 10,8 C 67 % 0,0 l/m 0,0 km/h (0 Bft) N-NO 22 4,9 C 8,3 C 0,0 km/h (0 Bft)
04.05.2012 23:20 10,7 C 67 % 0,0 l/m 0,0 km/h (0 Bft) N-NO 22 4,8 C 8,1 C 0,0 km/h (0 Bft)
04.05.2012 23:21 10,7 C 67 % 0,0 l/m 0,0 km/h (0 Bft) N-NO 22 4,8 C 8,1 C 0,0 km/h (0 Bft)
04.05.2012 23:22 10,6 C 67 % 0,0 l/m 0,0 km/h (0 Bft) N-NO 22 4,7 C 8,1 C 0,0 km/h (0 Bft)
04.05.2012 23:23 10,6 C 67 % 0,0 l/m 0,0 km/h (0 Bft) N-NO 22 4,7 C 8,1 C 0,0 km/h (0 Bft)
04.05.2012 23:24 10,6 C 67 % 0,0 l/m 0,0 km/h (0 Bft) N-NO 22 4,7 C 8,1 C 0,0 km/h (0 Bft)
04.05.2012 23:25 10,6 C 67 % 0,0 l/m 0,0 km/h (0 Bft) N-NO 22 4,7 C 8,1 C 0,0 km/h (0 Bft)
04.05.2012 23:26 10,5 C 67 % 0,0 l/m 0,0 km/h (0 Bft) N-NO 22 4,6 C 8,1 C 0,0 km/h (0 Bft)
04.05.2012 23:27 10,5 C 67 % 0,0 l/m 0,0 km/h (0 Bft) N-NO 22 4,6 C 8,1 C 0,0 km/h (0 Bft)
04.05.2012 23:28 10,5 C 67 % 0,0 l/m 0,0 km/h (0 Bft) N-NW 337 4,6 C 8,1 C 0,0 km/h (0 Bft)
04.05.2012 23:29 10,5 C 67 % 0,0 l/m 0,0 km/h (0 Bft) N-NW 337 4,6 C 8,1 C 0,0 km/h (0 Bft)
04.05.2012 23:30 10,5 C 67 % 0,0 l/m 0,0 km/h (0 Bft) W-SW 247 4,6 C 8,1 C 0,0 km/h (0 Bft)
04.05.2012 23:31 10,5 C 67 % 0,0 l/m 0,0 km/h (0 Bft) W-SW 247 4,6 C 8,1 C 0,0 km/h (0 Bft)
04.05.2012 23:32 10,4 C 68 % 0,0 l/m 0,0 km/h (0 Bft) S-SW 202 4,8 C 8,0 C 0,0 km/h (0 Bft)
04.05.2012 23:33 10,4 C 68 % 0,0 l/m 0,0 km/h (0 Bft) S-SW 202 4,8 C 8,0 C 0,0 km/h (0 Bft)
04.05.2012 23:34 10,4 C 68 % 0,0 l/m 0,0 km/h (0 Bft) W 270 4,8 C 7,9 C 0,0 km/h (0 Bft)
04.05.2012 23:35 10,4 C 68 % 0,0 l/m 0,0 km/h (0 Bft) W 270 4,8 C 7,9 C 0,0 km/h (0 Bft)
04.05.2012 23:36 10,3 C 68 % 0,0 l/m 0,0 km/h (0 Bft) N 360 4,7 C 7,8 C 0,0 km/h (0 Bft)
04.05.2012 23:37 10,3 C 68 % 0,0 l/m 0,0 km/h (0 Bft) N 360 4,7 C 7,8 C 0,0 km/h (0 Bft)
04.05.2012 23:38 10,3 C 68 % 0,0 l/m 0,0 km/h (0 Bft) N-NW 337 4,7 C 7,6 C 0,0 km/h (0 Bft)
04.05.2012 23:39 10,3 C 68 % 0,0 l/m 0,0 km/h (0 Bft) N-NW 337 4,7 C 7,6 C 0,0 km/h (0 Bft)
04.05.2012 23:40 10,3 C 68 % 0,0 l/m 0,0 km/h (0 Bft) W 270 4,7 C 7,5 C 0,0 km/h (0 Bft)
04.05.2012 23:43 10,1 C 68 % 0,0 l/m 0,0 km/h (0 Bft) W-NW 292 4,5 C 7,4 C 0,0 km/h (0 Bft)
04.05.2012 23:48 10,0 C 69 % 0,0 l/m 0,0 km/h (0 Bft) N-NW 337 4,6 C 7,2 C 0,0 km/h (0 Bft)
04.05.2012 23:53 9,7 C 70 % 0,0 l/m 0,2 km/h (0 Bft) N 360 4,5 C 7,1 C 0,0 km/h (0 Bft)
04.05.2012 23:57 9,7 C 70 % 0,0 l/m 0,3 km/h (0 Bft) N-NO 22 4,5 C 7,1 C 1,6 km/h (1 Bft)
04.05.2012 23:58 9,7 C 71 % 0,0 l/m 0,3 km/h (0 Bft) N 360 4,7 C 7,0 C 1,9 km/h (1 Bft)
_ Min-Zeit 06:17 12:23 - 00:01 - - 15:17 04:29 00:00
Minimum _ 6,9 C 32 % - 0,0 km/h (0 Bft) - - 3,7 C 5,3 C 0,0 km/h (0 Bft)
_ Max-Zeit 12:55 04:19 00:00 12:41 - - 08:03 19:00 12:40
Maximum _ 24,9 C 83 % 0,0 l/m 7,2 km/h
S (2 Bft)
- - 10,5 C 24,1 C 14,6 km/h
O-SO (3 Bft)
Durchschnitt _ 15,4 C 57 % #0,0 l/m 1,8 km/h (1 Bft) SO - 6,1 C 14,6 C 2,3 km/h (1 Bft)